[[{"header":{"parameterUnit":"m.s-1","parameterCategory":1,"la1":30.6,"la2":29.2853,"lo1":-89.7004,"lo2":-87.6739,"dy":0.0162,"dx":0.0183,"nx":112,"ny":82,"refTime":"2025-05-16T00:00:00:Z","depth":0,"parameterNumber":2,"parameterNumberName":"U-component_of_WINDS"},"data":[0.0,0.0,0.0,0.0,0.0,0.0,0.0,0.0,0.0,0.0,0.0,0.0,0.0,0.0,0.0,0.0,0.0,0.0,0.0,0.0,0.0,0.0,0.0,0.0,0.0,0.0,0.0,0.0,0.0,0.0,0.0,0.0,0.0,0.0,0.0,0.0,0.0,0.0,0.0,0.0,0.0,0.0,0.0,0.0,0.0,0.0,0.0,0.0,0.0,0.0,0.0,0.0,0.0,0.0,0.0,0.0,0.0,0.0,0.0,0.0,0.0,0.0,0.0,0.0,0.0,0.0,0.0,0.0,0.0,0.0,0.0,0.0,0.0,0.0,0.0,0.0,0.0,0.0,0.0,0.0,0.0,0.0,0.0,0.0,0.0,0.0,0.0,0.0,0.0,0.0,-5.8749,-6.01,-6.098,-6.1716,-6.2283,-6.1508,-5.9183,-5.5049,0.0,0.0,0.0,0.0,0.0,0.0,0.0,0.0,0.0,0.0,0.0,0.0,0.0,0.0,0.0,0.0,0.0,0.0,0.0,0.0,0.0,0.0,0.0,0.0,0.0,0.0,0.0,0.0,0.0,0.0,0.0,0.0,0.0,0.0,0.0,0.0,0.0,0.0,0.0,0.0,0.0,0.0,0.0,0.0,0.0,0.0,0.0,0.0,0.0,0.0,0.0,0.0,0.0,0.0,0.0,0.0,0.0,0.0,0.0,0.0,0.0,0.0,0.0,0.0,0.0,0.0,0.0,0.0,0.0,0.0,0.0,0.0,0.0,0.0,0.0,0.0,0.0,0.0,0.0,0.0,0.0,0.0,0.0,0.0,0.0,0.0,0.0,0.0,0.0,0.0,0.0,0.0,0.0,0.0,0.0,0.0,0.0,0.0,0.0,0.0,0.0,0.0,0.0,0.0,-5.7411,-6.0886,-6.13,-6.1298,-6.1267,-6.0982,-5.9319,-5.5835,0.0,0.0,0.0,0.0,0.0,0.0,0.0,0.0,0.0,0.0,0.0,0.0,0.0,0.0,0.0,0.0,0.0,0.0,0.0,0.0,0.0,0.0,0.0,0.0,0.0,0.0,0.0,0.0,0.0,0.0,0.0,0.0,0.0,0.0,0.0,0.0,0.0,0.0,0.0,0.0,0.0,0.0,0.0,0.0,0.0,0.0,0.0,0.0,0.0,0.0,0.0,0.0,0.0,0.0,0.0,0.0,0.0,0.0,0.0,0.0,0.0,0.0,0.0,0.0,0.0,0.0,0.0,0.0,0.0,0.0,0.0,0.0,0.0,0.0,0.0,0.0,0.0,0.0,0.0,0.0,0.0,0.0,0.0,0.0,0.0,0.0,0.0,0.0,0.0,0.0,0.0,0.0,0.0,0.0,0.0,0.0,0.0,0.0,0.0,0.0,0.0,0.0,0.0,-5.6673,-5.8348,-6.1179,-6.1373,-6.122,-6.1023,-6.0882,-5.9192,-5.5381,-5.4805,0.0,0.0,0.0,0.0,0.0,0.0,0.0,0.0,0.0,0.0,0.0,0.0,0.0,0.0,0.0,0.0,0.0,0.0,0.0,0.0,0.0,0.0,0.0,0.0,0.0,0.0,0.0,0.0,0.0,0.0,0.0,0.0,0.0,0.0,0.0,0.0,0.0,0.0,0.0,0.0,0.0,0.0,0.0,0.0,0.0,0.0,0.0,0.0,0.0,0.0,0.0,0.0,0.0,0.0,0.0,0.0,0.0,0.0,0.0,0.0,0.0,0.0,0.0,0.0,0.0,0.0,0.0,0.0,0.0,0.0,0.0,0.0,0.0,0.0,0.0,0.0,0.0,0.0,0.0,0.0,0.0,0.0,0.0,0.0,0.0,0.0,0.0,0.0,0.0,0.0,0.0,0.0,0.0,0.0,0.0,0.0,0.0,0.0,0.0,0.0,0.0,0.0,-5.8524,-5.9772,-6.1231,-6.1306,-6.1158,-6.0973,-6.0492,-5.8617,-5.4829,-5.4201,0.0,0.0,0.0,0.0,0.0,0.0,0.0,0.0,0.0,0.0,0.0,0.0,0.0,0.0,0.0,0.0,0.0,0.0,0.0,0.0,0.0,0.0,0.0,0.0,0.0,0.0,0.0,0.0,0.0,0.0,0.0,0.0,0.0,0.0,0.0,0.0,0.0,0.0,0.0,0.0,0.0,0.0,0.0,0.0,0.0,0.0,0.0,0.0,0.0,0.0,0.0,0.0,0.0,0.0,0.0,0.0,0.0,0.0,0.0,0.0,0.0,0.0,0.0,0.0,0.0,0.0,0.0,0.0,0.0,0.0,0.0,0.0,0.0,0.0,0.0,0.0,0.0,0.0,0.0,0.0,0.0,0.0,0.0,0.0,0.0,0.0,0.0,0.0,0.0,0.0,0.0,0.0,0.0,0.0,0.0,0.0,0.0,0.0,0.0,0.0,0.0,0.0,-5.89,-6.0876,-6.1009,-6.1031,-6.0963,-6.0839,-5.9369,-5.7391,-5.4754,-5.3089,0.0,0.0,0.0,0.0,0.0,0.0,0.0,0.0,0.0,0.0,0.0,0.0,0.0,0.0,0.0,0.0,0.0,0.0,0.0,0.0,0.0,0.0,0.0,0.0,0.0,0.0,0.0,0.0,0.0,0.0,0.0,0.0,0.0,0.0,0.0,0.0,0.0,0.0,0.0,0.0,0.0,0.0,0.0,0.0,0.0,0.0,0.0,0.0,0.0,0.0,0.0,0.0,0.0,0.0,0.0,0.0,0.0,0.0,0.0,0.0,0.0,0.0,0.0,0.0,0.0,0.0,0.0,0.0,0.0,0.0,0.0,0.0,0.0,0.0,0.0,0.0,0.0,0.0,0.0,0.0,0.0,0.0,0.0,0.0,0.0,0.0,0.0,0.0,0.0,0.0,0.0,0.0,0.0,0.0,0.0,0.0,0.0,0.0,0.0,0.0,0.0,0.0,-5.7993,-5.9844,-6.0889,-6.0997,-6.0944,-6.0816,-5.9704,-5.7774,-5.4791,0.0,0.0,0.0,0.0,0.0,0.0,0.0,0.0,0.0,0.0,0.0,0.0,0.0,0.0,0.0,0.0,0.0,0.0,0.0,0.0,0.0,0.0,0.0,0.0,0.0,0.0,0.0,0.0,0.0,0.0,0.0,0.0,0.0,0.0,0.0,0.0,0.0,0.0,0.0,0.0,0.0,0.0,0.0,0.0,0.0,0.0,0.0,0.0,0.0,0.0,0.0,0.0,0.0,0.0,0.0,0.0,0.0,0.0,0.0,0.0,0.0,0.0,0.0,0.0,0.0,0.0,0.0,0.0,0.0,0.0,0.0,0.0,0.0,0.0,0.0,0.0,0.0,0.0,0.0,0.0,0.0,0.0,0.0,0.0,0.0,0.0,0.0,0.0,0.0,0.0,0.0,0.0,0.0,0.0,0.0,0.0,0.0,0.0,0.0,0.0,0.0,0.0,-5.5266,-5.7687,-5.9688,-6.0809,-6.0693,-6.0498,-6.0419,-5.8858,-5.674,-5.3959,0.0,0.0,0.0,0.0,0.0,0.0,0.0,0.0,0.0,0.0,0.0,0.0,0.0,0.0,0.0,0.0,0.0,0.0,0.0,0.0,0.0,0.0,0.0,0.0,0.0,0.0,0.0,0.0,0.0,0.0,0.0,0.0,0.0,0.0,0.0,0.0,0.0,0.0,0.0,0.0,0.0,0.0,0.0,0.0,0.0,0.0,0.0,0.0,0.0,0.0,0.0,0.0,0.0,0.0,0.0,0.0,0.0,0.0,0.0,0.0,0.0,0.0,0.0,0.0,0.0,0.0,0.0,0.0,0.0,0.0,0.0,0.0,0.0,0.0,0.0,0.0,0.0,0.0,0.0,0.0,0.0,0.0,0.0,0.0,0.0,0.0,0.0,0.0,0.0,0.0,0.0,0.0,0.0,0.0,0.0,0.0,0.0,0.0,0.0,0.0,0.0,0.0,-5.437,-5.8165,-6.0781,-6.0781,-6.0012,-5.9473,-5.9473,-5.6434,-5.3828,0.0,0.0,0.0,0.0,0.0,0.0,0.0,0.0,0.0,0.0,0.0,0.0,0.0,0.0,0.0,0.0,0.0,0.0,0.0,0.0,0.0,0.0,0.0,0.0,0.0,0.0,0.0,0.0,0.0,0.0,0.0,0.0,0.0,0.0,0.0,0.0,0.0,0.0,0.0,0.0,0.0,0.0,0.0,0.0,0.0,0.0,0.0,0.0,0.0,0.0,0.0,0.0,0.0,0.0,0.0,0.0,0.0,0.0,0.0,0.0,0.0,0.0,0.0,0.0,0.0,0.0,0.0,0.0,0.0,0.0,0.0,0.0,0.0,0.0,0.0,0.0,0.0,0.0,0.0,0.0,0.0,0.0,0.0,0.0,0.0,0.0,0.0,0.0,0.0,0.0,0.0,0.0,0.0,0.0,0.0,0.0,0.0,0.0,0.0,0.0,0.0,0.0,0.0,-5.3486,-5.678,-5.905,-5.905,-5.8819,-5.8665,-5.8665,-5.6626,-5.4522,-5.2589,0.0,0.0,0.0,0.0,0.0,0.0,0.0,0.0,0.0,0.0,0.0,0.0,0.0,0.0,0.0,0.0,0.0,0.0,0.0,0.0,0.0,0.0,0.0,0.0,0.0,0.0,0.0,0.0,0.0,0.0,0.0,0.0,0.0,0.0,0.0,0.0,0.0,0.0,0.0,0.0,0.0,0.0,0.0,0.0,0.0,0.0,0.0,0.0,0.0,0.0,0.0,0.0,0.0,0.0,0.0,0.0,0.0,0.0,0.0,0.0,0.0,0.0,0.0,0.0,0.0,0.0,0.0,0.0,0.0,0.0,0.0,0.0,0.0,0.0,0.0,0.0,0.0,0.0,0.0,0.0,0.0,0.0,0.0,0.0,0.0,0.0,0.0,0.0,0.0,0.0,0.0,0.0,0.0,0.0,0.0,0.0,0.0,0.0,0.0,0.0,0.0,0.0,-5.2592,-5.5972,-5.8319,-5.8319,-5.7973,-5.7627,-5.728,-5.5703,-5.3673,-5.1266,0.0,0.0,0.0,0.0,0.0,0.0,0.0,0.0,0.0,0.0,0.0,0.0,0.0,0.0,0.0,0.0,0.0,0.0,0.0,0.0,0.0,0.0,0.0,0.0,0.0,0.0,0.0,0.0,0.0,0.0,0.0,0.0,0.0,0.0,0.0,0.0,0.0,0.0,0.0,0.0,0.0,0.0,0.0,0.0,0.0,0.0,0.0,0.0,0.0,0.0,0.0,0.0,0.0,0.0,0.0,0.0,0.0,0.0,0.0,0.0,0.0,0.0,0.0,0.0,0.0,0.0,0.0,0.0,0.0,0.0,0.0,0.0,0.0,0.0,0.0,0.0,0.0,0.0,0.0,0.0,0.0,0.0,0.0,0.0,0.0,0.0,0.0,0.0,0.0,0.0,0.0,0.0,0.0,0.0,0.0,0.0,0.0,0.0,0.0,0.0,0.0,0.0,-5.167,-5.5318,-5.7857,-5.7934,-5.7165,-5.6329,-5.5549,-5.401,-5.1918,-4.9125,0.0,0.0,0.0,0.0,0.0,0.0,0.0,0.0,0.0,0.0,0.0,0.0,0.0,0.0,0.0,0.0,0.0,0.0,0.0,0.0,0.0,0.0,0.0,0.0,0.0,0.0,0.0,0.0,0.0,0.0,0.0,0.0,0.0,0.0,0.0,0.0,0.0,0.0,0.0,0.0,0.0,0.0,0.0,0.0,0.0,0.0,0.0,0.0,0.0,0.0,0.0,0.0,0.0,0.0,0.0,0.0,0.0,0.0,0.0,0.0,-5.7347,-5.6536,0.0,0.0,0.0,0.0,0.0,0.0,0.0,0.0,0.0,0.0,0.0,0.0,0.0,0.0,0.0,0.0,0.0,0.0,0.0,0.0,0.0,0.0,0.0,0.0,0.0,0.0,0.0,0.0,0.0,0.0,0.0,0.0,0.0,0.0,0.0,0.0,0.0,0.0,0.0,0.0,-5.0796,-5.2895,-5.4549,-5.5241,-5.4549,-5.3933,-5.3741,-5.2779,-5.1365,-4.9431,-4.8154,0.0,0.0,0.0,0.0,0.0,0.0,0.0,0.0,0.0,0.0,0.0,0.0,0.0,0.0,0.0,0.0,0.0,0.0,0.0,0.0,0.0,0.0,0.0,0.0,0.0,0.0,0.0,0.0,0.0,0.0,0.0,0.0,0.0,0.0,0.0,0.0,0.0,0.0,0.0,0.0,0.0,0.0,0.0,0.0,0.0,0.0,0.0,0.0,0.0,0.0,0.0,0.0,0.0,0.0,0.0,0.0,0.0,0.0,0.0,-5.8286,-5.772,0.0,0.0,0.0,0.0,0.0,0.0,0.0,0.0,0.0,0.0,0.0,0.0,0.0,0.0,0.0,0.0,0.0,0.0,0.0,0.0,0.0,0.0,0.0,0.0,0.0,0.0,0.0,0.0,0.0,0.0,0.0,0.0,0.0,0.0,0.0,0.0,0.0,0.0,0.0,0.0,-4.9971,-5.1895,-5.3356,-5.3818,-5.3472,-5.3049,-5.2615,-5.1818,-5.0587,-4.8894,-4.7618,0.0,0.0,0.0,0.0,0.0,0.0,0.0,0.0,0.0,0.0,0.0,0.0,0.0,0.0,0.0,0.0,0.0,0.0,0.0,0.0,0.0,0.0,0.0,0.0,0.0,0.0,0.0,0.0,0.0,0.0,0.0,0.0,0.0,0.0,0.0,0.0,0.0,0.0,0.0,0.0,0.0,0.0,0.0,0.0,0.0,0.0,0.0,0.0,0.0,0.0,0.0,0.0,0.0,-5.9339,-5.9476,-5.9648,-5.9648,-5.9648,-5.9609,-5.9346,-5.9031,-5.8686,-5.7858,0.0,0.0,0.0,0.0,0.0,0.0,0.0,0.0,0.0,0.0,0.0,0.0,0.0,0.0,0.0,0.0,0.0,0.0,0.0,0.0,0.0,0.0,-5.2538,-5.2538,-5.301,-5.2717,-5.0199,0.0,0.0,0.0,0.0,0.0,0.0,0.0,0.0,0.0,0.0,0.0,-4.9327,-5.1356,-5.2818,-5.2972,-5.2702,-5.2241,-5.1538,-5.0702,-4.9586,-4.8009,-4.697,-4.5871,0.0,0.0,0.0,0.0,0.0,0.0,0.0,0.0,0.0,0.0,0.0,0.0,0.0,0.0,0.0,0.0,0.0,0.0,0.0,0.0,0.0,0.0,0.0,0.0,0.0,0.0,0.0,0.0,0.0,0.0,0.0,0.0,-6.1521,-6.168,0.0,0.0,0.0,0.0,0.0,0.0,0.0,0.0,0.0,0.0,0.0,0.0,0.0,-5.9138,-5.9179,-5.9841,-6.0193,-6.0194,-6.0976,-6.1328,-6.1367,-6.1367,-6.1367,-6.1367,-6.1326,0.0,-5.8877,-5.8747,0.0,0.0,0.0,0.0,0.0,0.0,0.0,0.0,0.0,0.0,0.0,0.0,0.0,0.0,0.0,0.0,0.0,0.0,0.0,0.0,0.0,0.0,-5.5203,-5.5203,-5.4741,-5.4,-5.2892,-5.0863,-4.912,-4.8609,-4.799,-4.7134,0.0,0.0,0.0,0.0,0.0,0.0,-4.925,-5.0356,-5.1279,-5.2,-5.0779,-4.9856,-4.974,-4.8933,-4.8048,-4.7115,-4.6896,-4.6272,-4.5071,-4.4977,0.0,0.0,0.0,0.0,0.0,0.0,0.0,0.0,0.0,0.0,0.0,0.0,0.0,0.0,0.0,0.0,0.0,0.0,0.0,0.0,0.0,0.0,0.0,0.0,0.0,0.0,0.0,0.0,0.0,-6.0744,-6.1719,-6.1719,-6.1719,-6.1171,0.0,0.0,0.0,0.0,0.0,0.0,0.0,0.0,0.0,-5.9844,-5.9883,-6.0117,-6.0586,-6.0937,-6.1133,-6.1133,-6.1523,-6.1719,-6.1719,-6.1719,-6.1719,-6.1719,-6.1719,-6.1249,-6.0379,-5.9336,-5.8637,-5.8052,0.0,0.0,0.0,0.0,-5.4537,-5.4134,-5.4622,-5.4734,-5.4511,-5.3933,0.0,0.0,0.0,0.0,0.0,0.0,0.0,-5.3395,-5.428,-5.4741,-5.5126,-5.5588,-5.5088,-5.4395,-5.401,-5.2279,-5.048,-4.9409,-4.9273,-4.8705,-4.6768,-4.6429,0.0,0.0,0.0,-4.824,-4.9269,-5.0164,-5.0664,-5.051,-4.9856,-4.9202,-4.8702,-4.7894,-4.7278,-4.6923,-4.6432,-4.586,-4.5126,-4.5115,-4.4872,0.0,0.0,0.0,0.0,0.0,0.0,0.0,0.0,0.0,0.0,0.0,0.0,0.0,0.0,0.0,0.0,0.0,0.0,0.0,0.0,0.0,0.0,0.0,0.0,0.0,0.0,0.0,0.0,-6.1132,-6.1719,-6.1719,-6.1719,-6.1133,0.0,0.0,0.0,0.0,0.0,0.0,-5.9844,-5.9844,-6.0117,-6.0703,-6.0742,-6.1055,-6.168,-6.1719,-6.1719,-6.1719,-6.1719,-6.1719,-6.1719,-6.1719,-6.1719,-6.168,-6.1445,-6.1367,-6.125,-5.9633,-5.8994,-5.8716,-5.6283,-5.5303,-5.5277,-5.5311,-5.5224,-5.5162,-5.5768,-5.5857,-5.5566,-5.4531,-5.3895,-5.3164,-5.1279,0.0,0.0,0.0,0.0,-5.3741,-5.4587,-5.4664,-5.4664,-5.5241,-5.478,-5.4126,-5.3895,-5.2818,-5.1538,-5.0279,-5.0394,-5.001,-4.7894,-4.7355,0.0,-4.6923,-4.7432,-4.8048,-4.8663,-4.951,-4.9779,-4.9125,-4.8894,-4.8509,-4.7855,-4.7048,-4.6586,-4.6586,-4.597,-4.5475,-4.5232,-4.5222,-4.5055,-4.4739,0.0,0.0,0.0,0.0,0.0,0.0,0.0,0.0,0.0,0.0,0.0,0.0,0.0,0.0,0.0,0.0,0.0,0.0,0.0,0.0,0.0,0.0,0.0,0.0,0.0,0.0,0.0,0.0,0.0,-6.1719,-6.1719,0.0,0.0,0.0,0.0,-6.0273,-6.0312,-6.0703,-6.1523,-6.1562,-6.1601,-6.164,-6.164,-6.164,-6.1719,-6.1719,-6.1719,-6.1719,-6.1719,-6.1719,-6.1719,-6.1719,-6.1719,-6.164,-6.082,-6.0469,-6.039,-5.9531,-5.9179,-5.9023,-5.7226,-5.6432,-5.6355,-5.6479,-5.636,-5.6142,-5.6181,-5.6071,-5.5982,-5.6606,-5.5742,-5.4395,-5.428,-5.3126,0.0,0.0,-5.4395,-5.4626,-5.5434,-5.5049,-5.4511,-5.4549,-5.3895,-5.3049,-5.2192,-5.1962,-5.1885,-5.1769,-5.1202,-5.0404,-4.9433,0.0,-4.7778,-4.7,-4.6923,-4.6962,-4.7,-4.774,-4.8202,-4.8163,-4.7471,-4.7,-4.6962,-4.6163,-4.5671,-4.5671,-4.5633,-4.5586,-4.5577,-4.5577,-4.5419,-4.5066,-4.4276,0.0,0.0,0.0,0.0,0.0,0.0,0.0,0.0,0.0,0.0,0.0,0.0,0.0,0.0,0.0,0.0,0.0,0.0,0.0,0.0,0.0,0.0,0.0,0.0,0.0,0.0,0.0,0.0,-6.1679,-6.1632,0.0,-6.0468,-6.0898,-6.1015,-6.043,-6.0937,-6.1367,-6.168,-6.1719,-6.1719,-6.1719,-6.1719,-6.1719,-6.1719,-6.1719,-6.1719,-6.1719,-6.1719,-6.1719,-6.1719,-6.1719,-6.1406,-6.0859,-6.0547,-6.0117,-5.957,-5.8711,-5.8359,-5.8242,-5.707,-5.6561,-5.6518,-5.6562,-5.6466,-5.6336,-5.6222,-5.6084,-5.5921,-5.6105,-5.5011,-5.3664,-5.3664,-5.2856,-5.2038,-5.2654,-5.3241,-5.3741,-5.401,-5.3895,-5.3664,-5.3664,-5.301,-5.2269,-5.1962,-5.151,-5.1125,-5.1125,-5.0894,-5.025,-4.8817,-4.8317,-4.7817,-4.7,-4.6885,-4.7077,-4.7625,-4.7932,-4.7894,-4.7394,-4.7077,-4.6663,-4.6124,-4.5787,-4.5594,-4.5594,-4.5594,-4.5594,-4.5594,-4.5594,-4.555,-4.5419,-4.4401,-4.3427,0.0,0.0,0.0,0.0,0.0,0.0,0.0,0.0,0.0,0.0,0.0,0.0,0.0,0.0,0.0,0.0,0.0,0.0,0.0,0.0,0.0,0.0,0.0,0.0,0.0,-6.1132,-6.1582,-6.1632,-6.1585,-6.1391,-6.0898,-6.1367,-6.1445,-6.0898,-6.1367,-6.1719,-6.1719,-6.1719,-6.1719,-6.1719,-6.1719,-6.1719,-6.1719,-6.1719,-6.1719,-6.1719,-6.1719,-6.1719,-6.168,-6.1406,-6.0937,-6.0351,-5.9805,-5.9258,-5.8672,-5.7812,-5.7461,-5.7383,-5.6793,-5.6517,-5.6516,-5.6465,-5.6397,-5.6258,-5.5825,-5.5567,-5.5353,-5.4996,-5.4126,-5.3203,-5.3203,-5.2818,-5.2346,-5.2346,-5.2731,-5.3203,-5.3203,-5.2972,-5.2769,-5.2769,-5.2125,-5.151,-5.151,-5.1087,-5.0596,-5.0327,-5.025,-4.9894,-4.874,-4.8086,-4.7509,-4.6962,-4.6663,-4.6663,-4.7201,-4.7278,-4.7048,-4.6509,-4.6471,-4.624,-4.5633,-4.5594,-4.5594,-4.5594,-4.5594,-4.5594,-4.5594,-4.5594,-4.5594,-4.5594,-4.4566,-4.3713,-4.3011,0.0,0.0,0.0,0.0,0.0,0.0,0.0,0.0,0.0,0.0,0.0,0.0,0.0,0.0,0.0,0.0,0.0,0.0,0.0,0.0,0.0,0.0,0.0,-6.1172,-6.1523,-6.1635,-6.1515,-6.163,-6.1719,-6.1719,-6.1719,-6.1719,-6.1719,-6.1719,-6.1719,-6.1719,-6.1719,-6.1719,-6.1719,-6.1719,-6.1719,-6.1719,-6.1719,-6.1719,-6.1719,-6.1719,-6.168,-6.164,-6.0781,-6.0351,-6.0234,-5.8594,-5.789,-5.7773,-5.6953,-5.6601,-5.6601,-5.6454,-5.6389,-5.638,-5.6242,-5.6191,-5.6014,-5.4999,-5.458,-5.4318,-5.3472,-5.3164,-5.3164,-5.3164,-5.3126,-5.3126,-5.3126,-5.3126,-5.3126,-5.3126,-5.25,-5.1846,-5.1846,-5.1279,-5.0712,-5.0673,-5.0673,-5.0404,-4.951,-4.9356,-4.9317,-4.9317,-4.7971,-4.6885,-4.6846,-4.6124,0.0,-4.5594,-4.5594,-4.5594,-4.5594,-4.5594,-4.5594,-4.5594,-4.5594,-4.5594,-4.5594,-4.5594,-4.5594,-4.5594,-4.5594,-4.5594,-4.5594,-4.4739,-4.4181,-4.392,0.0,0.0,0.0,0.0,0.0,0.0,0.0,0.0,0.0,0.0,0.0,0.0,0.0,0.0,0.0,0.0,0.0,0.0,0.0,0.0,0.0,-5.9759,-6.0349,-6.1301,-6.1407,-6.1481,-6.1632,-6.1584,-6.1585,-6.1679,-6.1719,-6.1719,-6.1719,-6.1719,-6.1719,-6.1719,-6.1719,-6.1719,-6.1719,-6.1719,-6.1719,-6.1719,-6.1719,-6.1719,-6.1719,-6.1719,-6.1367,-6.0742,-6.0508,-5.9726,-5.8555,-5.8086,-5.7539,-5.6953,-5.6719,-5.6601,-5.6601,-5.6454,-5.6389,-5.638,-5.6242,-5.574,-5.4961,-5.4064,-5.3653,-5.351,-5.328,-5.2779,-5.2269,-5.2269,-5.1856,-5.1395,-5.1395,-5.1395,-5.1395,-5.1395,-5.1202,-5.101,-5.101,-5.0856,-5.0519,-4.9894,-4.974,-4.951,-4.8625,-4.8009,-4.7586,-4.7586,-4.7201,-4.6701,-4.6047,-4.5748,-4.5594,-4.5594,-4.5594,-4.5594,-4.5594,-4.5594,-4.5594,-4.5594,-4.5594,-4.5594,-4.5594,-4.5594,-4.5594,-4.5594,-4.5594,-4.5594,-4.5594,-4.4739,-4.4252,0.0,0.0,0.0,0.0,0.0,0.0,0.0,0.0,0.0,0.0,0.0,0.0,0.0,0.0,0.0,0.0,0.0,0.0,0.0,0.0,0.0,0.0,-6.0221,-6.0759,-6.1335,-6.1387,-6.1424,-6.1585,-6.1585,-6.1591,-6.1679,-6.1719,-6.1719,-6.1719,-6.1719,-6.1719,-6.1719,-6.1719,-6.1719,-6.1719,-6.1719,-6.1719,-6.1719,-6.1719,-6.1719,-6.1719,-6.1328,-6.0898,-6.039,-5.9687,-5.8828,-5.789,-5.75,-5.707,-5.6601,-5.6601,-5.6561,-5.651,0.0,0.0,0.0,0.0,-5.4901,-5.3932,-5.3082,-5.2713,-5.2587,-5.2279,-5.1818,-5.1395,-5.1395,-5.1087,-5.0712,-5.0712,-5.0712,-5.0712,-5.0712,-5.0712,-5.0596,-5.025,-5.0173,-4.9933,-4.9048,-4.8856,-4.8625,-4.7778,-4.7231,0.0,-4.6432,-4.6355,-4.6163,-4.5671,-4.5594,-4.5594,-4.5594,-4.5594,-4.5594,-4.5594,-4.5594,-4.5594,-4.5594,-4.5594,0.0,0.0,0.0,-4.5594,-4.5594,-4.5594,0.0,0.0,0.0,0.0,0.0,0.0,0.0,0.0,-4.3537,-4.3412,0.0,0.0,0.0,0.0,0.0,0.0,0.0,0.0,0.0,0.0,0.0,0.0,0.0,0.0,0.0,0.0,-6.0677,-6.1283,-6.1283,-6.1392,-6.1495,-6.1515,-6.1632,-6.1719,-6.1719,-6.1719,-6.1719,-6.1719,-6.1719,-6.1719,-6.1719,-6.1719,0.0,0.0,0.0,-6.1719,-6.1719,-6.1719,-6.164,-6.1523,-6.0781,-6.0312,-6.0078,-5.8594,-5.7851,-5.7695,-5.6953,-5.6601,-5.6601,-5.6601,-5.6434,-5.6215,-5.6067,-5.6003,-5.5877,-5.465,-5.3703,-5.2933,-5.2038,0.0,0.0,-5.0933,-5.0712,-5.0712,-5.0712,-5.0712,-5.0712,-5.0712,-5.0654,-5.0596,-5.0596,-5.0499,-5.0239,-4.9441,-4.9278,-4.9037,-4.8163,-4.7971,-4.774,-4.6932,-4.674,-4.6509,-4.5748,-4.5594,-4.5594,-4.5594,-4.5594,-4.5594,-4.5594,-4.5594,-4.5594,-4.5594,-4.5594,0.0,-4.5594,-4.5594,-4.5594,-4.5594,-4.5594,-4.5594,-4.5594,-4.5594,-4.5594,-4.5594,-4.5594,-4.5594,-4.5594,-4.5594,-4.5594,-4.5556,-4.4085,-4.3778,0.0,0.0,0.0,0.0,0.0,0.0,0.0,0.0,0.0,0.0,0.0,0.0,0.0,0.0,0.0,-6.0547,-6.1006,-6.1283,-6.1283,-6.1312,-6.1404,-6.1634,-6.1679,-6.1719,-6.1719,-6.1719,-6.1719,-6.1719,-6.1719,-6.1719,-6.1719,-6.1719,-6.1719,-6.1719,-6.1719,-6.1719,-6.1719,-6.1719,-6.1367,-6.0664,-6.0469,0.0,-5.8359,-5.8047,-5.7539,-5.6836,-5.668,-5.6601,-5.6601,-5.6601,-5.6028,-5.5171,-5.5022,-5.4923,-5.4622,-5.3012,-5.2308,-5.2038,-5.1202,-5.0933,-5.0894,-5.075,-5.0712,-5.0712,-5.0712,-5.0712,0.0,-5.0712,-5.0263,-4.9807,-4.9807,-4.9374,-4.8857,-4.8568,-4.8493,-4.8261,-4.7314,-4.7115,-4.6894,-4.6009,-4.5864,-4.5787,-4.5633,-4.5594,-4.5594,-4.5594,-4.5594,-4.5594,-4.5594,-4.5594,-4.5594,-4.5594,-4.5594,-4.5594,-4.5594,-4.5594,-4.5594,-4.5594,-4.5594,-4.5594,-4.5594,-4.5594,-4.5594,-4.5594,-4.5594,-4.5594,-4.5594,-4.5594,-4.5594,-4.5594,-4.5287,-4.521,0.0,0.0,0.0,0.0,0.0,0.0,0.0,0.0,0.0,0.0,0.0,-6.0211,-6.0246,0.0,-6.1227,-6.1052,-6.1176,-6.1312,-6.1383,-6.1334,-6.1392,-6.1678,-6.1719,-6.1719,-6.1719,-6.1719,-6.1719,-6.1719,-6.1719,-6.1719,-6.1719,-6.1719,-6.1719,-6.1719,-6.1719,-6.1719,-6.1719,-6.1289,-6.082,-6.039,-5.9531,-5.8711,-5.789,-5.7461,-5.6992,-5.6601,-5.6601,-5.6367,-5.5898,-5.5326,-5.4718,-5.4084,-5.3536,-5.3244,-5.3087,-5.2231,-5.1664,-5.1241,-5.0827,-5.0712,-5.0712,-5.0712,-5.0712,-5.0712,-5.0712,-5.0758,-5.0692,-5.0259,-4.9938,-4.9607,-4.9174,-4.876,-4.8354,-4.7779,-4.7661,-4.7378,-4.6446,-4.624,-4.6124,-4.5671,-4.5594,-4.5594,-4.5594,-4.5594,-4.5594,-4.5594,-4.5594,-4.5594,-4.5594,-4.5594,-4.5594,-4.5594,-4.5594,-4.5594,-4.5594,-4.5594,-4.5594,-4.5594,-4.5594,-4.5594,-4.5594,-4.5594,-4.5594,-4.5594,-4.5594,-4.5594,-4.5594,-4.5594,-4.5594,-4.5594,-4.5594,-4.5594,0.0,0.0,0.0,0.0,0.0,0.0,0.0,-5.9326,-5.9742,-5.9742,-6.1012,-6.1901,-6.1322,-6.1919,-6.2299,-6.1591,-6.1381,-6.1339,-6.1491,-6.1373,-6.1392,-6.1678,-6.1719,-6.1719,-6.1719,-6.1719,-6.1719,-6.1719,-6.1719,-6.1719,-6.1719,-6.1719,-6.1719,-6.1719,-6.1523,-6.1445,-6.1445,-6.0586,-6.0078,-5.9883,-5.8555,-5.7812,-5.7617,-5.6914,-5.6601,-5.6601,-5.6405,-5.5819,-5.4918,-5.3771,-5.3243,-5.3058,-5.2039,-5.1654,-5.1654,-5.1654,-5.1279,-5.0712,-5.0712,-5.0712,-5.0712,-5.0712,-5.0712,-5.0721,-5.073,-5.0717,-5.0502,-4.9833,-4.9493,-4.9171,-4.8466,-4.8167,-4.7843,-4.6983,-4.6784,-4.6577,-4.5761,-4.5594,-4.5594,-4.5594,-4.5594,-4.5594,-4.5594,-4.5594,-4.5594,-4.5594,-4.5594,-4.5594,-4.5594,-4.5594,-4.5594,-4.5594,-4.5594,-4.5594,-4.5594,-4.5594,-4.5594,-4.5594,-4.5594,-4.5594,-4.5594,-4.5594,-4.5594,-4.5594,-4.5594,-4.5594,-4.5594,-4.5594,-4.5594,-4.5594,-4.5594,-4.5594,-6.055,-6.0671,-6.0845,-6.0845,-6.0845,-6.0807,0.0,-6.0661,-6.0666,-6.0666,-6.1435,-6.2074,-6.1982,-6.2241,-6.2424,-6.2236,-6.169,-6.1339,-6.1491,-6.1373,-6.1392,-6.1678,-6.1719,-6.1719,-6.1719,-6.1719,-6.1719,-6.1719,-6.1719,-6.1719,-6.1719,-6.1719,-6.1719,-6.1719,-6.0937,-6.0547,-6.0547,-5.9726,-5.8945,-5.8164,-5.8008,-5.75,-5.6758,-5.664,-5.6601,-5.6562,-5.5646,-5.4769,-5.3862,-5.2747,-5.2242,-5.2167,-5.12,-5.0827,-5.0827,-5.0827,-5.0789,-5.0712,-5.0712,-5.0712,-5.0712,-5.0712,-5.0712,-5.0712,-5.0844,-5.0356,-4.9741,-4.9776,-4.8772,-4.7633,-4.7555,-4.7047,-4.6471,-4.6103,-4.6012,-4.5947,-4.5648,-4.5594,-4.5594,-4.5594,-4.5594,-4.5594,-4.5594,-4.5594,-4.5594,-4.5594,-4.5594,-4.5594,-4.5594,-4.5594,-4.5594,-4.5594,-4.5594,-4.5594,-4.5594,-4.5594,-4.5594,-4.5594,-4.5594,-4.5594,-4.5594,-4.5594,-4.5594,-4.5594,-4.5594,-4.5594,-4.5594,-4.5594,-4.5594,-4.5594,-4.5594,-4.5594,-6.0666,-6.0884,-6.0997,-6.0997,-6.0997,-6.0997,-6.0997,-6.0923,-6.0734,-6.0456,-6.1437,-6.224,-6.177,-6.2699,-6.3316,-6.2551,-6.2178,-6.1889,-6.153,-6.1373,-6.1364,-6.1573,-6.1637,-6.1719,-6.1719,-6.1719,-6.1719,-6.1719,-6.1719,-6.1719,-6.1719,-6.1719,-6.1484,-6.0976,-6.0586,-6.0195,-5.9726,-5.8867,-5.8242,-5.789,-5.7383,-5.6953,-5.6601,-5.6601,-5.6328,-5.5742,-5.4236,-5.3328,-5.284,-5.182,-5.137,-5.1245,-5.0827,-5.0712,-5.0712,-5.0712,-5.0712,-5.0712,-5.0712,-5.0712,-5.0712,-5.0712,-5.0712,-5.0635,-5.0279,-4.9944,-4.9543,-4.8659,-4.7962,-4.7413,-4.6905,-4.6521,-4.6245,-4.5971,-4.5879,-4.5852,-4.5648,-4.5594,-4.5594,-4.5594,-4.5594,-4.5594,-4.5594,-4.5594,-4.5594,-4.5594,-4.5594,-4.5594,-4.5594,-4.5594,-4.5594,-4.5594,-4.5594,-4.5594,-4.5594,-4.5594,-4.5594,-4.5594,-4.5594,-4.5594,-4.5594,-4.5594,-4.5594,-4.5594,-4.5594,-4.5594,-4.5594,-4.5594,-4.5594,-4.5594,-4.5594,-4.5594,-6.0652,-6.0954,-6.1089,-6.1089,-6.1089,-6.1073,-6.1014,-6.0783,-6.0508,-6.0161,-6.1157,-6.1948,-6.1476,-6.2757,-6.3612,-6.264,-6.2461,-6.2206,-6.1573,-6.1373,-6.1339,-6.1495,-6.1631,-6.1719,-6.1719,-6.1719,-6.1719,-6.1719,-6.1719,-6.1719,-6.1719,-6.1719,-6.1289,-6.043,-6.0195,-5.9687,-5.8867,-5.7969,-5.7539,-5.7539,-5.6914,-5.6601,-5.6601,-5.6367,-5.5781,-5.4843,-5.3164,-5.2267,-5.1901,-5.115,-5.0791,-5.0712,-5.0749,-5.073,-5.0721,-5.0749,-5.073,-5.0712,-5.0712,-5.0712,-5.0712,-5.0712,-5.0558,-5.0302,-4.9804,-4.9393,-4.8896,-4.7769,-4.7336,-4.7109,-4.6445,-4.6289,-4.6245,-4.5971,-4.5879,-4.5852,-4.5648,-4.5594,-4.5594,-4.5594,-4.5594,-4.5594,-4.5594,-4.5594,-4.5594,-4.5594,-4.5594,-4.5594,-4.5594,-4.5594,-4.5594,-4.5594,-4.5594,-4.5594,-4.5594,-4.5594,-4.5594,-4.5594,-4.5594,-4.5594,-4.5594,-4.5594,-4.5594,-4.5594,-4.5594,-4.5594,-4.5594,-4.5594,-4.5594,-4.5594,-4.5594,-4.5594,-6.0963,-6.1143,-6.1277,-6.1277,-6.1277,-6.124,-6.1048,-6.0538,-6.0118,-6.0103,-6.0443,-6.0901,-6.1317,-6.2259,-6.2871,-6.2549,-6.2374,-6.2131,-6.1582,-6.1373,-6.1339,-6.1495,-6.1631,-6.1719,-6.1719,-6.1719,-6.1719,-6.1719,-6.1719,-6.1719,-6.1719,-6.1719,-6.1289,-6.043,-5.9648,-5.8828,-5.7969,-5.707,-5.664,-5.664,-5.6601,-5.6601,-5.6562,-5.5703,-5.4844,-5.3984,-5.2799,-5.1877,-5.1108,-5.0833,-5.0712,-5.0693,-5.0844,-5.0795,-5.0741,-5.0844,-5.0795,-5.0712,-5.0712,-5.0712,-5.0712,-5.0712,-5.0233,-4.9657,-4.9748,-4.8702,-4.7498,-4.7576,-4.6992,-4.6328,-4.6328,-4.6289,-4.6245,-4.5971,-4.5879,-4.5852,-4.5648,-4.5594,-4.5594,-4.5594,-4.5594,-4.5594,-4.5594,-4.5594,-4.5594,-4.5594,-4.5594,-4.5594,-4.5594,-4.5594,-4.5594,-4.5594,-4.5594,-4.5594,-4.5594,-4.5594,-4.5594,-4.5594,-4.5594,-4.5594,-4.5594,-4.5594,-4.5594,-4.5594,-4.5594,-4.5594,-4.5594,-4.5594,-4.5594,-4.5594,-4.5594,-4.5594,-6.0979,-6.1158,-6.1283,-6.1283,-6.12,-6.1089,-6.1014,-6.0538,-5.9991,-5.9712,-5.9926,-6.0341,-6.0846,-6.1826,-6.2551,-6.2503,-6.2571,-6.2365,-6.1621,-6.1478,-6.1471,-6.1501,-6.1631,-6.1719,-6.1719,-6.1719,-6.1719,-6.1719,-6.1719,-6.1719,-6.1719,-6.1719,-6.1055,-5.9648,-5.9336,-5.8515,-5.7031,-5.6758,-5.6601,-5.6601,-5.6601,-5.6289,-5.5703,-5.4844,-5.3945,-5.3086,-5.1973,-5.1366,-5.1069,-5.0825,-5.0712,-5.0721,-5.0758,-5.074,-5.0721,-5.0767,-5.074,-5.0712,-5.0712,-5.0327,-4.9846,-4.995,-4.9421,-4.8677,-4.8335,-4.7819,-4.7305,-4.6873,-4.6523,-4.6289,-4.6289,-4.6289,-4.6245,-4.5971,-4.5879,-4.5852,-4.5648,-4.5594,-4.5594,-4.5594,-4.5594,-4.5594,-4.5594,-4.5594,-4.5594,-4.5594,-4.5594,-4.5594,-4.5594,-4.5594,-4.5594,-4.5594,-4.5594,-4.5594,-4.5594,-4.5594,-4.5594,-4.5594,-4.5594,-4.5594,-4.5594,-4.5594,-4.5594,-4.5594,-4.5594,-4.5594,-4.5594,-4.5594,-4.5594,-4.5594,-4.5594,-4.5594,-6.0979,-6.1105,-6.12,-6.12,-6.1105,-6.0952,-6.0727,-6.0238,-5.9728,-5.923,-5.9204,-5.9413,-6.013,-6.1126,-6.1928,-6.203,-6.2404,-6.2393,-6.1624,-6.1474,-6.1467,-6.1501,-6.1579,-6.1636,-6.1719,-6.1719,-6.1719,-6.1719,-6.1719,-6.1719,-6.1719,-6.1719,-6.0937,-5.9258,-5.9219,-5.8359,-5.6601,-5.6601,-5.6601,-5.6601,-5.6289,-5.5859,-5.5273,-5.4062,-5.3202,-5.257,-5.1526,-5.1063,-5.0996,-5.0799,-5.0712,-5.0721,-5.0767,-5.0749,-5.0721,-5.0729,-5.0749,-5.0712,-5.0712,-5.0125,-4.9432,-4.9568,-4.8825,-4.7839,-4.7489,-4.7229,-4.6898,-4.6445,-4.6289,-4.6289,-4.6289,-4.6289,-4.6247,-4.6011,-4.5948,-4.5862,-4.5703,-4.5607,-4.5594,-4.5594,-4.5594,-4.5594,-4.5594,-4.5594,-4.5594,-4.5594,-4.5594,-4.5594,-4.5594,-4.5594,-4.5594,-4.5594,-4.5594,-4.5594,-4.5594,-4.5594,-4.5594,-4.5594,-4.5594,-4.5594,-4.5594,-4.5594,-4.5594,-4.5594,-4.5594,-4.5594,-4.5594,-4.5594,-4.5594,-4.5594,-4.5594,-4.5594,-6.0982,-6.0997,-6.0997,-6.0997,-6.0988,-6.0819,-6.0234,-5.976,-5.9266,-5.8796,-5.8348,-5.8304,-5.9212,-6.0172,-6.0955,-6.1317,-6.2017,-6.2304,-6.1676,-6.147,-6.1437,-6.1501,-6.1509,-6.1573,-6.1679,-6.1719,-6.1719,-6.1719,-6.1719,-6.1719,-6.1719,-6.1719,-6.0937,-5.9258,-5.9219,-5.8359,-5.6601,-5.6601,-5.6601,-5.6601,-5.5703,-5.5273,-5.5195,-5.3476,-5.2611,-5.2372,-5.1499,-5.1008,-5.0874,-5.0776,-5.0712,-5.0712,-5.0844,-5.0841,-5.0721,-5.0844,-5.0825,-5.0712,-5.0712,-5.0096,-4.9373,-4.9506,-4.8443,-4.7189,-4.7318,-4.6861,-4.6289,-4.6289,-4.6289,-4.6289,-4.6289,-4.6289,-4.6288,-4.6142,-4.5995,-4.5886,-4.5815,-4.5712,-4.5594,-4.5594,-4.5594,-4.5594,-4.5594,-4.5594,-4.5594,-4.5594,-4.5594,-4.5594,-4.5594,-4.5594,-4.5594,-4.5594,-4.5594,-4.5594,-4.5594,-4.5594,-4.5594,-4.5594,-4.5594,-4.5594,-4.5594,-4.5594,-4.5594,-4.5594,-4.5594,-4.5594,-4.5594,-4.5594,-4.5594,-4.5594,-4.5594,-4.5594,-6.0988,-6.0997,-6.0997,-6.0997,-6.0935,-6.0727,-6.0217,-5.976,-5.9266,-5.8796,-5.8348,-5.8304,-5.9212,-5.9678,-6.0431,-6.203,-6.2516,-6.2718,-6.2616,-6.2608,-6.2332,-6.1714,-6.1637,-6.1677,-6.1719,-6.1719,-6.1719,-6.1719,-6.1719,-6.1719,-6.1719,-6.1719,-6.0937,-5.9258,-5.9219,-5.8359,-5.6601,-5.6601,-5.6601,-5.6601,-5.5703,-5.4961,-5.4297,-5.3203,-5.2259,-5.1511,-5.1226,-5.1008,-5.0874,-5.0776,-5.0776,-5.0844,-5.0773,-5.0799,-5.0835,-5.0764,-5.0721,-5.0712,-5.0712,-4.9774,-4.8585,-4.8753,-4.7691,-4.6426,-4.6552,-4.6444,-4.6289,-4.6289,-4.6289,-4.6289,-4.6289,-4.6289,-4.6288,-4.6142,-4.5995,-4.5886,-4.5815,-4.5712,-4.5594,-4.5594,-4.5594,-4.5594,-4.5594,-4.5594,-4.5594,-4.5594,-4.5594,-4.5594,-4.5594,-4.5594,-4.5594,-4.5594,-4.5594,-4.5594,-4.5594,-4.5594,-4.5594,-4.5594,-4.5594,-4.5594,-4.5594,-4.5594,-4.5594,-4.5594,-4.5594,-4.5594,-4.5594,-4.5594,-4.5594,-4.5594,-4.5594,-4.5594,-6.0915,-6.0915,-6.0915,-6.0915,-6.07,-6.0365,-5.9901,-5.9424,-5.8971,-5.8503,-5.8332,-5.8508,-5.9248,-5.968,-6.0369,-6.1803,-6.2457,-6.2701,-6.246,-6.2691,-6.2611,-6.1797,-6.1637,-6.1634,-6.168,-6.1719,-6.1719,-6.1719,-6.1719,-6.1719,-6.1719,-6.1328,-6.0547,-5.9258,-5.8828,-5.7969,-5.6601,-5.6601,-5.6406,-5.6015,-5.5156,-5.4258,-5.3398,-5.2456,-5.1726,-5.1144,-5.1063,-5.0985,-5.0882,-5.0803,-5.0875,-5.0953,-5.0835,-5.0827,-5.0867,-5.0758,-5.0712,-5.0635,-5.025,-4.9365,-4.8398,-4.8481,-4.742,-4.6138,-4.6248,-4.6289,-4.6289,-4.6289,-4.6289,-4.6289,-4.6289,-4.6289,-4.6289,-4.6201,-4.602,-4.59,-4.5864,-4.5733,-4.5594,-4.5594,-4.5594,-4.5594,-4.5594,-4.5594,-4.5594,-4.5594,-4.5594,-4.5594,-4.5594,-4.5594,-4.5594,-4.5594,-4.5594,-4.5594,-4.5594,-4.5594,-4.5594,-4.5594,-4.5594,-4.5594,-4.5594,-4.5594,-4.5594,-4.5594,-4.5594,-4.5594,-4.5594,-4.5594,-4.5594,-4.5594,-4.5594,-4.5594,-6.0781,-6.0781,-6.0781,-6.0781,-6.0456,-5.9962,-5.9492,-5.9047,-5.857,-5.8097,-5.8354,-5.8835,-5.9302,-5.9889,-6.0541,-6.1317,-6.2148,-6.2521,-6.191,-6.2413,-6.2521,-6.1797,-6.1585,-6.1577,-6.1679,-6.1719,-6.1719,-6.1719,-6.1719,-6.1719,-6.1719,-6.0859,-5.996,-5.9022,-5.8163,-5.7343,-5.6601,-5.6484,-5.6055,-5.5273,-5.4297,-5.3437,-5.2656,-5.1657,-5.1161,-5.1084,-5.0992,-5.0911,-5.0889,-5.0889,-5.0998,-5.1074,-5.0932,-5.0867,-5.0867,-5.0758,-5.0635,-5.0404,-4.9663,-4.8955,-4.8351,-4.8351,-4.7313,-4.6147,-4.6249,-4.6289,-4.6289,-4.6289,-4.6289,-4.6289,-4.6289,-4.6289,-4.6289,-4.6289,-4.6082,-4.5914,-4.59,-4.575,-4.5594,-4.5594,-4.5594,-4.5594,-4.5594,-4.5594,-4.5594,-4.5594,-4.5594,-4.5594,-4.5594,-4.5594,-4.5594,-4.5594,-4.5594,-4.5594,-4.5594,-4.5594,-4.5594,-4.5594,-4.5594,-4.5594,-4.5594,-4.5594,-4.5594,-4.5594,-4.5594,-4.5594,-4.5594,-4.5594,-4.5594,-4.5594,-4.5594,-4.5594,-6.0781,-6.0781,-6.0781,-6.0781,-6.0456,-5.9962,-5.9492,-5.9047,-5.857,-5.8097,-5.8354,-5.8835,-5.9302,-5.9817,-6.0572,-6.1888,-6.2269,-6.2452,-6.2599,-6.2703,-6.2525,-6.1797,-6.1679,-6.1679,-6.1719,-6.1719,-6.1719,-6.1719,-6.1719,-6.1719,-6.1719,-6.0767,-5.9534,-5.8009,-5.7111,-5.6623,-5.6601,-5.5898,-5.5469,-5.5273,-5.3672,-5.2851,-5.2656,-5.1657,-5.1161,-5.1089,-5.1069,-5.0984,-5.0889,-5.0889,-5.0998,-5.1069,-5.0819,-5.0816,-5.0867,-5.0758,-5.025,-4.9615,-4.9558,-4.8638,-4.7427,-4.7427,-4.6889,-4.6288,-4.6289,-4.6289,-4.6289,-4.6289,-4.6289,-4.6289,-4.6289,-4.6289,-4.6288,-4.615,-4.6005,-4.5891,-4.5813,-4.5696,-4.5594,-4.5594,-4.5594,-4.5594,-4.5594,-4.5594,-4.5594,-4.5594,-4.5594,-4.5594,-4.5594,-4.5594,-4.5594,-4.5594,-4.5594,-4.5594,-4.5594,-4.5594,-4.5594,-4.5594,-4.5594,-4.5594,-4.5594,-4.5594,-4.5594,-4.5594,-4.5594,-4.5594,-4.5594,-4.5594,-4.5594,-4.5594,-4.5594,-4.5594,-6.0781,-6.0781,-6.0781,-6.0781,-6.0245,-5.9696,-5.9441,-5.8855,-5.8282,-5.8065,-5.857,-5.9121,-5.9354,-5.9977,-6.0722,-6.1494,-6.1983,-6.2252,-6.2145,-6.2518,-6.2544,-6.1796,-6.1719,-6.1719,-6.1719,-6.1719,-6.1719,-6.1719,-6.1289,-6.0975,-6.0924,-5.9541,-5.8223,-5.7052,-5.6626,-5.6458,-5.6601,-5.5742,-5.5078,-5.4609,-5.332,-5.2461,-5.1992,-5.143,-5.1148,-5.1084,-5.0959,-5.0939,-5.0978,-5.0932,-5.1008,-5.1125,-5.0903,-5.0844,-5.0867,-5.0758,-5.0479,-5.0061,-4.9211,-4.8522,-4.7827,-4.693,-4.6493,-4.6289,-4.6289,-4.6289,-4.6289,-4.6289,-4.6289,-4.6289,-4.6289,-4.6289,-4.6288,-4.6142,-4.5955,-4.5813,-4.5718,-4.5632,-4.5594,-4.5594,-4.5594,-4.5594,-4.5594,-4.5594,-4.5594,-4.5594,-4.5594,-4.5594,-4.5594,-4.5594,-4.5594,-4.5594,-4.5594,-4.5594,-4.5594,-4.5594,-4.5594,-4.5594,-4.5594,-4.5594,-4.5594,-4.5594,-4.5594,-4.5594,-4.5594,-4.5594,-4.5594,-4.5594,-4.5594,-4.5594,-4.5594,-4.5594,-6.0781,-6.0781,-6.0769,-6.0659,-6.0006,-5.9372,-5.9266,-5.8591,-5.8042,-5.8142,-5.8815,-5.9424,-5.9526,-6.0217,-6.0823,-6.0925,-6.1514,-6.1857,-6.1451,-6.1989,-6.2229,-6.1713,-6.1677,-6.1678,-6.1719,-6.1719,-6.1719,-6.1719,-6.066,-5.9899,-5.9615,-5.8179,-5.7035,-5.6361,-5.6365,-5.6448,-5.6601,-5.5547,-5.4765,-5.4258,-5.3008,-5.2148,-5.1679,-5.1271,-5.1089,-5.1079,-5.0851,-5.0875,-5.1036,-5.0952,-5.0975,-5.1136,-5.092,-5.0867,-5.0844,-5.074,-5.0666,-5.0431,-4.9103,-4.8516,-4.8196,-4.6845,-4.6359,-4.6289,-4.6289,-4.6289,-4.6289,-4.6289,-4.6289,-4.6289,-4.6289,-4.6289,-4.6203,-4.6067,-4.5896,-4.5718,-4.5629,-4.5594,-4.5594,-4.5594,-4.5594,-4.5594,-4.5594,-4.5594,-4.5594,-4.5594,-4.5594,-4.5594,-4.5594,-4.5594,-4.5594,-4.5594,-4.5594,-4.5594,-4.5594,-4.5594,-4.5594,-4.5594,-4.5594,-4.5594,-4.5594,-4.5594,-4.5594,-4.5594,-4.5594,-4.5594,-4.5594,-4.5594,-4.5594,-4.5594,-4.5594,-4.5594,-6.0781,-6.0781,-6.071,-6.0283,-5.9792,-5.9284,-5.8855,-5.8354,-5.8119,-5.8528,-5.9028,-5.9526,-5.9946,-6.0469,-6.0793,-6.0827,-6.0904,-6.0938,-6.1031,-6.1103,-6.1246,-6.1495,-6.1512,-6.1575,-6.1679,-6.1719,-6.1719,-6.1719,-5.9937,-5.8496,-5.7702,-5.7391,-5.6904,-5.6246,-5.6212,-5.6354,-5.6601,-5.4961,-5.4492,-5.5156,-5.2695,-5.1875,-5.2539,-5.1548,-5.1089,-5.1084,-5.0952,-5.0882,-5.0911,-5.0896,-5.0911,-5.0925,-5.0773,-5.0702,-5.0702,-5.0721,-5.028,-4.9716,-4.9698,-4.8702,-4.7504,-4.7457,-4.6953,-4.6289,-4.6289,-4.6289,-4.6289,-4.6289,-4.6289,-4.6289,-4.6289,-4.6202,-4.6067,-4.5859,-4.5718,-4.562,-4.5594,-4.5594,-4.5594,-4.5594,-4.5594,-4.5594,-4.5594,-4.5594,-4.5594,-4.5594,-4.5594,-4.5594,-4.5594,-4.5594,-4.5594,-4.5594,-4.5594,-4.5594,-4.5594,-4.5594,-4.5594,-4.5594,-4.5594,-4.5594,-4.5594,-4.5594,-4.5594,-4.5594,-4.5594,-4.5594,-4.5594,-4.5594,-4.5594,-4.5594,-4.5594,-4.5594,-6.0365,-6.0597,-6.071,-6.0203,-5.976,-5.9337,-5.9158,-5.8756,-5.8549,-5.9009,-5.9492,-5.9885,-6.0074,-6.0482,-6.0781,0.0,0.0,0.0,-6.097,-6.0997,-6.1074,-6.1349,-6.1373,-6.1417,-6.1575,-6.158,-6.1346,-6.0838,-5.9425,-5.8192,-5.7324,-5.6661,-5.6278,-5.6186,-5.6191,-5.6074,-5.582,-5.4609,-5.418,-5.4492,-5.2383,-5.1875,-5.2656,-5.1587,-5.1089,-5.1079,-5.089,-5.0811,-5.0882,-5.0795,-5.0819,-5.0905,-5.0767,-5.0712,-5.0712,-5.0712,-5.0634,-5.0353,-4.9347,-4.8704,-4.8159,-4.7148,-4.6562,-4.6289,-4.6289,-4.6289,-4.6289,-4.6289,-4.6289,-4.6289,-4.62,-4.6047,-4.5896,-4.5815,-4.5712,-4.5594,-4.5594,-4.5594,-4.5594,-4.5594,-4.5594,-4.5594,-4.5594,-4.5594,-4.5594,-4.5594,-4.5594,-4.5594,-4.5594,-4.5594,-4.5594,-4.5594,-4.5594,-4.5594,-4.5594,-4.5594,-4.5594,-4.5594,-4.5594,-4.5594,-4.5594,-4.5594,-4.5594,-4.5594,-4.5594,-4.5594,-4.5594,-4.5594,-4.5594,-4.5594,-4.5594,-4.5594,-5.9885,-6.0132,-6.0283,-5.9808,-5.9424,-5.9176,-5.9176,-5.8951,-5.8874,-5.9475,-5.987,-6.0146,-6.0297,-6.0597,-6.0781,0.0,0.0,-6.0823,-6.0945,-6.0935,-6.1018,-6.1193,-6.1214,-6.1277,-6.1413,-6.1424,-6.0945,-5.978,-5.8965,-5.7998,-5.6828,-5.6077,-5.5834,-5.6186,-5.6191,-5.6035,-5.5703,-5.457,-5.4141,-5.4375,-5.2344,-5.1835,-5.2612,-5.1573,-5.1069,-5.1014,-5.0808,-5.0767,-5.0827,-5.074,-5.0776,-5.0827,-5.074,-5.0712,-5.0721,-5.0749,-5.0896,-5.0899,-4.9448,-4.8938,-4.8672,-4.7187,-4.6523,-4.6289,-4.6289,-4.6289,-4.6289,-4.6289,-4.6288,-4.62,-4.6053,-4.5906,-4.5783,-4.5783,-4.5712,-4.5612,-4.564,-4.5637,-4.5594,-4.5594,-4.5594,-4.5594,-4.5594,-4.5594,-4.5594,-4.5594,-4.5594,-4.5594,-4.5594,-4.5594,-4.5594,-4.5594,-4.5594,-4.5594,-4.5594,-4.5594,-4.5594,-4.5594,-4.5594,-4.5594,-4.5594,-4.5594,-4.5594,-4.5594,-4.5594,-4.5594,-4.5594,-4.5594,-4.5594,-4.5594,-4.5594,-4.5594,-5.9407,-5.9407,-5.9302,-5.8835,-5.8733,-5.8733,-5.8733,-5.8713,-5.8971,-5.9901,-6.0103,-6.0231,-6.0722,-6.0781,-6.0781,-6.0781,0.0,0.0,-6.0793,-6.0793,-6.0867,-6.0979,-6.1006,-6.1089,-6.1271,-6.1289,-6.0527,-5.8668,-5.8496,-5.7696,-5.5801,-5.5703,-5.5834,-5.6186,-5.6191,-5.6308,-5.6562,-5.4883,-5.4414,-5.5273,-5.2656,-5.1791,-5.2452,-5.1542,-5.1014,-5.0882,-5.0776,-5.0712,-5.0712,-5.0712,-5.0712,-5.0712,-5.0712,-5.0712,-5.0702,-5.0851,-5.0966,-5.0991,-5.0238,-4.9516,-4.875,-4.7851,-4.6992,-4.6289,-4.6289,-4.6289,-4.6289,-4.6289,-4.6201,-4.6059,-4.5869,-4.5783,-4.5783,-4.5783,-4.5712,-4.5654,-4.5775,-4.5704,-4.5594,-4.5594,-4.5594,-4.5594,-4.5594,-4.5594,-4.5594,-4.5594,-4.5594,-4.5594,-4.5594,-4.5594,-4.5594,-4.5594,-4.5594,-4.5594,-4.5594,-4.5594,-4.5594,-4.5594,-4.5594,-4.5594,-4.5594,-4.5594,-4.5594,-4.5594,-4.5594,-4.5594,-4.5594,-4.5594,-4.5594,-4.5594,-4.5594,-4.5594,-5.8932,-5.9139,-5.9284,-5.8815,-5.8951,-5.9176,-5.9176,-5.9424,-5.9839,-6.0456,-6.0597,-6.0622,-6.0769,-6.0781,-6.0781,-6.0781,-6.0781,0.0,-6.0781,-6.0781,-6.0816,-6.0877,-6.0935,-6.1031,-6.1097,-6.1105,-6.0616,-5.9465,-5.8761,-5.7839,-5.6637,-5.6011,-5.5834,-5.6186,-5.6191,-5.6035,-5.5703,-5.457,-5.4141,-5.4375,-5.2344,-5.1791,-5.2452,-5.1542,-5.1014,-5.0882,-5.0776,-5.0712,-5.0712,-5.0712,-5.0712,-5.0712,-5.0712,-5.0776,-5.0844,-5.0867,-5.0998,-5.0976,-4.9591,-4.9008,-4.8672,-4.7187,-4.6523,-4.6289,-4.6289,-4.6289,-4.6289,-4.6198,-4.6075,-4.5939,-4.584,-4.5725,-4.5696,-4.5789,-4.5712,-4.5654,-4.5782,-4.5712,-4.5594,-4.5594,-4.5594,-4.5594,-4.5594,-4.5594,-4.5594,-4.5594,-4.5594,-4.5594,-4.5594,-4.5594,-4.5594,-4.5594,-4.5594,-4.5594,-4.5594,-4.5594,-4.5594,-4.5594,-4.5696,-4.5733,-4.5733,-4.5733,-4.5733,-4.5733,-4.5632,-4.5594,-4.5594,-4.5594,-4.5594,-4.5594,-4.5594,-4.5594,-5.8439,-5.8652,-5.8796,-5.8524,-5.8776,-5.9176,-5.9354,-5.9776,-6.0217,-6.0722,-6.0781,-6.0781,-6.0781,-6.0781,-6.0781,-6.0781,-6.0781,-6.0781,-6.0781,-6.0781,-6.0781,-6.0781,-6.0871,-6.0935,-6.0935,-6.0626,-6.0085,-5.9283,-5.8351,-5.7434,-5.656,-5.5972,-5.5834,-5.6186,-5.6191,-5.5918,-5.5312,-5.4453,-5.3828,-5.3476,-5.2028,-5.1537,-5.1938,-5.1312,-5.0959,-5.0803,-5.074,-5.0712,0.0,-5.0712,-5.0712,-5.0712,-5.0712,-5.0782,-5.0896,-5.0966,-5.087,-5.0542,-4.9233,-4.8627,-4.8164,-4.6758,-4.6289,-4.6289,-4.6246,-4.6248,-4.6248,-4.608,-4.5971,-4.5881,-4.5743,-4.5657,-4.5607,-4.5775,-4.5712,-4.5654,-4.5782,-4.5712,-4.5594,-4.5594,-4.5594,-4.5594,-4.5594,-4.5594,-4.5594,-4.5594,-4.5594,-4.5594,-4.5594,-4.5594,-4.5629,-4.5673,-4.568,-4.568,-4.568,-4.5646,-4.5594,-4.5594,-4.5718,-4.5783,-4.5783,-4.5801,-4.5836,-4.5836,-4.577,-4.5718,-4.568,-4.5637,-4.5594,-4.5594,-4.5594,-4.5594,0.0,-5.7997,-5.7997,-5.7997,-5.8375,-5.8874,-5.9302,-5.9792,0.0,-6.0722,-6.0781,-6.0781,-6.0781,-6.0781,-6.0781,-6.0781,-6.0781,-6.0781,-6.0781,-6.0781,-6.0781,-6.0781,-6.0781,-6.0781,-6.0781,-6.0089,-5.9242,-5.8357,-5.755,-5.6676,-5.5742,-5.5703,-5.5834,-5.6186,-5.6191,-5.5918,-5.5312,-5.4453,-5.3555,-5.2695,-5.1699,-5.1167,-5.1089,-5.0985,-5.0827,-5.0712,-5.0712,-5.0712,-5.0712,-5.0712,-5.0712,-5.0712,-5.0731,-5.0808,-5.0932,-5.1058,-5.0669,-5.0005,-4.9255,-4.8476,-4.7617,-4.6719,-4.6367,-4.6288,-4.6144,-4.6198,-4.6245,-4.5971,-4.5905,-4.5852,-4.5665,-4.5594,-4.5607,-4.5775,-4.5712,-4.5654,-4.5782,-4.5712,-4.5594,-4.5594,-4.5594,-4.5594,-4.5594,-4.5594,-4.5594,-4.5594,-4.5603,-4.562,-4.562,-4.5629,-4.568,-4.5783,-4.5796,-4.5796,-4.5796,-4.5704,-4.5612,-4.5594,-4.5733,-4.5796,-4.5796,-4.5867,-4.5892,-4.5892,-4.5914,-4.5846,-4.5822,-4.5665,-4.5594,-4.5594,-4.5594,-4.5594,-5.7997,0.0,-5.7997,-5.7997,-5.8632,-5.9248,0.0,-6.0059,-6.0659,-6.0769,-6.0781,-6.0781,-6.0781,-6.0781,-6.0781,-6.0781,-6.0781,-6.0781,-6.0781,-6.0781,-6.0781,-6.0781,-6.0781,-6.0781,-6.0781,-6.0589,-5.9896,-5.8396,-5.8127,-5.7319,-5.578,-5.5703,-5.5834,-5.6186,-5.6191,-5.5918,-5.5312,-5.4453,-5.3555,-5.2695,-5.1796,-5.1254,-5.1089,-5.1058,-5.0925,-5.0712,-5.0712,-5.0712,-5.0712,-5.0712,-5.0712,-5.0731,-5.0795,-5.0939,-5.1063,-5.1144,-5.1141,-5.0975,-5.0156,-4.9766,-4.9336,-4.7773,-4.6836,-4.6288,-4.6144,-4.6138,-4.6084,-4.5885,-4.584,-4.579,-4.5624,-4.5594,-4.5607,-4.5775,-4.5712,-4.5654,-4.5782,-4.5712,-4.5594,-4.5594,-4.5594,-4.5594,-4.5594,-4.5594,-4.5594,-4.5594,-4.5696,-4.5754,-4.5754,-4.5795,-4.5841,-4.5872,-4.5877,-4.5877,-4.5877,-4.5821,-4.5688,-4.5603,-4.577,-4.5877,-4.5877,-4.5985,-4.6067,-4.6067,-4.5915,-4.5821,-4.5822,-4.5665,-4.5594,-4.5594,-4.5594,-4.5594,-5.7997,-5.7997,-5.8065,-5.826,-5.8874,-5.9441,-5.9658,0.0,-6.0781,-6.0781,-6.0781,-6.0781,-6.0781,-6.0781,-6.0781,-6.0781,-6.0781,-6.0781,-6.0781,-6.0781,-6.0781,-6.0781,-6.0781,-6.0781,-6.0781,-6.0089,-5.9281,-5.8357,-5.755,-5.6703,-5.5742,-5.575,-5.5899,-5.6186,-5.5857,-5.5369,-5.4726,-5.4258,-5.3359,-5.2109,-5.1543,-5.1206,-5.1089,-5.0985,-5.0835,-5.0712,-5.0712,-5.0712,-5.0712,-5.0712,-5.074,-5.0808,-5.0883,-5.1008,-5.114,-5.1188,-5.1039,-5.0781,-5.0351,-4.9922,-4.9453,-4.8516,-4.7576,-4.6782,-4.6652,-4.6286,-4.5948,-4.5834,-4.5783,-4.5775,-4.5616,-4.5594,-4.562,-4.5704,-4.564,-4.5629,-4.5704,-4.564,-4.5594,-4.5594,-4.5594,-4.5594,-4.5594,-4.5594,-4.5594,-4.5594,-4.5696,-4.5783,-4.5783,-4.588,-4.5901,-4.5985,-4.5992,-4.5992,-4.5992,-4.5939,-4.5859,-4.5681,-4.5809,-4.5879,-4.5879,-4.6084,-4.6199,-4.6199,-4.5944,-4.5853,-4.5853,-4.5673,-4.5594,-4.5594,-4.5594,-4.5594,-5.7997,-5.7997,-5.8119,-5.857,-5.9028,-5.9509,-5.9977,0.0,0.0,0.0,0.0,-6.0781,-6.0781,-6.0781,-6.0781,-6.0781,-6.0781,-6.0781,-6.0781,-6.0781,-6.0781,-6.0781,-6.0781,-6.0742,-6.0589,-5.9319,-5.8396,-5.8127,-5.6742,-5.5818,-5.5703,-5.5834,-5.5976,-5.6186,-5.5486,-5.474,-5.4023,-5.3867,-5.3008,-5.1406,-5.1213,-5.1113,-5.1084,-5.0844,-5.0702,-5.0712,-5.0712,-5.0712,-5.0712,-5.0712,-5.0808,-5.0896,-5.0913,-5.1055,-5.1204,-5.1213,-5.0887,-5.0391,-5.0391,-4.9805,-4.9101,-4.9062,-4.8308,-4.7367,-4.7224,-4.6513,-4.5815,-4.5789,-4.5782,-4.574,-4.5646,-4.5594,-4.5594,-4.5594,-4.5594,-4.5594,-4.5594,-4.5594,-4.5594,-4.5594,-4.5594,-4.5594,-4.5594,-4.5594,-4.5603,-4.5637,-4.5747,-4.5828,-4.5852,-4.59,-4.5998,-4.6136,-4.614,-4.614,-4.614,-4.6095,-4.6037,-4.5875,-4.5891,-4.5952,-4.5967,-4.6195,-4.6289,-4.6288,-4.6014,-4.587,-4.5891,-4.5701,-4.5646,-4.5646,-4.5646,-4.5646,-5.7997,-5.7997,-5.8119,-5.857,-5.9028,-5.9509,-5.9977,-6.0469,0.0,0.0,0.0,0.0,-6.0781,-6.0781,-6.0781,-6.0781,-6.0781,-6.0781,-6.0781,-6.0781,-6.0781,-6.0781,-6.0781,-6.0512,-5.9781,-5.9473,-5.8742,-5.733,-5.6945,-5.6483,-5.5742,-5.5834,-5.5976,-5.6186,-5.5486,-5.474,-5.4023,-5.3281,-5.2383,-5.1406,-5.126,-5.1147,-5.1084,-5.0945,-5.0825,-5.0712,-5.0712,-5.0712,-5.0721,-5.0811,-5.0859,-5.0925,-5.1101,-5.1183,-5.1208,-5.1322,-5.1289,-5.1211,-5.1211,-5.0664,-4.996,-4.9861,-4.8712,-4.7357,-4.7101,-4.6455,-4.5789,-4.5657,-4.5646,-4.5637,-4.5603,-4.5594,-4.5594,-4.5594,-4.5594,-4.5594,-4.5594,-4.5594,-4.5594,-4.5594,-4.5594,-4.5594,-4.5594,-4.5594,-4.5654,-4.5754,-4.5842,-4.5927,-4.605,-4.6149,-4.6247,-4.6288,-4.6288,-4.6288,-4.6288,-4.6152,-4.6082,-4.6061,-4.6069,-4.6136,-4.6245,-4.6289,-4.6247,-4.6142,-4.5981,-4.5867,-4.5821,-4.5764,-4.5775,-4.5775,-4.5775,-4.5775,-5.7997,-5.7997,-5.8186,-5.8894,-5.923,-5.9576,-6.0324,-6.0634,-6.0781,0.0,-6.0781,-6.0781,-6.0781,-6.0781,-6.0781,-6.0781,-6.0781,-6.0781,-6.0781,-6.0781,-6.0781,-6.0781,-6.0781,-6.0473,-5.9588,-5.9127,-5.8357,-5.7099,-5.656,-5.6126,-5.5703,-5.5915,-5.5883,-5.5525,-5.4867,-5.4135,-5.332,-5.2422,-5.1797,-5.1406,-5.1235,-5.1148,-5.1084,-5.0905,-5.0776,-5.0712,-5.0712,-5.0749,-5.0795,-5.0852,-5.0966,-5.1083,-5.1177,-5.1221,-5.1319,-5.1367,-5.1406,-5.1406,-5.1406,-5.1172,-5.082,-5.0674,-4.9424,-4.7961,-4.7753,-4.6752,-4.5688,-4.562,-4.5594,-4.5594,-4.5594,-4.5594,-4.5594,-4.5594,-4.5594,-4.5594,-4.5594,-4.5594,-4.5594,-4.5594,-4.5594,-4.5594,-4.5594,-4.5594,-4.5632,-4.5796,-4.5875,-4.5959,-4.6082,-4.6204,-4.6289,-4.6289,-4.6289,-4.6289,-4.6289,-4.6247,-4.6195,-4.6091,-4.6089,-4.615,-4.6289,-4.6289,-4.6288,-4.6202,-4.608,-4.5981,-4.5974,-4.5906,-4.5831,-4.5831,-4.5831,-4.5831,-5.7703,-5.7703,-5.7921,-5.8613,-5.8974,-5.9398,-6.052,-6.0627,-6.055,-6.0742,-6.0781,-6.0781,-6.0781,-6.0781,-6.0781,-6.0781,-6.0781,-6.0781,-6.0781,-6.0722,-6.0634,-6.0634,-6.0442,-6.002,-5.9125,-5.8427,-5.7627,-5.6753,-5.6088,-5.5703,-5.5703,-5.5814,-5.5602,-5.4936,-5.4113,-5.3398,-5.2695,-5.1836,-5.1406,-5.1406,-5.1197,-5.1089,-5.1084,-5.0811,-5.0712,-5.0712,-5.073,-5.0816,-5.0896,-5.0946,-5.1069,-5.1204,-5.1217,-5.1318,-5.1406,-5.1406,-5.1406,-5.1406,-5.1406,-5.1367,-5.1284,-5.0967,-4.9913,-4.8665,-4.8139,-4.7,-4.5864,-4.5671,-4.5594,-4.5594,-4.5594,-4.5594,-4.5594,-4.5594,-4.5594,-4.5594,-4.5594,-4.5594,-4.5594,-4.5594,-4.5594,-4.5612,-4.5624,-4.5632,-4.5681,-4.5863,-4.5905,-4.5992,-4.614,-4.6245,-4.6289,-4.6289,-4.6289,-4.6289,-4.6289,-4.6289,-4.6248,-4.6149,-4.6147,-4.6199,-4.6289,-4.6289,-4.6289,-4.6248,-4.6149,-4.6082,-4.6067,-4.5985,-4.5959,-4.5959,-4.5959,-4.5959,-5.6895,-5.6895,-5.6903,-5.7073,-5.7637,-5.8662,-6.0405,-6.0165,-5.9819,-6.0627,-6.0781,-6.0781,-6.0781,-6.0781,-6.0781,-6.0781,-6.0781,-6.0781,-6.0781,-6.0443,-6.0146,-6.0146,-5.9459,-5.8644,-5.7829,-5.7337,-5.6753,-5.5857,-5.5742,-5.5703,-5.5703,-5.5264,-5.4975,-5.4897,-5.3528,-5.2773,-5.2695,-5.1836,-5.1406,-5.1406,-5.1197,-5.1089,-5.1084,-5.0811,-5.0712,-5.0721,-5.0827,-5.0874,-5.0918,-5.1117,-5.1194,-5.1208,-5.1324,-5.1406,-5.1406,-5.1406,-5.1406,-5.1406,-5.1406,-5.132,-5.1082,-5.0182,-4.9743,-4.9216,-4.7491,-4.6903,-4.6624,-4.5825,-4.5594,-4.5594,-4.5594,-4.5594,-4.5594,-4.5594,-4.5594,-4.5594,-4.5594,-4.5594,-4.5594,-4.5594,-4.5594,-4.5624,-4.5768,-4.5802,-4.583,-4.6056,-4.608,-4.6142,-4.6288,-4.6289,-4.6289,-4.6289,-4.6289,-4.6289,-4.6289,-4.6289,-4.6289,-4.6289,-4.6289,-4.6289,-4.6289,-4.6289,-4.6246,-4.6136,-4.6091,-4.6059,-4.5892,-4.6014,-4.6082,-4.6082,-4.6082,-4.6082,-5.6198,-5.6418,-5.6962,-5.7579,-5.7901,-5.8435,-5.9714,-6.0165,-6.0396,-6.0742,-6.0781,-6.0781,-6.0781,-6.0781,-6.0781,-6.0781,-6.0781,-6.0781,-6.0781,-6.0378,-5.9927,-5.9393,-5.8791,-5.8008,-5.6962,-5.6728,-5.6355,-5.5731,-5.5703,-5.5703,-5.5703,-5.5179,-5.4663,-5.4113,-5.3175,-5.2422,-5.1914,-5.1562,-5.1406,-5.1406,-5.1197,-5.1089,-5.1084,-5.0811,-5.0758,-5.0819,-5.0898,-5.0978,-5.1109,-5.118,-5.1261,-5.1322,-5.1367,-5.1406,-5.1406,-5.1406,-5.1406,-5.1406,-5.1406,-5.1319,-5.1113,-5.0746,-5.0148,-4.935,-4.8043,-4.7317,-4.674,-4.5864,-4.5594,-4.5594,-4.5594,-4.5594,-4.5594,-4.5594,-4.5594,-4.5594,-4.5594,-4.5594,-4.5594,-4.5594,-4.5665,-4.574,-4.5809,-4.5825,-4.5909,-4.6077,-4.6089,-4.6147,-4.6289,-4.6289,-4.6289,-4.6289,-4.6289,-4.6289,-4.6289,-4.6289,-4.6289,-4.6289,-4.6289,-4.6289,-4.6289,-4.6289,-4.6288,-4.6244,-4.6205,-4.62,-4.6147,-4.62,-4.6205,-4.6205,-4.6205,-4.6205,-5.5757,-5.611,-5.6784,-5.7577,-5.8056,-5.8517,-5.9305,-5.9973,-6.0473,-6.0742,-6.0781,-6.0781,-6.0781,-6.0781,-6.0781,-6.0781,-6.0781,-6.0746,-6.061,-5.9946,-5.9231,-5.8537,-5.7691,-5.6853,-5.6027,-5.5873,-5.5704,-5.5547,-5.5263,-5.5143,-5.5318,-5.4506,-5.3763,-5.3219,-5.2574,-5.1951,-5.1406,-5.1406,-5.1406,-5.1406,-5.1197,-5.1089,-5.1084,-5.0903,-5.0859,-5.0896,-5.0972,-5.1083,-5.1204,-5.1261,-5.132,-5.1406,-5.1406,-5.1406,-5.1406,-5.1406,-5.1406,-5.1406,-5.1364,-5.1261,-5.1112,-5.0724,-5.0145,-4.9296,-4.8093,-4.7355,-4.674,-4.5864,-4.5594,-4.5594,-4.5594,-4.5594,-4.5594,-4.5594,-4.5594,-4.5594,-4.5594,-4.5594,-4.5594,-4.5594,-4.5688,-4.5796,-4.5813,-4.5896,-4.6001,-4.6145,-4.6152,-4.6199,-4.6289,-4.6289,-4.6289,-4.6289,-4.6289,-4.6289,-4.6289,-4.6289,-4.6289,-4.6289,-4.6289,-4.6289,-4.6289,-4.6289,-4.6289,-4.6289,-4.6289,-4.6289,-4.6289,-4.6289,-4.6289,-4.6289,-4.6289,-4.6289,-5.5596,-5.5907,-5.6294,-5.6764,-5.7863,-5.8929,-5.9403,-5.9511,-5.9742,-6.0627,-6.0781,-6.0781,-6.0781,-6.0781,-6.0781,-6.0781,-6.0781,-6.0634,-6.0161,-5.9008,-5.8026,-5.7525,-5.6011,-5.5006,-5.5006,-5.4672,-5.4655,-5.5042,-5.4293,-5.3988,-5.4462,-5.2975,-5.2168,-5.2285,-5.1587,-5.1267,-5.1406,-5.1406,-5.1406,-5.1406,-5.12,-5.1094,-5.1094,-5.1089,-5.1014,-5.0918,-5.109,-5.1204,-5.1208,-5.1363,-5.1406,-5.1406,-5.1406,-5.1406,-5.1406,-5.1406,-5.1406,-5.1367,-5.1261,-5.1147,-5.0913,-4.9944,-4.9512,-4.9086,-4.7432,-4.6923,-4.674,-4.5864,-4.5594,-4.5594,-4.5594,-4.5594,-4.5594,-4.5594,-4.5594,-4.5594,-4.5594,-4.5594,-4.5594,-4.5594,-4.5696,-4.584,-4.59,-4.6005,-4.6147,-4.6289,-4.6289,-4.6289,-4.6289,-4.6289,-4.6289,-4.6289,-4.6289,-4.6289,-4.6289,-4.6289,-4.6289,-4.6289,-4.6289,-4.6289,-4.6289,-4.6289,-4.6289,-4.6289,-4.6289,-4.6289,-4.6289,-4.6289,-4.6289,-4.6289,-4.6289,-4.6289,-5.4216,-5.4613,-5.5623,-5.6702,-5.7878,-5.9081,-6.0172,-6.0396,-6.0473,-6.0742,-6.0781,-6.0781,-6.0781,-6.0781,-6.0781,-6.0781,-6.0508,-6.0054,-5.9345,-5.8367,-5.7229,-5.5976,-5.5084,-5.4465,-5.4186,-5.3568,-5.3435,-5.4139,-5.3442,-5.3133,-5.3567,-5.2627,-5.2168,-5.2285,-5.1587,-5.1267,-5.1406,-5.1406,-5.1406,-5.1406,-5.1359,-5.1254,-5.1164,-5.1036,-5.0992,-5.1094,-5.1185,-5.1263,-5.1324,-5.1367,-5.1406,-5.1406,-5.1406,-5.1406,-5.1406,-5.1406,-5.1324,-5.1263,-5.1208,-5.1101,-5.092,-5.0601,-5.0014,-4.9202,-4.8086,-4.7355,-4.674,-4.5864,-4.5594,-4.5594,-4.5594,-4.5594,-4.5594,-4.5594,-4.5594,-4.5594,-4.5594,-4.5673,-4.574,-4.574,-4.5885,-4.6031,-4.6056,-4.6149,-4.6248,-4.6289,-4.6289,-4.6289,-4.6289,-4.6289,-4.6289,-4.6289,-4.6289,-4.6289,-4.6289,-4.6289,-4.6289,-4.6289,-4.6289,-4.6289,-4.6289,-4.6289,-4.6289,-4.6289,-4.6289,-4.6289,-4.6289,-4.6289,-4.6289,-4.6289,-4.6289,-4.6289,-5.473,-5.5181,-5.6103,-5.7582,-5.8532,-5.9383,-6.0553,-6.0781,-6.0781,-6.0781,-6.0781,-6.0781,-6.0781,-6.0512,-6.0281,-6.0281,-5.9625,-5.8878,-5.8198,-5.7201,-5.6141,-5.4959,-5.428,-5.3681,-5.3119,-5.2658,-5.2508,-5.2825,-5.2233,-5.2018,-5.2406,-5.1919,-5.167,-5.1823,-5.1434,-5.1267,-5.1406,-5.1406,-5.1366,-5.132,-5.132,-5.1271,-5.1201,-5.1133,-5.114,-5.1204,-5.1265,-5.1321,-5.1406,-5.1406,-5.1406,-5.1406,-5.1406,-5.1406,-5.1406,-5.1324,-5.1268,-5.1196,-5.1125,-5.0986,-5.0874,-5.0835,-4.9997,-4.8874,-4.8334,-4.737,-4.6336,-4.5835,-4.5624,-4.5594,-4.5594,-4.5594,-4.5594,-4.5594,-4.5594,-4.562,-4.5665,-4.574,-4.5803,-4.5825,-4.5963,-4.6089,-4.6089,-4.6202,-4.6289,-4.6289,-4.6289,-4.6289,-4.6289,-4.6289,-4.6289,-4.6289,-4.6289,-4.6289,-4.6289,-4.6289,-4.6289,-4.6289,-4.6289,-4.6289,-4.6289,-4.6289,-4.6289,-4.6289,-4.6289,-4.6289,-4.6289,-4.6289,-4.6289,-4.6289,-4.6289,-4.6289,-5.6198,-5.666,-5.7133,-5.8861,-5.9455,-5.9819,-6.0627,-6.0781,-6.0781,-6.0781,-6.0781,-6.0781,-6.0781,-6.0089,-5.9511,-5.9511,-5.8413,-5.7338,-5.6873,-5.5769,-5.485,-5.4354,-5.3592,-5.2821,-5.205,-5.1867,-5.163,-5.1319,-5.0842,-5.0757,-5.1179,-5.098,-5.0959,-5.1089,-5.1154,-5.1263,-5.1406,-5.1406,-5.1324,-5.121,-5.121,-5.121,-5.1213,-5.1323,-5.1321,-5.1215,-5.1364,-5.1406,-5.1406,-5.1406,-5.1406,-5.1406,-5.1406,-5.1406,-5.1367,-5.1261,-5.1199,-5.1174,-5.0972,-5.0835,-5.0759,-5.0729,-4.9564,-4.8203,-4.8301,-4.7139,-4.5783,-4.5783,-4.5681,-4.5594,-4.5594,-4.5594,-4.5594,-4.5594,-4.5594,-4.5654,-4.5782,-4.579,-4.5813,-4.5914,-4.6014,-4.6136,-4.6136,-4.6204,-4.6289,-4.6289,-4.6289,-4.6289,-4.6289,-4.6289,-4.6289,-4.6289,-4.6289,-4.6289,-4.6289,-4.6289,-4.6289,-4.6289,-4.6289,-4.6289,-4.6289,-4.6289,-4.6289,-4.6289,-4.6289,-4.6289,-4.6289,-4.6289,-4.6289,-4.6289,-4.6289,-4.6289,-5.484,-5.5138,-5.5901,-5.7962,-5.9507,-6.055,-6.0742,-6.0781,-6.0781,-6.0781,-6.0781,-6.0781,-6.0781,-6.0089,-5.9511,-5.9511,-5.812,-5.6787,-5.6064,-5.5174,-5.4291,-5.3555,-5.2747,-5.2197,-5.2013,-5.0859,-5.0172,-5.0353,-4.9978,-4.9924,-5.0328,-5.0612,-5.0859,-5.1084,-5.1117,-5.1216,-5.1406,-5.1406,-5.1406,-5.1365,-5.1365,-5.1365,-5.1365,-5.1271,-5.1273,-5.1365,-5.1406,-5.1406,-5.1406,-5.1406,-5.1406,-5.1406,-5.1406,-5.1406,-5.1367,-5.1261,-5.1164,-5.1113,-5.0966,-5.0394,-4.9842,-5.0596,-4.9219,-4.7417,-4.8216,-4.72,-4.5783,-4.5783,-4.5681,-4.5594,-4.5594,-4.5594,-4.5594,-4.5594,-4.5594,-4.5654,-4.5782,-4.5842,-4.5918,-4.6014,-4.6152,-4.6248,-4.6248,-4.6289,-4.6289,-4.6289,-4.6289,-4.6289,-4.6289,-4.6289,-4.6289,-4.6289,-4.6289,-4.6289,-4.6289,-4.6289,-4.6289,-4.6289,-4.6289,-4.6289,-4.6289,-4.6289,-4.6289,-4.6289,-4.6289,-4.6289,-4.6289,-4.6289,-4.6289,-4.6289,-4.6289,-4.6289,-5.4656,-5.5299,-5.6201,-5.8554,-5.9953,-6.0781,-6.0781,-6.0781,-6.0781,-6.0781,-6.0781,-6.0666,-6.0242,-5.9473,-5.8735,-5.8092,-5.6753,-5.5551,-5.488,-5.4235,-5.3665,-5.324,-5.2491,-5.183,-5.1463,-5.0345,-4.9583,-4.9534,-4.949,-4.9659,-5.0099,-5.0529,-5.0874,-5.1084,-5.1148,-5.1238,-5.1406,-5.1406,-5.1366,-5.1317,-5.1366,-5.1406,-5.1406,-5.1322,-5.1323,-5.1406,-5.1406,-5.1406,-5.1406,-5.1406,-5.1406,-5.1406,-5.1406,-5.1406,-5.1367,-5.1261,-5.1151,-5.1074,-5.0952,-5.0524,-5.0134,-5.0705,-4.9465,-4.7833,-4.8351,-4.7319,-4.5925,-4.5828,-4.5754,-4.5712,-4.5712,-4.5632,-4.562,-4.5688,-4.5712,-4.5725,-4.5825,-4.5923,-4.6056,-4.6153,-4.6248,-4.6289,-4.6289,-4.6289,-4.6289,-4.6289,-4.6289,-4.6289,-4.6289,-4.6289,-4.6289,-4.6289,-4.6289,-4.6289,-4.6289,-4.6289,-4.6289,-4.6289,-4.6289,-4.6289,-4.6289,-4.6289,-4.6289,-4.6289,-4.6289,-4.6289,-4.6289,-4.6289,-4.6289,-4.6289,-4.6289,-4.6289,-5.4399,-5.5697,-5.7003,-5.939,-6.0378,-6.0781,-6.0781,-6.0781,-6.0742,-6.0589,-6.0589,-6.0358,-5.9627,-5.8704,-5.7728,-5.6599,-5.5329,-5.4338,-5.3851,-5.3444,-5.313,-5.3004,-5.227,-5.1463,-5.0655,-4.9848,-4.9214,-4.8919,-4.9265,-4.9659,-5.0099,-5.0576,-5.0939,-5.1084,-5.1147,-5.126,-5.1406,-5.1406,-5.1324,-5.1258,-5.1364,-5.1406,-5.1406,-5.1406,-5.1406,-5.1406,-5.1406,-5.1406,-5.1406,-5.1406,-5.1406,-5.1406,-5.1406,-5.1406,-5.1364,-5.1247,-5.1047,-5.0848,-5.0706,-5.0425,-5.0121,-5.0407,-4.9409,-4.8083,-4.8275,-4.7267,-4.6024,-4.5858,-4.5783,-4.5783,-4.5783,-4.5733,-4.5673,-4.579,-4.5846,-4.5853,-4.5905,-4.5998,-4.6144,-4.6288,-4.6289,-4.6289,-4.6289,-4.6289,-4.6289,-4.6289,-4.6289,-4.6289,-4.6289,-4.6289,-4.6289,-4.6289,-4.6289,-4.6289,-4.6289,-4.6289,-4.6289,-4.6289,-4.6289,-4.6289,-4.6289,-4.6289,-4.6289,-4.6289,-4.6289,-4.6289,-4.6289,-4.6289,-4.6289,-4.6289,-4.6289,-4.6289,-5.2197,0.0,-5.7314,-5.9043,-6.0146,-6.0781,-6.0781,-6.0781,-6.0589,-5.9819,-5.9665,-5.9627,-5.9511,-5.8242,-5.6998,-5.6484,-5.5329,-5.4338,-5.3851,-5.3444,-5.2931,-5.2234,-5.1463,-5.0655,-4.9831,-4.8967,-4.8587,-4.8881,-4.9265,-4.9659,-5.0099,-5.0514,-5.0835,-5.1084,-5.1108,-5.121,-5.1406,-5.1406,-5.1406,-5.1366,-5.1406,-5.1406,-5.1406,-5.1406,-5.1406,-5.1406,-5.1406,-5.1406,-5.1406,-5.1406,-5.1406,-5.1406,-5.1406,-5.1322,-5.1208,-5.1121,-5.057,-4.9801,-4.9759,-4.8762,-4.7643,-4.8655,-4.7731,-4.6402,-4.727,-4.6761,-4.584,-4.5796,-4.5783,-4.5783,-4.5783,-4.583,-4.5877,-4.5891,-4.5971,-4.6047,-4.5939,-4.5998,-4.6144,-4.6288,-4.6289,-4.6289,-4.6289,-4.6289,-4.6289,-4.6289,-4.6289,-4.6289,-4.6289,-4.6289,-4.6289,-4.6289,-4.6289,-4.6289,-4.6289,-4.6289,-4.6289,-4.6289,-4.6289,-4.6289,-4.6289,-4.6289,-4.6289,-4.6289,-4.6289,-4.6289,-4.6289,-4.6289,-4.6289,-4.6289,-4.6289,-4.6289,-5.2505,-5.4629,-5.6733,-5.8606,-5.957,-6.0204,-6.0704,-6.0435,-5.9973,-5.9588,-5.8742,-5.8088,-5.8088,-5.7522,-5.6633,-5.5508,-5.4474,-5.3541,-5.2899,-5.223,-5.172,-5.1353,-5.0618,-5.0014,-4.9647,-4.882,-4.855,-4.9187,-4.9401,-4.9754,-5.0391,-5.0604,-5.0811,-5.1084,-5.1089,-5.1197,-5.1406,-5.1406,-5.1406,-5.1406,-5.1406,-5.1406,-5.1406,-5.1406,-5.1406,-5.1406,-5.1406,-5.1406,-5.1406,-5.1406,-5.1406,-5.1406,-5.1406,-5.1366,-5.1315,-5.118,-5.0542,-4.9726,-4.9709,-4.8826,-4.7818,-4.8392,-4.7708,-4.6692,-4.7115,-4.6576,-4.5859,-4.5809,-4.5846,-4.5852,-4.5962,-4.5931,-4.5935,-4.5992,-4.6069,-4.6082,-4.6011,-4.6136,-4.6245,-4.6289,-4.6289,-4.6289,-4.6289,-4.6289,-4.6289,-4.6289,-4.6289,-4.6289,-4.6289,-4.6289,-4.6289,-4.6289,-4.6289,-4.6289,-4.6289,-4.6289,-4.6289,-4.6289,-4.6289,-4.6289,-4.6289,-4.6289,-4.6289,-4.6289,-4.6289,-4.6289,-4.6289,-4.6289,-4.6289,-4.6289,-4.6289,-4.6289,-5.2381,-5.3958,-5.5449,-5.7506,-5.8678,-5.9533,-6.0308,-5.9973,-5.9435,-5.9242,-5.8011,-5.6945,-5.6714,-5.6676,-5.6201,-5.4738,-5.3783,-5.2911,-5.2103,-5.1316,-5.0729,-5.0508,-4.9978,-4.95,-4.928,-4.8673,-4.864,-4.9431,-4.9489,-4.9859,-5.0644,-5.0712,-5.0811,-5.1084,-5.1089,-5.1197,-5.1406,-5.1406,-5.1406,-5.1406,-5.1406,-5.1406,-5.1406,-5.1406,-5.1406,-5.1406,-5.1406,-5.1406,-5.1406,-5.1406,-5.1406,-5.1406,-5.1406,-5.1248,-5.0962,-5.0886,-5.0092,-4.9066,-4.9119,-4.8488,-4.772,-4.7868,-4.7419,-4.6868,-4.6771,-4.6341,-4.5852,-4.5815,-4.5885,-4.5978,-4.6077,-4.6064,-4.6014,-4.614,-4.6147,-4.6147,-4.6147,-4.6245,-4.6289,-4.6289,-4.6289,-4.6289,-4.6289,-4.6289,-4.6289,-4.6289,-4.6289,-4.6289,-4.6289,-4.6289,-4.6289,-4.6289,-4.6289,-4.6289,-4.6289,-4.6289,-4.6289,-4.6289,-4.6289,-4.6289,-4.6289,-4.6289,-4.6289,-4.6289,-4.6289,-4.6289,-4.6289,-4.6289,-4.6289,-4.6289,-4.6289,-4.6289,-5.0593,-5.1898,-5.332,-5.5357,-5.7407,-5.9035,-5.948,-5.955,-5.9281,-5.8511,-5.7627,-5.6753,-5.5934,-5.578,-5.5473,-5.4625,-5.3783,-5.2911,-5.2103,-5.1316,-5.0508,-4.9757,-4.9647,-4.928,-4.8453,-4.8343,-4.864,-4.9431,-4.9489,-4.9859,-5.0644,-5.0712,-5.0811,-5.1084,-5.1089,-5.1197,-5.1406,-5.1406,-5.1406,-5.1406,-5.1406,-5.1406,-5.1406,-5.1406,-5.1406,-5.1406,-5.1406,-5.1406,-5.1406,-5.1406,-5.1406,-5.1406,-5.1406,-5.0795,-4.988,-4.9872,-4.8677,-4.7067,-4.7262,-4.6765,-4.6044,-4.6178,-4.6115,-4.5973,-4.5872,-4.5829,-4.579,-4.5783,-4.5948,-4.6084,-4.6089,-4.6198,-4.6289,-4.6289,-4.6289,-4.6289,-4.6289,-4.6289,-4.6289,-4.6289,-4.6289,-4.6289,-4.6289,-4.6289,-4.6289,-4.6289,-4.6289,-4.6289,-4.6289,-4.6289,-4.6289,-4.6289,-4.6289,-4.6289,-4.6289,-4.6289,-4.6289,-4.6289,-4.6289,-4.6289,-4.6289,-4.6289,-4.6289,-4.6289,-4.6289,-4.6289,-4.6289,-4.6289,-4.6289,-4.6289,-4.6289,-4.6289,-5.0787,-5.1464,-5.2323,-5.4409,-5.5885,-5.704,-5.772,-5.7896,-5.7819,-5.7511,-5.678,-5.6049,-5.5742,-5.547,-5.5147,-5.4579,-5.3541,-5.2434,-5.138,-5.0545,-4.9701,-4.8857,-4.8783,-4.8636,-4.8343,-4.8306,-4.864,-4.9431,-4.9489,-4.9859,-5.0644,-5.0173,-4.9992,-5.0262,-5.0277,-5.0618,-5.1406,-5.1406,-5.1406,-5.1406,-5.1406,-5.1406,-5.1406,-5.1406,-5.1406,-5.1406,-5.1406,-5.1406,-5.1406,-5.1406,-5.1406,-5.1406,-5.1406,-5.0807,-4.9916,-4.9811,-4.8615,-4.7023,-4.7062,-4.6517,-4.5836,-4.589,-4.5875,-4.584,-4.5696,-4.5725,-4.5803,-4.5864,-4.5967,-4.6136,-4.6201,-4.6249,-4.6289,-4.6289,-4.6289,-4.6289,-4.6289,-4.6289,-4.6289,-4.6289,-4.6289,-4.6289,-4.6289,-4.6289,-4.6289,-4.6289,-4.6289,-4.6289,-4.6289,-4.6289,-4.6289,-4.6289,-4.6289,-4.6289,-4.6289,-4.6289,-4.6289,-4.6289,-4.6289,-4.6289,-4.6289,-4.6289,-4.6289,-4.6289,-4.6289,-4.6289,-4.6289,-4.6289,-4.6289,-4.6289,-4.6289,-4.6289,-5.0075,-5.0671,-5.1561,-5.338,-5.4484,-5.5389,-5.6692,-5.6791,-5.6637,-5.6945,-5.6329,-5.5703,-5.5703,-5.525,-5.4804,-5.4532,-5.3406,-5.2197,-5.0956,-5.0105,-4.928,-4.8416,-4.8306,-4.8306,-4.8306,-4.8421,-4.8779,-4.9445,-4.9617,-4.9987,-5.0644,-5.0164,-4.9953,-5.0218,-5.0041,-5.0395,-5.1406,-5.1406,-5.1406,-5.1406,-5.1406,-5.1406,-5.1406,-5.1406,-5.1406,-5.1406,-5.1406,-5.1406,-5.1406,-5.1406,-5.1406,-5.1367,-5.1052,-5.0523,-4.9838,-4.9148,-4.8108,-4.6984,-4.6679,-4.6242,-4.5783,-4.5783,-4.5783,-4.5796,-4.5704,-4.5768,-4.5853,-4.5944,-4.6072,-4.6198,-4.6288,-4.6289,-4.6289,-4.6289,-4.6289,-4.6289,-4.6289,-4.6289,-4.6289,-4.6289,-4.6289,-4.6289,-4.6289,-4.6289,-4.6289,-4.6289,-4.6289,-4.6289,-4.6289,-4.6289,-4.6289,-4.6289,-4.6289,-4.6289,-4.6289,-4.6289,-4.6289,-4.6289,-4.6289,-4.6289,-4.6289,-4.6289,-4.6289,-4.6289,-4.6289,-4.6289,-4.6289,-4.6289,-4.6289,-4.6289,-4.6016,-4.5859,0.0,0.0,0.0,-5.2247,-5.315,-5.4282,-5.6379,-5.6214,-5.5857,-5.6753,-5.6252,-5.5665,-5.5703,-5.5067,-5.45,-5.4484,-5.3444,-5.2215,-5.0993,-5.0141,-4.9317,-4.8453,-4.8306,-4.8306,-4.8306,-4.8639,-4.9059,-4.9445,-4.9859,-5.023,-5.0634,-5.0625,-5.0742,-5.1006,-5.0445,-5.0547,-5.1406,-5.1406,-5.1406,-5.1406,-5.1406,-5.1406,-5.1406,-5.1406,-5.1406,-5.1406,-5.1406,-5.1406,-5.1367,-5.1367,-5.1367,-5.1289,-5.033,-4.9874,-4.9494,-4.7765,-4.6986,-4.6767,-4.6056,-4.577,-4.577,-4.577,-4.5815,-4.5783,-4.5783,-4.5859,-4.5948,-4.6072,-4.6199,-4.6289,-4.6289,-4.6289,-4.6289,-4.6289,-4.6289,-4.6289,-4.6289,-4.6289,-4.6289,-4.6289,-4.6289,-4.6289,-4.6289,-4.6289,-4.6289,-4.6289,-4.6289,-4.6289,-4.6289,-4.6289,-4.6289,-4.6289,-4.6289,-4.6289,-4.6289,-4.6289,-4.6289,-4.6289,-4.6289,-4.6289,-4.6289,-4.6289,-4.6289,-4.6289,-4.6289,-4.6289,-4.6289,-4.6289,-4.6289,-4.6289,-4.543,-4.5039,-4.9116,0.0,0.0,0.0,0.0,0.0,-5.3182,-5.3626,-5.4126,-5.5011,-5.5011,-5.5011,-5.5588,-5.5262,-5.4833,-5.4532,-5.3665,-5.2692,-5.1777,-5.0986,-5.0141,-4.9334,-4.8673,-4.8306,-4.8306,-4.8639,-4.8928,-4.9059,-4.9445,-4.97,-4.9846,-4.9106,-4.8857,-4.9196,-4.9236,-4.9961,-5.1406,-5.1406,-5.1406,-5.1406,-5.1406,-5.1406,-5.1406,-5.1406,-5.1406,-5.1406,-5.1406,-5.1055,-5.0547,-5.0547,-5.0466,-5.0291,-4.9419,-4.8549,-4.7804,-4.7295,-4.6607,-4.5941,-4.574,-4.5648,-4.5648,-4.5648,-4.5711,-4.5783,-4.5783,-4.5925,-4.6067,-4.6084,-4.6199,-4.6289,-4.6289,-4.6289,-4.6289,-4.6289,-4.6289,-4.6289,-4.6289,-4.6289,-4.6289,-4.6289,-4.6289,-4.6289,-4.6289,-4.6289,-4.6289,-4.6289,-4.6289,-4.6289,-4.6289,-4.6289,-4.6289,-4.6289,-4.6289,-4.6289,-4.6289,-4.6289,-4.6289,-4.6289,-4.6289,-4.6289,-4.6289,-4.6289,-4.6289,-4.6289,-4.6289,-4.6289,-4.6289,-4.6289,-4.6289,-4.6289,-4.6055,-4.5937,-4.9394,-5.0048,-5.0789,-5.1125,0.0,0.0,-5.2192,-5.2279,-5.2587,-5.4164,-5.4203,-5.4203,-5.5049,-5.4571,-5.402,-5.3965,-5.3366,-5.2679,-5.2091,-5.161,-5.0875,-4.9757,-4.915,-4.8769,-4.8569,-4.8895,-4.9155,-4.9155,-4.9518,-4.9728,-4.9728,-4.8923,-4.8787,-4.9542,-4.951,-5.0078,-5.1406,-5.1406,-5.1406,-5.1406,-5.1406,-5.1406,-5.1406,-5.1406,-5.1406,-5.1406,-5.1406,-5.0937,-5.0156,-4.9805,-4.9564,-4.9371,-4.8446,-4.7864,-4.7526,-4.6752,-4.6328,-4.6086,-4.5748,-4.5594,-4.5594,-4.5594,-4.5704,-4.5796,-4.5825,-4.5948,-4.6095,-4.6153,-4.6246,-4.6289,-4.6289,-4.6289,-4.6289,-4.6289,-4.6289,-4.6289,-4.6289,-4.6289,-4.6289,-4.6289,-4.6289,-4.6289,-4.6289,-4.6289,-4.6289,-4.6289,-4.6289,-4.6289,-4.6289,-4.6289,-4.6289,-4.6289,-4.6289,-4.6289,-4.6289,-4.6289,-4.6289,-4.6289,-4.6289,-4.6289,-4.6289,-4.6289,-4.6289,-4.6289,-4.6289,-4.6289,-4.6289,-4.6289,-4.6094,-4.5781,-4.6133,-4.6094,-4.9394,-5.0048,-5.0856,-5.1471,-5.0587,0.0,-5.2164,-5.1625,-5.1327,-5.3626,-5.3549,-5.3318,-5.4203,-5.3445,-5.2753,-5.3021,-5.2789,-5.2475,-5.2169,-5.205,-5.1483,-5.0051,-4.9853,-4.9658,-4.9216,-4.9527,-4.9701,-4.9581,-4.979,-4.9898,-4.9898,-4.9393,-4.9705,-5.0933,-5.0445,-5.0586,-5.1406,-5.1406,-5.1406,-5.1406,-5.1406,-5.1406,-5.1406,-5.1328,-5.1289,-5.125,-5.1172,-5.0664,-4.9844,-4.9062,-4.8661,-4.8421,-4.7447,-4.7428,-4.7826,-4.6172,-4.6086,-4.6624,-4.5864,-4.5594,-4.5594,-4.562,-4.5696,-4.584,-4.5905,-4.6005,-4.6147,-4.6288,-4.6289,-4.6289,-4.6289,-4.6289,-4.6289,-4.6289,-4.6289,-4.6289,-4.6289,-4.6289,-4.6289,-4.6289,-4.6289,-4.6289,-4.6289,-4.6289,-4.6289,-4.6289,-4.6289,-4.6289,-4.6289,-4.6289,-4.6289,-4.6289,-4.6289,-4.6289,-4.6289,-4.6289,-4.6289,-4.6289,-4.6289,-4.6289,-4.6289,-4.6289,-4.6289,-4.6289,-4.6289,-4.6289,-4.6289,-4.6289,-4.5898,-4.5156,-4.5937,-4.5898,-4.9394,-5.0048,-5.0558,-5.001,-5.0164,0.0,-4.9317,-4.9933,-5.0827,-5.1327,-5.1818,-5.2423,-5.328,-5.3266,-5.29,-5.234,-5.2693,-5.3058,-5.2982,-5.2417,-5.1867,-5.1573,-5.123,-5.1005,-5.0907,-5.1271,-5.1117,-5.0144,-4.9168,-4.8634,-4.8579,-4.8652,-4.9135,-5.0048,-5.0134,-5.0586,-5.1406,-5.1406,-5.1406,-5.1406,-5.1406,-5.1406,-5.1367,-5.0742,-5.043,-5.0391,-4.9687,-4.8906,-4.8086,-4.7799,-4.7596,-4.74,-4.6515,-4.6156,-4.6078,-4.5727,-4.571,-4.5825,-4.5671,-4.5594,-4.562,-4.5718,-4.5807,-4.5909,-4.6008,-4.6149,-4.6288,-4.6289,-4.6289,-4.6289,-4.6289,-4.6289,-4.6289,-4.6289,-4.6289,-4.6289,-4.6289,-4.6289,-4.6289,-4.6289,-4.6289,-4.6289,-4.6289,-4.6289,-4.6289,-4.6289,-4.6289,-4.6289,-4.6289,-4.6289,-4.6289,-4.6289,-4.6289,-4.6289,-4.6289,-4.6289,-4.6289,-4.6289,-4.6289,-4.6289,-4.6289,-4.6289,-4.6289,-4.6289,-4.6289,-4.6289,-4.6289,-4.6289,-4.6211,-4.6055,-4.6211,-4.6211,-5.0164,-5.0366,-5.0596,-5.0164,-4.9702,0.0,0.0,-4.8779,-4.9163,-5.0442,-5.0317,-5.0394,-5.1702,-5.1241,-5.0659,-5.07,-5.1043,-5.1457,-5.1936,-5.2344,-5.252,-5.2321,-5.2104,-5.1993,-5.1979,-5.2009,-5.15,-5.0216,-4.9399,-4.8949,-4.8969,-4.916,-4.9614,-5.0478,-5.0691,-5.0976,-5.1406,-5.1406,-5.1406,-5.1406,-5.1406,-5.1406,-5.1367,-5.0586,-5.0195,-5.0156,-4.9297,-4.8358,-4.7489,-4.743,-4.7041,-4.6452,-4.6019,-4.575,-4.5594,-4.5594,-4.5594,-4.5612,-4.568,-4.5719,-4.5711,-4.5813,-4.5909,-4.6005,-4.608,-4.6199,-4.6289,-4.6289,-4.6289,-4.6289,-4.6289,-4.6289,-4.6289,-4.6289,-4.6289,-4.6289,-4.6289,-4.6289,-4.6289,-4.6289,-4.6289,-4.6289,-4.6289,-4.6289,-4.6289,-4.6289,-4.6289,-4.6289,-4.6289,-4.6289,-4.6289,-4.6289,-4.6289,-4.6289,-4.6289,-4.6289,-4.6289,-4.6289,-4.6289,-4.6289,-4.6289,-4.6289,-4.6289,-4.6289,-4.6289,-4.6289,-4.6289,-4.6289,-4.6289,-4.6289,-4.6289,-4.6289,-5.0933,-5.0712,-5.0635,-5.0289,-4.9279,-4.8394,0.0,0.0,0.0,-4.9586,-4.8971,-4.8548,-4.9933,-4.9048,-4.8322,-4.9046,-4.9294,-4.968,-5.0463,-5.1875,-5.2759,-5.2622,-5.2673,-5.279,-5.2954,-5.2317,-5.1469,-5.0543,-4.9843,-4.9586,-4.9898,-4.9987,-5.0368,-5.1157,-5.1322,-5.1406,-5.1406,-5.1406,-5.1328,-5.1172,-5.1328,-5.1211,-5.0898,-5.0234,-4.9844,-4.9648,-4.8749,-4.7919,-4.7142,-4.7117,-4.6584,-4.5783,-4.5815,-4.5761,-4.5654,-4.5654,-4.5648,-4.5658,-4.5782,-4.5803,-4.5819,-4.5914,-4.6014,-4.6144,-4.6144,-4.6203,-4.6289,-4.6289,-4.6289,-4.6289,-4.6289,-4.6289,-4.6289,-4.6289,-4.6289,-4.6289,-4.6289,-4.6289,-4.6289,-4.6289,-4.6289,-4.6289,-4.6289,-4.6289,-4.6289,-4.6289,-4.6289,-4.6289,-4.6289,-4.6289,-4.6289,-4.6289,-4.6289,-4.6289,-4.6289,-4.6289,-4.6289,-4.6289,-4.6289,-4.6289,-4.6289,-4.6289,-4.6289,-4.6289,-4.6289,-4.6289,-4.6289,-4.6289,-4.6289,-4.6289,-4.6289,-4.6289,-5.0933,-5.0712,-5.0327,-4.8779,-4.8817,-4.8702,-4.6518,0.0,-4.7855,-4.7432,0.0,-4.8163,-4.8355,0.0,0.0,-4.8318,-4.8932,-4.9455,-4.9709,-5.0749,-5.1768,-5.251,-5.2911,-5.345,-5.4207,-5.2573,-5.1564,-5.1788,-5.0028,-4.9502,-5.0685,-5.0538,-5.0685,-5.1199,-5.1322,-5.1406,-5.1406,-5.1406,-5.1055,-5.0351,-5.1055,-5.0625,-4.918,-4.9101,-4.8633,-4.7851,-4.6857,-4.6368,-4.6238,-4.6061,-4.5893,-4.5796,-4.5857,-4.5853,-4.5789,-4.5789,-4.5807,-4.5862,-4.5828,-4.5836,-4.5918,-4.6056,-4.6153,-4.6288,-4.6288,-4.6289,-4.6289,-4.6289,-4.6289,-4.6289,-4.6289,-4.6289,-4.6289,-4.6289,-4.6289,-4.6289,-4.6289,-4.6289,-4.6289,-4.6289,-4.6289,-4.6289,-4.6289,-4.6289,-4.6289,-4.6289,-4.6289,-4.6289,-4.6289,-4.6289,-4.6289,-4.6289,-4.6289,-4.6289,-4.6289,-4.6289,-4.6289,-4.6289,-4.6289,-4.6289,-4.6289,-4.6289,-4.6289,-4.6289,-4.6289,-4.6289,-4.6289,-4.6289,-4.6289,-4.6289,-4.6289,-4.6289,-5.1059,-5.089,-5.0639,-4.9289,-4.8871,-4.8337,-4.6737,-4.6509,-4.6701,-4.6855,0.0,0.0,0.0,0.0,0.0,0.0,-4.8359,-4.8928,-4.8541,-4.9094,-5.0193,-5.2043,-5.2391,-5.2746,-5.3348,-5.2597,-5.1862,-5.132,-5.0231,-4.983,-5.0281,-5.0413,-5.0747,-5.1317,-5.1366,-5.1406,-5.1406,-5.1406,-5.1211,-5.0898,-5.0781,-5.0351,-4.9609,-4.8594,-4.7969,-4.7539,-4.6541,-4.6067,-4.5974,-4.5836,-4.5754,-4.5688,-4.5841,-4.5841,-4.579,-4.5847,-4.5877,-4.5923,-4.5939,-4.5974,-4.6059,-4.6155,-4.6248,-4.6289,-4.6289,-4.6289,-4.6289,-4.6289,-4.6289,-4.6289,-4.6289,-4.6289,-4.6289,-4.6289,-4.6289,-4.6289,-4.6289,-4.6289,-4.6289,-4.6289,-4.6289,-4.6289,-4.6289,-4.6289,-4.6289,-4.6289,-4.6289,-4.6289,-4.6289,-4.6289,-4.6289,-4.6289,-4.6289,-4.6289,-4.6289,-4.6289,-4.6289,-4.6289,-4.6289,-4.6289,-4.6289,-4.6289,-4.6289,-4.6289,-4.6289,-4.6289,-4.6289,-4.6289,-4.6289,-4.6289,-4.6289,-4.6289,-5.1192,-5.1014,-5.0786,-4.9543,-4.8766,-4.7981,-4.6793,-4.624,-4.6124,-4.6778,-4.6586,0.0,0.0,0.0,-4.7279,-4.7453,0.0,-4.8403,-4.8225,-4.8106,-4.8875,-5.1211,-5.1805,-5.2065,-5.2265,-5.1991,-5.1547,-5.0983,-5.03,-5.0046,-5.0307,-5.0558,-5.087,-5.1323,-5.1367,-5.1406,-5.1406,-5.1406,-5.1289,-5.1055,-5.0469,-4.9961,-4.9453,-4.8164,-4.7461,-4.7187,-4.637,-4.5988,-4.5909,-4.5803,-4.5696,-4.5629,-4.5807,-4.5831,-4.583,-4.5923,-4.5981,-4.6008,-4.608,-4.6138,-4.6153,-4.6288,-4.6289,-4.6289,-4.6289,-4.6289,-4.6289,-4.6289,-4.6289,-4.6289,-4.6289,-4.6289,-4.6289,-4.6289,-4.6289,-4.6289,-4.6289,-4.6289,-4.6289,-4.6289,-4.6289,-4.6289,-4.6289,-4.6289,-4.6289,-4.6289,-4.6289,-4.6289,-4.6289,-4.6289,-4.6289,-4.6289,-4.6289,-4.6289,-4.6289,-4.6289,-4.6289,-4.6289,-4.6289,-4.6289,-4.6289,-4.6289,-4.6289,-4.6289,-4.6289,-4.6289,-4.6289,-4.6289,-4.6289,-4.6289,-4.6289,-4.6289,-5.1317,-5.1089,-5.0675,-4.8813,-4.8301,-4.7826,-4.6031,-4.6278,-4.6885,-4.6885,-4.7509,-4.8048,-4.8048,-4.8048,-4.8221,-4.8686,-4.8055,0.0,0.0,-4.8326,-4.8157,-4.9935,-5.1244,-5.1839,-5.1481,-5.0379,-5.0155,-5.121,-5.0209,-5.006,-5.1373,-5.1217,-5.1109,-5.1204,-5.1323,-5.1406,-5.1406,-5.1406,-5.1016,-5.0234,-5.0195,-4.9336,-4.7695,-4.7617,-4.7148,-4.6328,-4.605,-4.5884,-4.5861,-4.5703,-4.5603,-4.562,-4.5754,-4.5842,-4.5927,-4.6022,-4.6194,-4.6288,-4.6145,-4.6196,-4.6289,-4.6289,-4.6289,-4.6289,-4.6289,-4.6289,-4.6289,-4.6289,-4.6289,-4.6289,-4.6289,-4.6289,-4.6289,-4.6289,-4.6289,-4.6289,-4.6289,-4.6289,-4.6289,-4.6289,-4.6289,-4.6289,-4.6289,-4.6289,-4.6289,-4.6289,-4.6289,-4.6289,-4.6289,-4.6289,-4.6289,-4.6289,-4.6289,-4.6289,-4.6289,-4.6289,-4.6289,-4.6289,-4.6289,-4.6289,-4.6289,-4.6289,-4.6289,-4.6289,-4.6289,-4.6289,-4.6289,-4.6289,-4.6289,-4.6289,-4.6289,-4.6289,-5.1255,-5.1238,-5.0982,-4.9744,-4.8978,-4.821,-4.6957,-4.6878,-4.7075,-4.6977,-4.765,-4.8191,-4.8114,-4.8586,-4.8922,-4.8812,-4.9242,-4.9275,0.0,-4.7559,-4.7526,-4.8717,-4.9712,-5.0252,-5.0213,-4.9818,-4.9963,-5.0892,-5.0584,-5.0585,-5.1085,-5.1617,-5.1689,-5.1201,-5.1322,-5.1406,-5.1406,-5.1406,-5.1016,-5.0195,-4.9609,-4.8711,-4.7578,-4.6992,-4.6562,-4.6289,-4.6008,-4.5879,-4.5861,-4.5696,-4.5594,-4.5612,-4.5747,-4.5815,-4.5853,-4.6047,-4.6196,-4.6289,-4.6247,-4.6248,-4.6289,-4.6289,-4.6289,-4.6289,-4.6289,-4.6289,-4.6289,-4.6289,-4.6289,-4.6289,-4.6289,-4.6289,-4.6289,-4.6289,-4.6289,-4.6289,-4.6289,-4.6289,-4.6289,-4.6289,-4.6289,-4.6289,-4.6289,-4.6289,-4.6289,-4.6289,-4.6289,-4.6289,-4.6289,-4.6289,-4.6289,-4.6289,-4.6289,-4.6289,-4.6289,-4.6289,-4.6289,-4.6289,-4.6289,-4.6289,-4.6289,-4.6289,-4.6289,-4.6289,-4.6289,-4.6289,-4.6289,-4.6289,-4.6289,-4.6289,-4.6289,-4.6289,-5.1275,-5.1323,-5.1171,-5.0246,-4.9569,-4.8889,-4.7903,-4.7916,-4.8083,-4.8021,-4.8702,-4.9233,-4.9101,-4.9569,-4.9835,-4.9516,-4.99,-4.9567,0.0,-4.7587,-4.7844,-4.7921,-4.8565,-4.909,-4.9326,-4.9086,-4.9326,-5.0268,-5.0469,-5.0681,-5.1027,-5.2129,-5.2411,-5.1626,-5.1786,-5.1719,-5.1406,-5.1406,-5.1133,-5.0625,-4.9453,-4.8594,-4.8008,-4.6836,-4.6289,-4.6289,-4.6075,-4.5955,-4.5905,-4.5729,-4.5624,-4.5612,-4.5712,-4.5761,-4.5815,-4.5959,-4.6095,-4.6245,-4.6289,-4.6289,-4.6289,-4.6289,-4.6289,-4.6289,-4.6289,-4.6289,-4.6289,-4.6289,-4.6289,-4.6289,-4.6289,-4.6289,-4.6289,-4.6289,-4.6289,-4.6289,-4.6289,-4.6289,-4.6289,-4.6289,-4.6289,-4.6289,-4.6289,-4.6289,-4.6289,-4.6289,-4.6289,-4.6289,-4.6289,-4.6289,-4.6289,-4.6289,-4.6289,-4.6289,-4.6289,-4.6289,-4.6289,-4.6289,-4.6289,-4.6289,-4.6289,-4.6289,-4.6289,-4.6289,-4.6289,-4.6289,-4.6289,-4.6289,-4.6289,-4.6289,-4.6289,-4.6289]},{"header":{"parameterUnit":"m.s-1","parameterCategory":1,"la1":30.6,"la2":29.2853,"lo1":-89.7004,"lo2":-87.6739,"dy":0.0162,"dx":0.0183,"nx":112,"ny":82,"refTime":"2025-05-16T00:00:00:Z","depth":0,"parameterNumber":3,"parameterNumberName":"V-component_of_WINDS"},"data":[0.0,0.0,0.0,0.0,0.0,0.0,0.0,0.0,0.0,0.0,0.0,0.0,0.0,0.0,0.0,0.0,0.0,0.0,0.0,0.0,0.0,0.0,0.0,0.0,0.0,0.0,0.0,0.0,0.0,0.0,0.0,0.0,0.0,0.0,0.0,0.0,0.0,0.0,0.0,0.0,0.0,0.0,0.0,0.0,0.0,0.0,0.0,0.0,0.0,0.0,0.0,0.0,0.0,0.0,0.0,0.0,0.0,0.0,0.0,0.0,0.0,0.0,0.0,0.0,0.0,0.0,0.0,0.0,0.0,0.0,0.0,0.0,0.0,0.0,0.0,0.0,0.0,0.0,0.0,0.0,0.0,0.0,0.0,0.0,0.0,0.0,0.0,0.0,0.0,0.0,-0.8322,-0.506,-0.373,-0.3842,-0.5654,-0.7416,-1.0103,-1.3981,0.0,0.0,0.0,0.0,0.0,0.0,0.0,0.0,0.0,0.0,0.0,0.0,0.0,0.0,0.0,0.0,0.0,0.0,0.0,0.0,0.0,0.0,0.0,0.0,0.0,0.0,0.0,0.0,0.0,0.0,0.0,0.0,0.0,0.0,0.0,0.0,0.0,0.0,0.0,0.0,0.0,0.0,0.0,0.0,0.0,0.0,0.0,0.0,0.0,0.0,0.0,0.0,0.0,0.0,0.0,0.0,0.0,0.0,0.0,0.0,0.0,0.0,0.0,0.0,0.0,0.0,0.0,0.0,0.0,0.0,0.0,0.0,0.0,0.0,0.0,0.0,0.0,0.0,0.0,0.0,0.0,0.0,0.0,0.0,0.0,0.0,0.0,0.0,0.0,0.0,0.0,0.0,0.0,0.0,0.0,0.0,0.0,0.0,0.0,0.0,0.0,0.0,0.0,0.0,-0.6098,-0.3324,-0.4219,-0.57,-0.7455,-0.925,-1.1531,-1.4375,0.0,0.0,0.0,0.0,0.0,0.0,0.0,0.0,0.0,0.0,0.0,0.0,0.0,0.0,0.0,0.0,0.0,0.0,0.0,0.0,0.0,0.0,0.0,0.0,0.0,0.0,0.0,0.0,0.0,0.0,0.0,0.0,0.0,0.0,0.0,0.0,0.0,0.0,0.0,0.0,0.0,0.0,0.0,0.0,0.0,0.0,0.0,0.0,0.0,0.0,0.0,0.0,0.0,0.0,0.0,0.0,0.0,0.0,0.0,0.0,0.0,0.0,0.0,0.0,0.0,0.0,0.0,0.0,0.0,0.0,0.0,0.0,0.0,0.0,0.0,0.0,0.0,0.0,0.0,0.0,0.0,0.0,0.0,0.0,0.0,0.0,0.0,0.0,0.0,0.0,0.0,0.0,0.0,0.0,0.0,0.0,0.0,0.0,0.0,0.0,0.0,0.0,0.0,-0.765,-0.4912,-0.2939,-0.4292,-0.6097,-0.7831,-0.9643,-1.1774,-1.4258,-1.4301,0.0,0.0,0.0,0.0,0.0,0.0,0.0,0.0,0.0,0.0,0.0,0.0,0.0,0.0,0.0,0.0,0.0,0.0,0.0,0.0,0.0,0.0,0.0,0.0,0.0,0.0,0.0,0.0,0.0,0.0,0.0,0.0,0.0,0.0,0.0,0.0,0.0,0.0,0.0,0.0,0.0,0.0,0.0,0.0,0.0,0.0,0.0,0.0,0.0,0.0,0.0,0.0,0.0,0.0,0.0,0.0,0.0,0.0,0.0,0.0,0.0,0.0,0.0,0.0,0.0,0.0,0.0,0.0,0.0,0.0,0.0,0.0,0.0,0.0,0.0,0.0,0.0,0.0,0.0,0.0,0.0,0.0,0.0,0.0,0.0,0.0,0.0,0.0,0.0,0.0,0.0,0.0,0.0,0.0,0.0,0.0,0.0,0.0,0.0,0.0,0.0,0.0,-0.6345,-0.5229,-0.408,-0.5162,-0.6698,-0.8501,-0.9852,-1.166,-1.4052,-1.4143,0.0,0.0,0.0,0.0,0.0,0.0,0.0,0.0,0.0,0.0,0.0,0.0,0.0,0.0,0.0,0.0,0.0,0.0,0.0,0.0,0.0,0.0,0.0,0.0,0.0,0.0,0.0,0.0,0.0,0.0,0.0,0.0,0.0,0.0,0.0,0.0,0.0,0.0,0.0,0.0,0.0,0.0,0.0,0.0,0.0,0.0,0.0,0.0,0.0,0.0,0.0,0.0,0.0,0.0,0.0,0.0,0.0,0.0,0.0,0.0,0.0,0.0,0.0,0.0,0.0,0.0,0.0,0.0,0.0,0.0,0.0,0.0,0.0,0.0,0.0,0.0,0.0,0.0,0.0,0.0,0.0,0.0,0.0,0.0,0.0,0.0,0.0,0.0,0.0,0.0,0.0,0.0,0.0,0.0,0.0,0.0,0.0,0.0,0.0,0.0,0.0,0.0,-0.7493,-0.7744,-0.7626,-0.7764,-0.8568,-1.0386,-1.0402,-1.1416,-1.4033,-1.3915,0.0,0.0,0.0,0.0,0.0,0.0,0.0,0.0,0.0,0.0,0.0,0.0,0.0,0.0,0.0,0.0,0.0,0.0,0.0,0.0,0.0,0.0,0.0,0.0,0.0,0.0,0.0,0.0,0.0,0.0,0.0,0.0,0.0,0.0,0.0,0.0,0.0,0.0,0.0,0.0,0.0,0.0,0.0,0.0,0.0,0.0,0.0,0.0,0.0,0.0,0.0,0.0,0.0,0.0,0.0,0.0,0.0,0.0,0.0,0.0,0.0,0.0,0.0,0.0,0.0,0.0,0.0,0.0,0.0,0.0,0.0,0.0,0.0,0.0,0.0,0.0,0.0,0.0,0.0,0.0,0.0,0.0,0.0,0.0,0.0,0.0,0.0,0.0,0.0,0.0,0.0,0.0,0.0,0.0,0.0,0.0,0.0,0.0,0.0,0.0,0.0,0.0,-0.7506,-0.7812,-0.7949,-0.803,-0.8701,-1.0518,-1.0527,-1.1492,-1.4043,0.0,0.0,0.0,0.0,0.0,0.0,0.0,0.0,0.0,0.0,0.0,0.0,0.0,0.0,0.0,0.0,0.0,0.0,0.0,0.0,0.0,0.0,0.0,0.0,0.0,0.0,0.0,0.0,0.0,0.0,0.0,0.0,0.0,0.0,0.0,0.0,0.0,0.0,0.0,0.0,0.0,0.0,0.0,0.0,0.0,0.0,0.0,0.0,0.0,0.0,0.0,0.0,0.0,0.0,0.0,0.0,0.0,0.0,0.0,0.0,0.0,0.0,0.0,0.0,0.0,0.0,0.0,0.0,0.0,0.0,0.0,0.0,0.0,0.0,0.0,0.0,0.0,0.0,0.0,0.0,0.0,0.0,0.0,0.0,0.0,0.0,0.0,0.0,0.0,0.0,0.0,0.0,0.0,0.0,0.0,0.0,0.0,0.0,0.0,0.0,0.0,0.0,-0.8383,-0.83,-0.8654,-0.8817,-0.88,-0.9312,-1.0518,-1.0378,-1.1286,-1.3829,0.0,0.0,0.0,0.0,0.0,0.0,0.0,0.0,0.0,0.0,0.0,0.0,0.0,0.0,0.0,0.0,0.0,0.0,0.0,0.0,0.0,0.0,0.0,0.0,0.0,0.0,0.0,0.0,0.0,0.0,0.0,0.0,0.0,0.0,0.0,0.0,0.0,0.0,0.0,0.0,0.0,0.0,0.0,0.0,0.0,0.0,0.0,0.0,0.0,0.0,0.0,0.0,0.0,0.0,0.0,0.0,0.0,0.0,0.0,0.0,0.0,0.0,0.0,0.0,0.0,0.0,0.0,0.0,0.0,0.0,0.0,0.0,0.0,0.0,0.0,0.0,0.0,0.0,0.0,0.0,0.0,0.0,0.0,0.0,0.0,0.0,0.0,0.0,0.0,0.0,0.0,0.0,0.0,0.0,0.0,0.0,0.0,0.0,0.0,0.0,0.0,0.0,-0.9954,-1.0256,-1.0717,-1.0717,-1.0582,-1.0487,-1.0487,-0.9951,-1.0707,0.0,0.0,0.0,0.0,0.0,0.0,0.0,0.0,0.0,0.0,0.0,0.0,0.0,0.0,0.0,0.0,0.0,0.0,0.0,0.0,0.0,0.0,0.0,0.0,0.0,0.0,0.0,0.0,0.0,0.0,0.0,0.0,0.0,0.0,0.0,0.0,0.0,0.0,0.0,0.0,0.0,0.0,0.0,0.0,0.0,0.0,0.0,0.0,0.0,0.0,0.0,0.0,0.0,0.0,0.0,0.0,0.0,0.0,0.0,0.0,0.0,0.0,0.0,0.0,0.0,0.0,0.0,0.0,0.0,0.0,0.0,0.0,0.0,0.0,0.0,0.0,0.0,0.0,0.0,0.0,0.0,0.0,0.0,0.0,0.0,0.0,0.0,0.0,0.0,0.0,0.0,0.0,0.0,0.0,0.0,0.0,0.0,0.0,0.0,0.0,0.0,0.0,0.0,-0.9792,-1.0012,-1.0412,-1.0412,-1.0371,-1.0344,-1.0344,-0.9985,-1.0413,-1.202,0.0,0.0,0.0,0.0,0.0,0.0,0.0,0.0,0.0,0.0,0.0,0.0,0.0,0.0,0.0,0.0,0.0,0.0,0.0,0.0,0.0,0.0,0.0,0.0,0.0,0.0,0.0,0.0,0.0,0.0,0.0,0.0,0.0,0.0,0.0,0.0,0.0,0.0,0.0,0.0,0.0,0.0,0.0,0.0,0.0,0.0,0.0,0.0,0.0,0.0,0.0,0.0,0.0,0.0,0.0,0.0,0.0,0.0,0.0,0.0,0.0,0.0,0.0,0.0,0.0,0.0,0.0,0.0,0.0,0.0,0.0,0.0,0.0,0.0,0.0,0.0,0.0,0.0,0.0,0.0,0.0,0.0,0.0,0.0,0.0,0.0,0.0,0.0,0.0,0.0,0.0,0.0,0.0,0.0,0.0,0.0,0.0,0.0,0.0,0.0,0.0,0.0,-0.9688,-0.9869,-1.0283,-1.0283,-1.0222,-1.0161,-1.01,-0.9822,-1.0069,-1.1131,0.0,0.0,0.0,0.0,0.0,0.0,0.0,0.0,0.0,0.0,0.0,0.0,0.0,0.0,0.0,0.0,0.0,0.0,0.0,0.0,0.0,0.0,0.0,0.0,0.0,0.0,0.0,0.0,0.0,0.0,0.0,0.0,0.0,0.0,0.0,0.0,0.0,0.0,0.0,0.0,0.0,0.0,0.0,0.0,0.0,0.0,0.0,0.0,0.0,0.0,0.0,0.0,0.0,0.0,0.0,0.0,0.0,0.0,0.0,0.0,0.0,0.0,0.0,0.0,0.0,0.0,0.0,0.0,0.0,0.0,0.0,0.0,0.0,0.0,0.0,0.0,0.0,0.0,0.0,0.0,0.0,0.0,0.0,0.0,0.0,0.0,0.0,0.0,0.0,0.0,0.0,0.0,0.0,0.0,0.0,0.0,0.0,0.0,0.0,0.0,0.0,0.0,-0.9518,-0.9754,-1.0202,-1.0215,-1.008,-0.9869,-0.9795,-0.9523,-0.9681,-1.0498,0.0,0.0,0.0,0.0,0.0,0.0,0.0,0.0,0.0,0.0,0.0,0.0,0.0,0.0,0.0,0.0,0.0,0.0,0.0,0.0,0.0,0.0,0.0,0.0,0.0,0.0,0.0,0.0,0.0,0.0,0.0,0.0,0.0,0.0,0.0,0.0,0.0,0.0,0.0,0.0,0.0,0.0,0.0,0.0,0.0,0.0,0.0,0.0,0.0,0.0,0.0,0.0,0.0,0.0,0.0,0.0,0.0,0.0,0.0,0.0,-0.5964,-0.6879,0.0,0.0,0.0,0.0,0.0,0.0,0.0,0.0,0.0,0.0,0.0,0.0,0.0,0.0,0.0,0.0,0.0,0.0,0.0,0.0,0.0,0.0,0.0,0.0,0.0,0.0,0.0,0.0,0.0,0.0,0.0,0.0,0.0,0.0,0.0,0.0,0.0,0.0,0.0,0.0,-0.93,-0.9327,-0.9618,-0.9741,-0.9618,-0.951,-0.9476,-0.9306,-0.923,-0.9162,-1.0181,0.0,0.0,0.0,0.0,0.0,0.0,0.0,0.0,0.0,0.0,0.0,0.0,0.0,0.0,0.0,0.0,0.0,0.0,0.0,0.0,0.0,0.0,0.0,0.0,0.0,0.0,0.0,0.0,0.0,0.0,0.0,0.0,0.0,0.0,0.0,0.0,0.0,0.0,0.0,0.0,0.0,0.0,0.0,0.0,0.0,0.0,0.0,0.0,0.0,0.0,0.0,0.0,0.0,0.0,0.0,0.0,0.0,0.0,0.0,-0.4204,-0.5367,0.0,0.0,0.0,0.0,0.0,0.0,0.0,0.0,0.0,0.0,0.0,0.0,0.0,0.0,0.0,0.0,0.0,0.0,0.0,0.0,0.0,0.0,0.0,0.0,0.0,0.0,0.0,0.0,0.0,0.0,0.0,0.0,0.0,0.0,0.0,0.0,0.0,0.0,0.0,0.0,-0.9036,-0.915,-0.9408,-0.949,-0.9429,-0.9354,-0.9337,-0.9137,-0.892,-0.8621,-0.9688,0.0,0.0,0.0,0.0,0.0,0.0,0.0,0.0,0.0,0.0,0.0,0.0,0.0,0.0,0.0,0.0,0.0,0.0,0.0,0.0,0.0,0.0,0.0,0.0,0.0,0.0,0.0,0.0,0.0,0.0,0.0,0.0,0.0,0.0,0.0,0.0,0.0,0.0,0.0,0.0,0.0,0.0,0.0,0.0,0.0,0.0,0.0,0.0,0.0,0.0,0.0,0.0,0.0,-0.2072,-0.1363,0.0,0.0,0.0,-0.013,-0.2851,-0.4193,-0.4619,-0.5954,0.0,0.0,0.0,0.0,0.0,0.0,0.0,0.0,0.0,0.0,0.0,0.0,0.0,0.0,0.0,0.0,0.0,0.0,0.0,0.0,0.0,0.0,-0.9323,-0.9323,-0.9347,-0.9652,-1.0327,0.0,0.0,0.0,0.0,0.0,0.0,0.0,0.0,0.0,0.0,0.0,-0.8864,-0.9055,-0.9313,-0.934,-0.9293,-0.9211,-0.9146,-0.894,-0.8743,-0.8465,-0.9343,-1.038,0.0,0.0,0.0,0.0,0.0,0.0,0.0,0.0,0.0,0.0,0.0,0.0,0.0,0.0,0.0,0.0,0.0,0.0,0.0,0.0,0.0,0.0,0.0,0.0,0.0,0.0,0.0,0.0,0.0,0.0,0.0,0.0,-0.0537,-0.0067,0.0,0.0,0.0,0.0,0.0,0.0,0.0,0.0,0.0,0.0,0.0,0.0,0.0,-0.0581,-0.0323,-0.0522,-0.0525,-0.0328,-0.0333,-0.0201,0.0,0.0,0.0,0.0,-0.0468,0.0,-0.2828,-0.3079,0.0,0.0,0.0,0.0,0.0,0.0,0.0,0.0,0.0,0.0,0.0,0.0,0.0,0.0,0.0,0.0,0.0,0.0,0.0,0.0,0.0,0.0,-0.9734,-0.9734,-0.9652,-0.9582,-0.9564,-0.9369,-0.9548,-1.0665,-1.0749,-1.099,0.0,0.0,0.0,0.0,0.0,0.0,-0.885,-0.8879,-0.9042,-0.9228,-0.8954,-0.8791,-0.8771,-0.8628,-0.8472,-0.8361,-0.848,-0.9047,-1.0199,-1.0435,0.0,0.0,0.0,0.0,0.0,0.0,0.0,0.0,0.0,0.0,0.0,0.0,0.0,0.0,0.0,0.0,0.0,0.0,0.0,0.0,0.0,0.0,0.0,0.0,0.0,0.0,0.0,0.0,0.0,-0.2121,0.0,0.0,0.0,-0.0334,0.0,0.0,0.0,0.0,0.0,0.0,0.0,0.0,0.0,0.0,0.0,0.0,0.0,0.0,0.0,0.0,0.0,0.0,0.0,0.0,0.0,0.0,0.0,-0.0401,-0.1186,-0.2137,-0.2945,-0.3614,0.0,0.0,0.0,0.0,-0.6153,-0.803,-0.7373,-0.8241,-0.9612,-0.951,0.0,0.0,0.0,0.0,0.0,0.0,0.0,-0.9415,-0.9571,-0.9652,-0.972,-0.9802,-0.9713,-0.9591,-0.9523,-0.9218,-0.9071,-0.9492,-0.9578,-0.9633,-0.9941,-1.0028,0.0,0.0,0.0,-0.9159,-0.8743,-0.8845,-0.8933,-0.8906,-0.8791,-0.8676,-0.8587,-0.8445,-0.8336,-0.8327,-0.8187,-0.8707,-0.9953,-1.0002,-1.0877,0.0,0.0,0.0,0.0,0.0,0.0,0.0,0.0,0.0,0.0,0.0,0.0,0.0,0.0,0.0,0.0,0.0,0.0,0.0,0.0,0.0,0.0,0.0,0.0,0.0,0.0,0.0,0.0,-0.2202,0.0,0.0,0.0,0.0,0.0,0.0,0.0,0.0,0.0,0.0,0.0,0.0,0.0,0.0,0.0,0.0,0.0,0.0,0.0,0.0,0.0,0.0,0.0,0.0,0.0,0.0,0.0,0.0,-0.0067,-0.1366,-0.1867,-0.1986,-0.3073,-0.3746,-0.4108,-0.3625,-0.4771,-0.6529,-0.6724,-0.785,-0.9236,-0.9493,-0.9503,-0.9374,-0.9042,0.0,0.0,0.0,0.0,-0.9476,-0.9625,-0.9639,-0.9639,-0.9741,-0.9659,-0.9544,-0.9503,-0.9313,-0.9146,-0.8866,-0.8886,-0.8818,-0.8445,-0.835,0.0,-0.8327,-0.8364,-0.8472,-0.8581,-0.873,-0.8777,-0.8662,-0.8621,-0.8554,-0.8438,-0.8296,-0.8214,-0.8214,-0.8106,-0.8428,-0.946,-0.9509,-1.0092,-1.1414,0.0,0.0,0.0,0.0,0.0,0.0,0.0,0.0,0.0,0.0,0.0,0.0,0.0,0.0,0.0,0.0,0.0,0.0,0.0,0.0,0.0,0.0,0.0,0.0,0.0,0.0,0.0,0.0,0.0,0.0,0.0,0.0,0.0,0.0,0.0,0.0,0.0,0.0,0.0,0.0,0.0,0.0,0.0,0.0,0.0,0.0,0.0,0.0,0.0,0.0,0.0,0.0,0.0,0.0,0.0,0.0,0.0,-0.0065,-0.0129,-0.0129,-0.0187,-0.1231,-0.2399,-0.0801,-0.2276,-0.5035,-0.5039,-0.6141,-0.7805,-0.9409,-0.9829,-0.9591,-0.9571,-0.9367,0.0,0.0,-0.9591,-0.9632,-0.9774,-0.9707,-0.9612,-0.9618,-0.9503,-0.9354,-0.9262,-0.9221,-0.9207,-0.9187,-0.9028,-0.8831,-0.8716,0.0,-0.8425,-0.834,-0.8327,-0.8333,-0.834,-0.8418,-0.8499,-0.8492,-0.837,-0.834,-0.8333,-0.814,-0.8002,-0.8002,-0.7995,-0.8038,-0.8088,-0.8088,-0.8726,-1.0043,-0.9816,0.0,0.0,0.0,0.0,0.0,0.0,0.0,0.0,0.0,0.0,0.0,0.0,0.0,0.0,0.0,0.0,0.0,0.0,0.0,0.0,0.0,0.0,0.0,0.0,0.0,0.0,0.0,0.0,0.0135,0.1009,0.0,0.0132,0.0,0.0,0.0,0.0,0.0,0.0,0.0,0.0,0.0,0.0,0.0,0.0,0.0,0.0,0.0,0.0,0.0,0.0,0.0,0.0,0.0,0.0,0.0,0.0,0.0,0.0,0.0,0.0,-0.037,-0.0802,-0.0247,-0.1417,-0.3507,-0.4548,-0.6018,-0.7673,-0.9326,-0.97,-0.9462,-0.9462,-0.932,-0.9234,-0.9344,-0.9388,-0.9476,-0.9523,-0.9503,-0.9462,-0.9462,-0.9347,-0.9275,-0.9221,-0.9083,-0.9015,-0.9015,-0.8974,-0.8804,-0.8608,-0.852,-0.8431,-0.834,-0.832,-0.8354,-0.8397,-0.8452,-0.8445,-0.8357,-0.8354,-0.8228,-0.8133,-0.8022,-0.7988,-0.7988,-0.7988,-0.7988,-0.7988,-0.7988,-0.8237,-0.8726,-0.9235,-0.9677,0.0,0.0,0.0,0.0,0.0,0.0,0.0,0.0,0.0,0.0,0.0,0.0,0.0,0.0,0.0,0.0,0.0,0.0,0.0,0.0,0.0,0.0,0.0,0.0,0.0,0.0333,0.1545,0.1009,0.1411,0.134,0.0133,0.0,0.0,0.0,0.0,0.0,0.0,0.0,0.0,0.0,0.0,0.0,0.0,0.0,0.0,0.0,0.0,0.0,0.0,0.0,0.0,0.0,0.0,0.0,0.0,0.0,0.0,-0.0063,-0.062,-0.0863,-0.0925,-0.1479,-0.2339,-0.3502,-0.5068,-0.6761,-0.8334,-0.9327,-0.9544,-0.9381,-0.9381,-0.9313,-0.9289,-0.9289,-0.9357,-0.9381,-0.9381,-0.934,-0.9364,-0.9364,-0.9191,-0.9083,-0.9083,-0.9008,-0.8865,-0.8817,-0.8804,-0.8798,-0.8594,-0.8479,-0.8377,-0.8333,-0.8228,-0.8228,-0.8323,-0.8336,-0.8296,-0.8201,-0.8194,-0.8153,-0.7995,-0.7988,-0.7988,-0.7988,-0.7988,-0.7988,-0.7988,-0.7988,-0.7988,-0.7988,-0.8612,-0.9092,-0.9388,0.0,0.0,0.0,0.0,0.0,0.0,0.0,0.0,0.0,0.0,0.0,0.0,0.0,0.0,0.0,0.0,0.0,0.0,0.0,0.0,0.0,0.0,0.0,0.0067,0.0134,0.0807,0.2417,0.1143,0.0067,0.0,0.0,0.0,0.0,0.0,0.0,0.0,0.0,0.0,0.0,0.0,0.0,0.0,0.0,0.0,0.0,0.0,0.0,0.0,0.0,0.0,0.0,0.0,0.0,0.0,0.0,0.0,-0.0185,-0.1848,-0.2524,-0.2708,-0.4303,-0.4916,-0.5147,-0.657,-0.8218,-0.9578,-0.9429,-0.9374,-0.9374,-0.9374,-0.9367,-0.9367,-0.9367,-0.9367,-0.9367,-0.9367,-0.9316,-0.92,-0.92,-0.9042,-0.8885,-0.8878,-0.8878,-0.8831,-0.873,-0.8703,-0.8696,-0.8696,-0.8459,-0.832,-0.8313,-0.8133,0.0,-0.7988,-0.7988,-0.7988,-0.7988,-0.7988,-0.7988,-0.7988,-0.7988,-0.7988,-0.7988,-0.7988,-0.7988,-0.7988,-0.7988,-0.7988,-0.7988,-0.7889,-0.8338,-0.9436,0.0,0.0,0.0,0.0,0.0,0.0,0.0,0.0,0.0,0.0,0.0,0.0,0.0,0.0,0.0,0.0,0.0,0.0,0.0,0.0,0.0,-0.0913,0.0592,0.1806,0.3084,0.3155,0.1009,0.1478,0.1411,0.0135,0.0,0.0,0.0,0.0,0.0,0.0,0.0,0.0,0.0,0.0,0.0,0.0,0.0,0.0,0.0,0.0,0.0,0.0,0.0,0.0,0.0,0.0,0.0,0.0,0.0,0.0,-0.0185,-0.1848,-0.2524,-0.2708,-0.4303,-0.5551,-0.6566,-0.6818,-0.8078,-0.9435,-0.9395,-0.9306,-0.9275,-0.9275,-0.9144,-0.9062,-0.9062,-0.9062,-0.9062,-0.9062,-0.9028,-0.8994,-0.8994,-0.8967,-0.8851,-0.8798,-0.8771,-0.873,-0.8574,-0.8465,-0.8391,-0.8391,-0.8323,-0.8235,-0.8119,-0.8015,-0.7988,-0.7988,-0.7988,-0.7988,-0.7988,-0.7988,-0.7988,-0.7988,-0.7988,-0.7988,-0.7988,-0.7988,-0.7988,-0.7988,-0.7988,-0.7988,-0.7988,-0.7889,-0.7952,0.0,0.0,0.0,0.0,0.0,0.0,0.0,0.0,0.0,0.0,0.0,0.0,0.0,0.0,0.0,0.0,0.0,0.0,0.0,0.0,0.0,0.0,0.1248,0.2719,0.3684,0.4091,0.3488,0.1411,0.1411,0.1142,0.0135,0.0,0.0,0.0,0.0,0.0,0.0,0.0,0.0,0.0,0.0,0.0,0.0,0.0,0.0,0.0,0.0,0.0,0.0,0.0,0.0,0.0,0.0,0.0,0.0,0.0,-0.0432,-0.1233,0.0,0.0,0.0,0.0,-0.735,-0.806,-0.7933,-0.8526,-0.9273,-0.9218,-0.9137,-0.9062,-0.9062,-0.9008,-0.8885,-0.8885,-0.8885,-0.8885,-0.8885,-0.8885,-0.8865,-0.8804,-0.879,-0.8804,-0.8648,-0.8615,-0.8574,-0.8425,-0.8381,0.0,-0.8187,-0.8174,-0.814,-0.8002,-0.7988,-0.7988,-0.7988,-0.7988,-0.7988,-0.7988,-0.7988,-0.7988,-0.7988,-0.7988,0.0,0.0,0.0,-0.7988,-0.7988,-0.7988,0.0,0.0,0.0,0.0,0.0,0.0,0.0,0.0,-0.9901,-0.9923,0.0,0.0,0.0,0.0,0.0,0.0,0.0,0.0,0.0,0.0,0.0,0.0,0.0,0.0,0.0,0.0,0.4176,0.5429,0.5429,0.4024,0.2887,0.2417,0.1009,0.0,0.0,0.0,0.0,0.0,0.0,0.0,0.0,0.0,0.0,0.0,0.0,0.0,0.0,0.0,0.0,0.0,0.0,0.0,0.0,0.0,0.0,0.0,0.0,0.0,0.0,0.0,-0.1108,-0.2885,-0.4536,-0.5269,-0.575,-0.8534,-0.9469,-0.9334,-0.9234,0.0,0.0,-0.8981,-0.8885,-0.8885,-0.8885,-0.8885,-0.8885,-0.8885,-0.8761,-0.8637,-0.8637,-0.8507,-0.8407,-0.844,-0.8467,-0.8481,-0.8492,-0.8459,-0.8418,-0.8275,-0.8241,-0.8201,-0.8015,-0.7988,-0.7988,-0.7988,-0.7988,-0.7988,-0.7988,-0.7988,-0.7988,-0.7988,-0.7988,0.0,-0.7988,-0.7988,-0.7988,-0.7988,-0.7988,-0.7988,-0.7988,-0.7988,-0.7988,-0.7988,-0.7988,-0.7988,-0.7988,-0.7988,-0.7988,-0.7982,-0.7773,-0.7719,0.0,0.0,0.0,0.0,0.0,0.0,0.0,0.0,0.0,0.0,0.0,0.0,0.0,0.0,0.0,-0.0066,0.3264,0.5429,0.5429,0.5095,0.3823,0.0874,0.0202,0.0,0.0,0.0,0.0,0.0,0.0,0.0,0.0,0.0,0.0,0.0,0.0,0.0,0.0,0.0,0.0,0.0,0.0,0.0,0.0,0.0,0.0,0.0,0.0,0.0,0.0,0.0,-0.1712,-0.4463,-0.6026,-0.7475,-0.8712,-0.9109,-0.9282,-0.9234,-0.9028,-0.8981,-0.8974,-0.8892,-0.8885,-0.8885,-0.8885,-0.8885,0.0,-0.8885,-0.8017,-0.7111,-0.7111,-0.6227,-0.5621,-0.6664,-0.6923,-0.7159,-0.813,-0.8361,-0.8269,-0.8113,-0.8035,-0.8022,-0.7995,-0.7988,-0.7988,-0.7988,-0.7988,-0.7988,-0.7988,-0.7988,-0.7988,-0.7988,-0.7988,-0.7988,-0.7988,-0.7988,-0.7988,-0.7988,-0.7988,-0.7988,-0.7988,-0.7988,-0.7988,-0.7988,-0.7988,-0.7988,-0.7988,-0.7988,-0.7988,-0.7988,-0.7934,-0.7921,0.0,0.0,0.0,0.0,0.0,0.0,0.0,0.0,0.0,0.0,0.0,-1.0346,-0.9407,0.0,-0.4147,-0.0599,0.3005,0.5095,0.4158,0.4827,0.4024,0.0404,0.0,0.0,0.0,0.0,0.0,0.0,0.0,0.0,0.0,0.0,0.0,0.0,0.0,0.0,0.0,0.0,0.0,0.0,0.0,0.0,0.0,0.0,0.0,0.0,0.0,0.0,-0.0122,-0.169,-0.3706,-0.5983,-0.7524,-0.8671,-0.9361,-0.9268,-0.911,-0.9035,-0.8905,-0.8885,-0.8885,-0.8885,-0.8885,-0.8885,-0.8885,-0.838,-0.7802,-0.7792,-0.6741,-0.5597,-0.5603,-0.5071,-0.4816,-0.6078,-0.638,-0.6711,-0.7877,-0.8153,-0.8133,-0.8002,-0.7988,-0.7988,-0.7988,-0.7988,-0.7988,-0.7988,-0.7988,-0.7988,-0.7988,-0.7988,-0.7988,-0.7988,-0.7988,-0.7988,-0.7988,-0.7988,-0.7988,-0.7988,-0.7988,-0.7988,-0.7988,-0.7988,-0.7988,-0.7988,-0.7988,-0.7988,-0.7988,-0.7988,-0.7988,-0.7988,-0.7988,-0.7988,0.0,0.0,0.0,0.0,0.0,0.0,0.0,-1.0194,-1.0534,-1.0534,-1.0758,-1.0428,-0.8823,-0.6918,-0.4493,-0.1142,0.2814,0.476,0.2954,0.4292,0.4024,0.0404,0.0,0.0,0.0,0.0,0.0,0.0,0.0,0.0,0.0,0.0,0.0,0.0,0.0,0.0,0.0,0.0,0.0,0.0,0.0,0.0,0.0,0.0,0.0,0.0,-0.0308,-0.0426,-0.0659,-0.3819,-0.5772,-0.6985,-0.8533,-0.9166,-0.9166,-0.9166,-0.9042,-0.8885,-0.8885,-0.8885,-0.8885,-0.8885,-0.8885,-0.883,-0.8546,-0.7636,-0.6649,-0.634,-0.5202,-0.4032,-0.4027,-0.3844,-0.3975,-0.5509,-0.5848,-0.6235,-0.7709,-0.7988,-0.7988,-0.7988,-0.7988,-0.7988,-0.7988,-0.7988,-0.7988,-0.7988,-0.7988,-0.7988,-0.7988,-0.7988,-0.7988,-0.7988,-0.7988,-0.7988,-0.7988,-0.7988,-0.7988,-0.7988,-0.7988,-0.7988,-0.7988,-0.7988,-0.7988,-0.7988,-0.7988,-0.7988,-0.7988,-0.7988,-0.7988,-0.7988,-0.7988,-0.7988,-1.0677,-0.9474,-0.8281,-0.8281,-0.8281,-0.8275,0.0,-0.954,-1.0697,-1.0697,-1.0833,-1.0806,-1.065,-0.7849,-0.4913,-0.2921,0.1885,0.476,0.2954,0.4292,0.4024,0.0404,0.0,0.0,0.0,0.0,0.0,0.0,0.0,0.0,0.0,0.0,0.0,0.0,0.0,0.0,0.0,0.0,0.0,0.0,0.0,0.0,0.0,0.0,0.0,-0.0062,-0.1396,-0.1972,-0.2175,-0.5253,-0.6588,-0.6868,-0.8339,-0.8905,-0.8905,-0.8905,-0.8898,-0.8885,-0.8885,-0.8885,-0.8885,-0.8885,-0.8885,-0.8657,-0.7315,-0.6853,-0.6438,-0.5122,-0.3624,-0.2444,-0.244,-0.1489,-0.1115,-0.3679,-0.4279,-0.4931,-0.7434,-0.7988,-0.7988,-0.7988,-0.7988,-0.7988,-0.7988,-0.7988,-0.7988,-0.7988,-0.7988,-0.7988,-0.7988,-0.7988,-0.7988,-0.7988,-0.7988,-0.7988,-0.7988,-0.7988,-0.7988,-0.7988,-0.7988,-0.7988,-0.7988,-0.7988,-0.7988,-0.7988,-0.7988,-0.7988,-0.7988,-0.7988,-0.7988,-0.7988,-0.7988,-0.7988,-1.0697,-0.9371,-0.803,-0.803,-0.803,-0.803,-0.803,-0.9377,-1.0982,-1.2025,-1.2499,-1.2663,-1.2427,-0.965,-0.6725,-0.4786,0.1085,0.4735,0.2956,0.4292,0.4426,0.1881,0.0672,0.0,0.0,0.0,0.0,0.0,0.0,0.0,0.0,0.0,0.0,0.0,0.0,0.0,0.0,0.0,0.0,0.0,0.0,0.0,0.0,0.0,0.0,-0.0061,-0.1539,-0.2736,-0.3695,-0.5847,-0.722,-0.8059,-0.8677,-0.8885,-0.8885,-0.8885,-0.8885,-0.8885,-0.8885,-0.8885,-0.8885,-0.8885,-0.8885,-0.8644,-0.7122,-0.6077,-0.5098,-0.3563,-0.2094,-0.0931,-0.0921,-0.0457,-0.0656,-0.3366,-0.4014,-0.4718,-0.7434,-0.7988,-0.7988,-0.7988,-0.7988,-0.7988,-0.7988,-0.7988,-0.7988,-0.7988,-0.7988,-0.7988,-0.7988,-0.7988,-0.7988,-0.7988,-0.7988,-0.7988,-0.7988,-0.7988,-0.7988,-0.7988,-0.7988,-0.7988,-0.7988,-0.7988,-0.7988,-0.7988,-0.7988,-0.7988,-0.7988,-0.7988,-0.7988,-0.7988,-0.7988,-0.7988,-1.0082,-0.8634,-0.7298,-0.7298,-0.7298,-0.7431,-0.7897,-0.9763,-1.1762,-1.3062,-1.3979,-1.4373,-1.3629,-1.1207,-0.8516,-0.6032,0.0136,0.4145,0.289,0.4292,0.476,0.2887,0.1076,0.0,0.0,0.0,0.0,0.0,0.0,0.0,0.0,0.0,0.0,0.0,0.0,0.0,0.0,0.0,0.0,0.0,0.0,0.0,0.0,0.0,0.0,-0.012,-0.2031,-0.3483,-0.4655,-0.6507,-0.7931,-0.8885,-0.8436,-0.8546,-0.883,-0.8436,-0.8546,-0.8885,-0.8885,-0.8885,-0.8885,-0.8885,-0.8631,-0.8023,-0.6557,-0.5028,-0.3526,-0.2033,-0.0826,0.0,0.0,0.0,-0.0656,-0.3366,-0.4014,-0.4718,-0.7434,-0.7988,-0.7988,-0.7988,-0.7988,-0.7988,-0.7988,-0.7988,-0.7988,-0.7988,-0.7988,-0.7988,-0.7988,-0.7988,-0.7988,-0.7988,-0.7988,-0.7988,-0.7988,-0.7988,-0.7988,-0.7988,-0.7988,-0.7988,-0.7988,-0.7988,-0.7988,-0.7988,-0.7988,-0.7988,-0.7988,-0.7988,-0.7988,-0.7988,-0.7988,-0.7988,-0.8568,-0.6831,-0.5496,-0.5496,-0.5496,-0.5897,-0.7631,-1.0743,-1.3259,-1.3325,-1.479,-1.5538,-1.3804,-1.2172,-0.9817,-0.6161,-0.1021,0.2645,0.2689,0.4292,0.476,0.2887,0.1076,0.0,0.0,0.0,0.0,0.0,0.0,0.0,0.0,0.0,0.0,0.0,0.0,0.0,0.0,0.0,0.0,0.0,0.0,0.0,0.0,0.0,0.0,-0.0177,-0.3114,-0.4482,-0.4752,-0.7654,-0.8885,-0.8768,-0.7315,-0.7648,-0.8719,-0.7315,-0.7648,-0.8885,-0.8885,-0.8885,-0.8885,-0.8885,-0.7956,-0.6482,-0.5009,-0.3512,-0.197,-0.0467,-0.0051,0.0,0.0,0.0,-0.0656,-0.3366,-0.4014,-0.4718,-0.7434,-0.7988,-0.7988,-0.7988,-0.7988,-0.7988,-0.7988,-0.7988,-0.7988,-0.7988,-0.7988,-0.7988,-0.7988,-0.7988,-0.7988,-0.7988,-0.7988,-0.7988,-0.7988,-0.7988,-0.7988,-0.7988,-0.7988,-0.7988,-0.7988,-0.7988,-0.7988,-0.7988,-0.7988,-0.7988,-0.7988,-0.7988,-0.7988,-0.7988,-0.7988,-0.7988,-0.8163,-0.6698,-0.5429,-0.5429,-0.6297,-0.7298,-0.7897,-1.0743,-1.3643,-1.4819,-1.6619,-1.7445,-1.5594,-1.293,-0.9837,-0.6225,-0.0956,0.2655,0.269,0.3222,0.3356,0.2752,0.1076,0.0,0.0,0.0,0.0,0.0,0.0,0.0,0.0,0.0,0.0,0.0,0.0,0.0,0.0,0.0,0.0,0.0,0.0,0.0,0.0,0.0,0.0,-0.0174,-0.3179,-0.4494,-0.4749,-0.7709,-0.8885,-0.883,-0.838,-0.8491,-0.883,-0.8325,-0.8491,-0.8885,-0.8885,-0.8817,-0.8621,-0.7744,-0.7056,-0.6139,-0.3698,-0.2611,-0.191,-0.0409,0.0,0.0,0.0,0.0,-0.0656,-0.3366,-0.4014,-0.4718,-0.7434,-0.7988,-0.7988,-0.7988,-0.7988,-0.7988,-0.7988,-0.7988,-0.7988,-0.7988,-0.7988,-0.7988,-0.7988,-0.7988,-0.7988,-0.7988,-0.7988,-0.7988,-0.7988,-0.7988,-0.7988,-0.7988,-0.7988,-0.7988,-0.7988,-0.7988,-0.7988,-0.7988,-0.7988,-0.7988,-0.7988,-0.7988,-0.7988,-0.7988,-0.7988,-0.7988,-0.8163,-0.7165,-0.6297,-0.6297,-0.7165,-0.8363,-0.9618,-1.2119,-1.4754,-1.6496,-1.8383,-1.9018,-1.6464,-1.3761,-1.0502,-0.6246,-0.1498,0.1906,0.2623,0.3289,0.3423,0.2752,0.168,0.074,0.0067,0.0,0.0,0.0,0.0,0.0,0.0,0.0,0.0,0.0,0.0,0.0,0.0,0.0,0.0,0.0,0.0,0.0,0.0,0.0,-0.029,-0.0918,-0.3434,-0.4804,-0.5472,-0.7875,-0.8885,-0.883,-0.8325,-0.8436,-0.883,-0.8318,-0.8436,-0.8885,-0.8885,-0.8838,-0.8494,-0.7132,-0.6211,-0.5239,-0.2905,-0.1856,-0.1228,-0.0253,0.0,0.0,0.0,0.0,-0.0555,-0.2764,-0.3667,-0.4618,-0.683,-0.7683,-0.7988,-0.7988,-0.7988,-0.7988,-0.7988,-0.7988,-0.7988,-0.7988,-0.7988,-0.7988,-0.7988,-0.7988,-0.7988,-0.7988,-0.7988,-0.7988,-0.7988,-0.7988,-0.7988,-0.7988,-0.7988,-0.7988,-0.7988,-0.7988,-0.7988,-0.7988,-0.7988,-0.7988,-0.7988,-0.7988,-0.7988,-0.7988,-0.7988,-0.7988,-0.8435,-0.803,-0.803,-0.803,-0.8097,-0.9022,-1.2529,-1.4623,-1.6366,-1.8116,-1.9877,-2.0005,-1.656,-1.4585,-1.1711,-0.6309,-0.2572,0.034,0.2289,0.4029,0.4498,0.2752,0.2551,0.1881,0.0135,0.0,0.0,0.0,0.0,0.0,0.0,0.0,0.0,0.0,0.0,0.0,0.0,0.0,0.0,0.0,0.0,0.0,0.0,0.0,-0.0804,-0.2287,-0.3827,-0.5361,-0.6811,-0.8269,-0.8885,-0.8657,-0.7315,-0.7598,-0.8602,-0.7315,-0.7709,-0.8885,-0.8885,-0.8777,-0.8373,-0.7013,-0.5466,-0.3817,-0.248,-0.1125,0.0,0.0,0.0,0.0,0.0,0.0,-0.0353,-0.1662,-0.3015,-0.4368,-0.5727,-0.7036,-0.7988,-0.7988,-0.7988,-0.7988,-0.7988,-0.7988,-0.7988,-0.7988,-0.7988,-0.7988,-0.7988,-0.7988,-0.7988,-0.7988,-0.7988,-0.7988,-0.7988,-0.7988,-0.7988,-0.7988,-0.7988,-0.7988,-0.7988,-0.7988,-0.7988,-0.7988,-0.7988,-0.7988,-0.7988,-0.7988,-0.7988,-0.7988,-0.7988,-0.7988,-0.8097,-0.803,-0.803,-0.803,-0.9039,-1.0571,-1.28,-1.4623,-1.6366,-1.8116,-1.9877,-2.0005,-1.656,-1.4465,-1.1541,-0.6246,-0.355,-0.1437,0.041,0.1093,0.1224,0.0741,0.0672,0.0538,0.0067,0.0,0.0,0.0,0.0,0.0,0.0,0.0,0.0,0.0,0.0,0.0,0.0,0.0,0.0,0.0,0.0,0.0,0.0,0.0,-0.0798,-0.2305,-0.3807,-0.5361,-0.6811,-0.8269,-0.8269,-0.7315,-0.8042,-0.7875,-0.7371,-0.8097,-0.8602,-0.8885,-0.8885,-0.8106,-0.6828,-0.5501,-0.391,-0.2332,-0.0965,-0.0304,0.0,0.0,0.0,0.0,0.0,0.0,-0.0353,-0.1662,-0.3015,-0.4368,-0.5727,-0.7036,-0.7988,-0.7988,-0.7988,-0.7988,-0.7988,-0.7988,-0.7988,-0.7988,-0.7988,-0.7988,-0.7988,-0.7988,-0.7988,-0.7988,-0.7988,-0.7988,-0.7988,-0.7988,-0.7988,-0.7988,-0.7988,-0.7988,-0.7988,-0.7988,-0.7988,-0.7988,-0.7988,-0.7988,-0.7988,-0.7988,-0.7988,-0.7988,-0.7988,-0.7988,-0.9172,-0.9172,-0.9172,-0.9172,-1.0498,-1.2281,-1.4036,-1.5784,-1.7538,-1.9291,-1.9801,-1.9152,-1.6431,-1.3778,-1.0577,-0.6155,-0.3888,-0.2053,-0.0273,0.0684,0.0888,0.0067,0.0672,0.0874,0.0067,0.0,0.0,0.0,0.0,0.0,0.0,0.0,0.0,0.0,0.0,0.0,0.0,0.0,0.0,0.0,0.0,0.0,0.0,-0.0687,-0.1806,-0.3296,-0.4804,-0.5922,-0.6755,-0.7593,-0.7093,-0.5862,-0.7371,-0.7426,-0.6866,-0.838,-0.8885,-0.8871,-0.8804,-0.7433,-0.5514,-0.4722,-0.3368,-0.1762,-0.0404,0.0,0.0,0.0,0.0,0.0,0.0,0.0,-0.0202,-0.0958,-0.2613,-0.4218,-0.4972,-0.6631,-0.7988,-0.7988,-0.7988,-0.7988,-0.7988,-0.7988,-0.7988,-0.7988,-0.7988,-0.7988,-0.7988,-0.7988,-0.7988,-0.7988,-0.7988,-0.7988,-0.7988,-0.7988,-0.7988,-0.7988,-0.7988,-0.7988,-0.7988,-0.7988,-0.7988,-0.7988,-0.7988,-0.7988,-0.7988,-0.7988,-0.7988,-0.7988,-0.7988,-0.7988,-1.0717,-1.0717,-1.0717,-1.0717,-1.2025,-1.3774,-1.5524,-1.728,-1.896,-2.0716,-1.9737,-1.7988,-1.6237,-1.3208,-0.9792,-0.6309,-0.4414,-0.2661,-0.0675,0.1021,0.1501,0.0135,0.1411,0.1747,0.0135,0.0,0.0,0.0,0.0,0.0,0.0,-0.0199,-0.0327,-0.0322,-0.0317,-0.025,0.0,0.0,0.0,0.0,0.0,0.0,-0.0057,-0.1522,-0.3017,-0.4582,-0.5866,-0.6533,-0.67,-0.67,-0.581,-0.4693,-0.6366,-0.6866,-0.6866,-0.838,-0.8871,-0.8831,-0.8534,-0.6717,-0.4443,-0.4443,-0.3205,-0.1511,-0.0353,0.0,0.0,0.0,0.0,0.0,0.0,0.0,-0.005,-0.0202,-0.2163,-0.4067,-0.4218,-0.6226,-0.7988,-0.7988,-0.7988,-0.7988,-0.7988,-0.7988,-0.7988,-0.7988,-0.7988,-0.7988,-0.7988,-0.7988,-0.7988,-0.7988,-0.7988,-0.7988,-0.7988,-0.7988,-0.7988,-0.7988,-0.7988,-0.7988,-0.7988,-0.7988,-0.7988,-0.7988,-0.7988,-0.7988,-0.7988,-0.7988,-0.7988,-0.7988,-0.7988,-0.7988,-1.0717,-1.0717,-1.0717,-1.0717,-1.2025,-1.3774,-1.5524,-1.728,-1.896,-2.0716,-1.9737,-1.7988,-1.6237,-1.4223,-1.1637,-0.8148,-0.7301,-0.5945,-0.2665,-0.1984,-0.1296,-0.0135,0.0269,0.0336,0.0,0.0,0.0,0.0,0.0,0.0,0.0,-0.1326,-0.2079,-0.2089,-0.2057,-0.1421,0.0,0.0,0.0,0.0,0.0,0.0,-0.0057,-0.1522,-0.3017,-0.4526,-0.4749,-0.5584,-0.67,-0.67,-0.581,-0.4749,-0.7482,-0.7765,-0.6866,-0.838,-0.8804,-0.8581,-0.7462,-0.5811,-0.4254,-0.4254,-0.2457,-0.0303,-0.005,0.0,0.0,0.0,0.0,0.0,0.0,0.0,-0.0303,-0.141,-0.2864,-0.4318,-0.5422,-0.688,-0.7988,-0.7988,-0.7988,-0.7988,-0.7988,-0.7988,-0.7988,-0.7988,-0.7988,-0.7988,-0.7988,-0.7988,-0.7988,-0.7988,-0.7988,-0.7988,-0.7988,-0.7988,-0.7988,-0.7988,-0.7988,-0.7988,-0.7988,-0.7988,-0.7988,-0.7988,-0.7988,-0.7988,-0.7988,-0.7988,-0.7988,-0.7988,-0.7988,-0.7988,-1.0717,-1.0717,-1.0717,-1.0717,-1.2668,-1.4884,-1.5719,-1.7923,-2.0068,-2.0919,-1.896,-1.6883,-1.6043,-1.3709,-1.1049,-0.8437,-0.8023,-0.6749,-0.3189,-0.273,-0.2047,-0.0202,0.0,0.0,0.0,0.0,0.0,0.0,0.0,-0.0399,-0.1263,-0.286,-0.337,-0.2553,-0.2472,-0.1725,0.0,0.0,0.0,0.0,0.0,0.0,-0.0057,-0.2358,-0.3801,-0.4582,-0.6144,-0.6311,-0.5639,-0.6366,-0.5361,-0.3575,-0.6589,-0.7315,-0.6866,-0.838,-0.8391,-0.7537,-0.6861,-0.51,-0.3135,-0.3076,-0.1674,0.0,0.0,0.0,0.0,0.0,0.0,0.0,0.0,0.0,-0.0353,-0.1662,-0.3566,-0.5422,-0.6731,-0.7534,-0.7988,-0.7988,-0.7988,-0.7988,-0.7988,-0.7988,-0.7988,-0.7988,-0.7988,-0.7988,-0.7988,-0.7988,-0.7988,-0.7988,-0.7988,-0.7988,-0.7988,-0.7988,-0.7988,-0.7988,-0.7988,-0.7988,-0.7988,-0.7988,-0.7988,-0.7988,-0.7988,-0.7988,-0.7988,-0.7988,-0.7988,-0.7988,-0.7988,-0.7988,-1.0717,-1.0717,-1.0784,-1.1174,-1.3578,-1.5978,-1.6366,-1.8896,-2.0982,-2.0589,-1.8052,-1.5784,-1.5394,-1.28,-1.0246,-0.8834,-0.8577,-0.7458,-0.4297,-0.3859,-0.3057,-0.0808,-0.0606,-0.0404,-0.0067,0.0,0.0,0.0,-0.0662,-0.1634,-0.2929,-0.4579,-0.4677,-0.3077,-0.3016,-0.2033,0.0,0.0,0.0,0.0,0.0,0.0,-0.0113,-0.3136,-0.4526,-0.4637,-0.726,-0.7093,-0.5083,-0.62,-0.5301,-0.3408,-0.6139,-0.7149,-0.7315,-0.8491,-0.7968,-0.6583,-0.6192,-0.4351,-0.2104,-0.1687,-0.086,0.0,0.0,0.0,0.0,0.0,0.0,0.0,0.0,-0.0202,-0.0857,-0.2465,-0.4672,-0.6731,-0.7789,-0.7988,-0.7988,-0.7988,-0.7988,-0.7988,-0.7988,-0.7988,-0.7988,-0.7988,-0.7988,-0.7988,-0.7988,-0.7988,-0.7988,-0.7988,-0.7988,-0.7988,-0.7988,-0.7988,-0.7988,-0.7988,-0.7988,-0.7988,-0.7988,-0.7988,-0.7988,-0.7988,-0.7988,-0.7988,-0.7988,-0.7988,-0.7988,-0.7988,-0.7988,-0.7988,-1.0717,-1.0717,-1.1115,-1.2676,-1.4493,-1.6302,-1.7923,-1.9737,-2.0652,-1.9088,-1.7205,-1.5394,-1.384,-1.196,-1.0651,-1.0452,-1.0465,-0.9788,-0.7764,-0.7503,-0.6235,-0.2887,-0.2484,-0.1814,-0.0135,0.0,0.0,0.0,-0.2748,-0.454,-0.4668,-0.6285,-0.6421,-0.4735,-0.4671,-0.32,0.0,0.0,0.0,0.0,0.0,0.0,-0.0115,-0.3096,-0.4526,-0.4582,-0.62,-0.6755,-0.6533,-0.6644,-0.6533,-0.6422,-0.8042,-0.8712,-0.8712,-0.883,-0.7907,-0.6325,-0.5114,-0.3512,-0.1815,-0.0569,-0.0102,0.0,0.0,0.0,0.0,0.0,0.0,0.0,0.0,-0.0907,-0.2465,-0.5022,-0.6731,-0.7839,-0.7988,-0.7988,-0.7988,-0.7988,-0.7988,-0.7988,-0.7988,-0.7988,-0.7988,-0.7988,-0.7988,-0.7988,-0.7988,-0.7988,-0.7988,-0.7988,-0.7988,-0.7988,-0.7988,-0.7988,-0.7988,-0.7988,-0.7988,-0.7988,-0.7988,-0.7988,-0.7988,-0.7988,-0.7988,-0.7988,-0.7988,-0.7988,-0.7988,-0.7988,-0.7988,-0.7988,-1.2281,-1.1505,-1.1115,-1.2865,-1.4623,-1.6108,-1.6754,-1.8244,-1.9024,-1.7269,-1.5524,-1.4101,-1.3456,-1.1894,-1.0717,0.0,0.0,0.0,-0.823,-0.803,-0.7093,-0.4626,-0.4292,-0.3622,-0.1814,-0.1613,-0.1606,-0.1593,-0.4677,-0.6502,-0.6531,-0.8026,-0.7659,-0.4977,-0.4916,-0.3307,-0.0061,0.0,0.0,0.0,0.0,0.0,-0.0115,-0.3099,-0.4526,-0.4637,-0.6982,-0.7537,-0.6755,-0.7648,-0.7482,-0.6871,-0.8325,-0.8885,-0.8885,-0.8885,-0.7398,-0.5237,-0.4697,-0.2872,-0.0683,-0.0154,0.0,0.0,0.0,0.0,0.0,0.0,0.0,-0.0202,-0.1008,-0.2816,-0.4672,-0.5727,-0.7036,-0.7988,-0.7988,-0.7988,-0.7988,-0.7988,-0.7988,-0.7988,-0.7988,-0.7988,-0.7988,-0.7988,-0.7988,-0.7988,-0.7988,-0.7988,-0.7988,-0.7988,-0.7988,-0.7988,-0.7988,-0.7988,-0.7988,-0.7988,-0.7988,-0.7988,-0.7988,-0.7988,-0.7988,-0.7988,-0.7988,-0.7988,-0.7988,-0.7988,-0.7988,-0.7988,-0.7988,-0.7988,-1.4101,-1.3193,-1.2676,-1.4428,-1.5784,-1.6689,-1.6689,-1.7602,-1.7859,-1.5589,-1.4166,-1.3128,-1.261,-1.1505,-1.0717,0.0,0.0,-1.0246,-0.8972,-0.8767,-0.8169,-0.6364,-0.6164,-0.5496,-0.3689,-0.3488,-0.3661,-0.4115,-0.6263,-0.7764,-0.824,-0.9258,-0.8282,-0.4977,-0.4916,-0.3305,-0.0061,0.0,0.0,0.0,0.0,-0.0226,-0.0746,-0.3324,-0.4749,-0.5306,-0.782,-0.8325,-0.7426,-0.8491,-0.8269,-0.7426,-0.8491,-0.8885,-0.883,-0.8436,-0.6644,-0.4453,-0.4,-0.2137,0.0,0.0,0.0,0.0,0.0,0.0,0.0,0.0,-0.0303,-0.1008,-0.2716,-0.4572,-0.5977,-0.5977,-0.7036,-0.7889,-0.7484,-0.7739,-0.7988,-0.7988,-0.7988,-0.7988,-0.7988,-0.7988,-0.7988,-0.7988,-0.7988,-0.7988,-0.7988,-0.7988,-0.7988,-0.7988,-0.7988,-0.7988,-0.7988,-0.7988,-0.7988,-0.7988,-0.7988,-0.7988,-0.7988,-0.7988,-0.7988,-0.7988,-0.7988,-0.7988,-0.7988,-0.7988,-0.7988,-0.7988,-0.7988,-0.7988,-1.5848,-1.5848,-1.6237,-1.7988,-1.8448,-1.8448,-1.8448,-1.8512,-1.7538,-1.4036,-1.3325,-1.2734,-1.1049,-1.0717,-1.0717,-1.0717,0.0,0.0,-1.0651,-1.0651,-0.9981,-0.8163,-0.7964,-0.7298,-0.5563,-0.5362,-0.5961,-0.7463,-0.7571,-0.8237,-0.9714,-0.9822,-0.8282,-0.4977,-0.4916,-0.3321,-0.0062,0.0,0.0,0.0,0.0,-0.0791,-0.2233,-0.3774,-0.5306,-0.6755,-0.8269,-0.8885,-0.8885,-0.8885,-0.8885,-0.8885,-0.8885,-0.8885,-0.8712,-0.726,-0.575,-0.4293,-0.2743,-0.1243,0.0,0.0,0.0,0.0,0.0,0.0,0.0,0.0,-0.0958,-0.2615,-0.5277,-0.5977,-0.5977,-0.5977,-0.7036,-0.764,-0.6331,-0.7086,-0.7988,-0.7988,-0.7988,-0.7988,-0.7988,-0.7988,-0.7988,-0.7988,-0.7988,-0.7988,-0.7988,-0.7988,-0.7988,-0.7988,-0.7988,-0.7988,-0.7988,-0.7988,-0.7988,-0.7988,-0.7988,-0.7988,-0.7988,-0.7988,-0.7988,-0.7988,-0.7988,-0.7988,-0.7988,-0.7988,-0.7988,-0.7988,-0.7988,-0.7988,-1.7667,-1.6818,-1.6302,-1.8052,-1.7602,-1.6689,-1.6689,-1.5784,-1.4297,-1.2025,-1.1505,-1.1372,-1.0784,-1.0717,-1.0717,-1.0717,-1.0717,0.0,-1.0717,-1.0717,-1.0518,-0.9915,-0.8767,-0.7764,-0.7231,-0.7165,-0.7308,-0.7697,-0.8782,-0.9614,-0.9923,-0.9876,-0.8282,-0.4977,-0.4916,-0.3305,-0.0061,0.0,0.0,0.0,0.0,-0.0791,-0.2233,-0.3774,-0.5306,-0.6755,-0.8269,-0.8885,-0.8885,-0.8885,-0.8885,-0.8885,-0.8885,-0.8269,-0.7315,-0.6866,-0.5079,-0.2839,-0.2382,-0.123,0.0,0.0,0.0,0.0,0.0,0.0,-0.0202,-0.1109,-0.2314,-0.3767,-0.5527,-0.6681,-0.7135,-0.6232,-0.7036,-0.764,-0.6282,-0.7036,-0.7988,-0.7988,-0.7988,-0.7988,-0.7988,-0.7988,-0.7988,-0.7988,-0.7988,-0.7988,-0.7988,-0.7988,-0.7988,-0.7988,-0.7988,-0.7988,-0.7988,-0.7988,-0.7988,-0.7988,-0.7135,-0.6631,-0.6631,-0.6631,-0.6631,-0.6631,-0.7534,-0.7988,-0.7988,-0.7988,-0.7988,-0.7988,-0.7988,-0.7988,-1.9483,-1.8704,-1.8116,-1.9228,-1.818,-1.6689,-1.6043,-1.4558,-1.28,-1.1049,-1.0717,-1.0717,-1.0717,-1.0717,-1.0717,-1.0717,-1.0717,-1.0717,-1.0717,-1.0717,-1.0717,-1.0717,-0.9709,-0.9039,-0.9039,-0.8993,-0.8913,-0.8728,-0.9634,-1.0127,-0.9909,-0.9869,-0.8282,-0.4977,-0.4916,-0.3298,-0.006,0.0,0.0,0.0,-0.0568,-0.1631,-0.312,-0.4658,-0.6144,-0.7593,-0.8491,-0.8885,0.0,-0.8885,-0.8885,-0.8885,-0.8885,-0.7986,-0.6644,-0.6089,-0.4339,-0.2096,-0.1558,-0.0743,0.0,0.0,0.0,-0.0101,-0.0605,-0.0404,-0.0404,-0.2213,-0.3366,-0.4418,-0.6276,-0.7385,-0.7683,-0.6331,-0.7036,-0.764,-0.6282,-0.7036,-0.7988,-0.7988,-0.7988,-0.7988,-0.7988,-0.7988,-0.7988,-0.7988,-0.7988,-0.7988,-0.7988,-0.7988,-0.7789,-0.7285,-0.7235,-0.7235,-0.7235,-0.769,-0.7988,-0.7988,-0.6731,-0.5977,-0.5977,-0.5522,-0.5222,-0.5222,-0.6077,-0.6731,-0.7235,-0.7739,-0.7988,-0.7988,-0.7988,-0.7988,0.0,-2.1109,-2.1109,-2.1109,-1.9674,-1.7859,-1.6237,-1.4493,0.0,-1.1049,-1.0717,-1.0717,-1.0717,-1.0717,-1.0717,-1.0717,-1.0717,-1.0717,-1.0717,-1.0717,-1.0717,-1.0717,-1.0717,-1.0717,-1.0717,-1.0595,-1.0446,-1.029,-1.0148,-0.993,-0.9829,-0.9822,-0.8282,-0.4977,-0.4916,-0.3298,-0.006,0.0,0.0,0.0,-0.141,-0.2905,-0.4526,-0.5922,-0.7426,-0.8885,-0.8885,-0.8885,-0.8885,-0.8885,-0.8885,-0.8885,-0.8774,-0.782,-0.6366,-0.486,-0.3377,-0.1855,-0.0484,0.0,0.0,0.0,0.0,-0.0252,-0.1611,-0.1109,-0.0706,-0.3366,-0.4168,-0.4718,-0.7335,-0.7988,-0.7683,-0.6331,-0.7036,-0.764,-0.6282,-0.7036,-0.7988,-0.7988,-0.7988,-0.7988,-0.7988,-0.7988,-0.7988,-0.7988,-0.7939,-0.7839,-0.7839,-0.7789,-0.7235,-0.5977,-0.5877,-0.5877,-0.5877,-0.7086,-0.7889,-0.7988,-0.6631,-0.5877,-0.5877,-0.4568,-0.3864,-0.3864,-0.4067,-0.4768,-0.5982,-0.7335,-0.7988,-0.7988,-0.7988,-0.7988,-2.1109,0.0,-2.1109,-2.1109,-1.8768,-1.6431,0.0,-1.3521,-1.1174,-1.0784,-1.0717,-1.0717,-1.0717,-1.0717,-1.0717,-1.0717,-1.0717,-1.0717,-1.0717,-1.0717,-1.0717,-1.0717,-1.0717,-1.0717,-1.0717,-1.0683,-1.0561,-1.0297,-1.0249,-1.0107,-0.9836,-0.9822,-0.8282,-0.4977,-0.4916,-0.3298,-0.006,0.0,0.0,0.0,-0.0339,-0.1902,-0.4526,-0.486,-0.6422,-0.8885,-0.8885,-0.8885,-0.8885,-0.8885,-0.8885,-0.8774,-0.7648,-0.6311,-0.4804,-0.3296,-0.1786,-0.0445,-0.0109,0.0,0.0,0.0,0.0,-0.0252,-0.1611,-0.1762,-0.2113,-0.4772,-0.5527,-0.5927,-0.7584,-0.7988,-0.7683,-0.6331,-0.7036,-0.764,-0.6282,-0.7036,-0.7988,-0.7988,-0.7988,-0.7988,-0.7988,-0.7988,-0.7988,-0.7988,-0.7135,-0.6481,-0.6481,-0.5572,-0.4818,-0.4518,-0.4468,-0.4468,-0.4468,-0.5677,-0.693,-0.7939,-0.5772,-0.4468,-0.4468,-0.3165,-0.2465,-0.2465,-0.4472,-0.5677,-0.5982,-0.7335,-0.7988,-0.7988,-0.7988,-0.7988,-2.1109,-2.1109,-2.0919,-2.0132,-1.7859,-1.5719,-1.4874,0.0,-1.0717,-1.0717,-1.0717,-1.0717,-1.0717,-1.0717,-1.0717,-1.0717,-1.0717,-1.0717,-1.0717,-1.0717,-1.0717,-1.0717,-1.0717,-1.0717,-1.0717,-1.0595,-1.0453,-1.029,-1.0148,-0.9998,-0.9829,-0.9079,-0.7545,-0.4977,-0.4212,-0.2599,0.0,0.0,0.0,0.0,-0.1406,-0.2908,-0.4526,-0.5922,-0.7371,-0.8885,-0.8885,-0.8885,-0.8885,-0.8885,-0.8491,-0.782,-0.7038,-0.5361,-0.3352,-0.2515,-0.1281,0.0,0.0,0.0,0.0,0.0,-0.0415,-0.1174,-0.2496,-0.3338,-0.4121,-0.5577,-0.5977,-0.6331,-0.7633,-0.7988,-0.7839,-0.7086,-0.7484,-0.7789,-0.7086,-0.7484,-0.7988,-0.7988,-0.7988,-0.7988,-0.7988,-0.7988,-0.7988,-0.7988,-0.688,-0.5977,-0.5977,-0.4822,-0.3764,-0.3165,-0.3065,-0.3065,-0.3065,-0.3767,-0.5022,-0.698,-0.5118,-0.4014,-0.4014,-0.2113,-0.1058,-0.1058,-0.3717,-0.5072,-0.5072,-0.703,-0.7988,-0.7988,-0.7988,-0.7988,-2.1109,-2.1109,-2.0652,-1.896,-1.7205,-1.5459,-1.3709,0.0,0.0,0.0,0.0,-1.0717,-1.0717,-1.0717,-1.0717,-1.0717,-1.0717,-1.0717,-1.0717,-1.0717,-1.0717,-1.0717,-1.0717,-1.0711,-1.0683,-1.046,-1.0297,-1.0249,-1.0005,-0.9842,-0.9822,-0.8282,-0.6625,-0.4977,-0.3333,-0.1672,0.0,0.0,0.0,-0.0056,-0.2796,-0.4247,-0.4582,-0.7315,-0.8712,-0.8885,-0.8885,-0.8885,-0.8885,-0.8657,-0.782,-0.6644,-0.6195,-0.4467,-0.218,-0.1956,-0.1055,0.0,0.0,0.0,-0.0054,-0.0268,-0.1107,-0.2275,-0.3872,-0.5145,-0.6032,-0.6232,-0.6282,-0.6581,-0.769,-0.7988,-0.7988,-0.7988,-0.7988,-0.7988,-0.7988,-0.7988,-0.7988,-0.7988,-0.7988,-0.7988,-0.7988,-0.7988,-0.7939,-0.7739,-0.6531,-0.5627,-0.5427,-0.4218,-0.2964,-0.1813,-0.1712,-0.1712,-0.1712,-0.1861,-0.2967,-0.5227,-0.4318,-0.3616,-0.3416,-0.121,-0.0101,-0.0303,-0.2714,-0.4114,-0.4318,-0.6575,-0.769,-0.769,-0.769,-0.769,-2.1109,-2.1109,-2.0652,-1.896,-1.7205,-1.5459,-1.3709,-1.196,0.0,0.0,0.0,0.0,-1.0717,-1.0717,-1.0717,-1.0717,-1.0717,-1.0717,-1.0717,-1.0717,-1.0717,-1.0717,-1.0717,-1.067,-1.0541,-1.0487,-1.0358,-1.0044,-0.9977,-0.9896,-0.9829,-0.8282,-0.6625,-0.4977,-0.3333,-0.1672,0.0,0.0,0.0,0.0,-0.1734,-0.324,-0.4582,-0.6255,-0.7709,-0.8885,-0.8885,-0.8885,-0.883,-0.7537,-0.6922,-0.6422,-0.391,-0.2626,-0.2068,-0.0784,-0.0168,0.0,0.0,0.0,-0.0218,-0.1469,-0.1914,-0.2482,-0.5158,-0.5961,-0.6232,-0.7385,-0.769,-0.7739,-0.7939,-0.7988,-0.7988,-0.7988,-0.7988,-0.7988,-0.7988,-0.7988,-0.7988,-0.7988,-0.7988,-0.7988,-0.7988,-0.7988,-0.764,-0.6481,-0.5172,-0.3917,-0.2766,-0.146,-0.0555,-0.0353,-0.0303,-0.0303,-0.0303,-0.136,-0.2163,-0.2565,-0.2414,-0.1813,-0.0656,-0.0202,-0.0555,-0.1662,-0.3215,-0.4568,-0.5677,-0.6126,-0.6331,-0.6331,-0.6331,-0.6331,-2.1109,-2.1109,-2.0462,-1.7795,-1.6496,-1.52,-1.2479,-1.1306,-1.0717,0.0,-1.0717,-1.0717,-1.0717,-1.0717,-1.0717,-1.0717,-1.0717,-1.0717,-1.0717,-1.0717,-1.0717,-1.0717,-1.0717,-1.0663,-1.0507,-1.0426,-1.029,-1.0004,-0.9909,-0.9897,-0.9822,-0.7423,-0.5689,-0.4919,-0.2456,-0.0768,0.0,0.0,0.0,0.0,-0.2349,-0.3801,-0.4582,-0.6871,-0.8269,-0.8885,-0.8885,-0.8436,-0.7648,-0.6977,-0.575,-0.4132,-0.2738,-0.1733,-0.0952,-0.0224,0.0,0.0,0.0,0.0,-0.0222,-0.1714,-0.259,-0.3459,-0.5652,-0.6675,-0.7185,-0.7839,-0.7988,-0.7988,-0.7988,-0.7988,-0.7988,-0.7988,-0.7988,-0.7988,-0.7988,-0.7988,-0.7988,-0.7988,-0.7988,-0.7988,-0.7988,-0.7988,-0.7534,-0.6182,-0.4872,-0.3516,-0.2163,-0.0806,0.0,0.0,0.0,0.0,0.0,-0.0555,-0.121,-0.1962,-0.2012,-0.141,-0.005,0.0,-0.0303,-0.0907,-0.2213,-0.3215,-0.382,-0.4572,-0.4918,-0.4918,-0.4918,-0.4918,-2.1002,-2.1002,-2.0156,-1.6669,-1.5802,-1.4947,-1.149,-1.069,-1.0677,-1.0711,-1.0717,-1.0717,-1.0717,-1.0717,-1.0717,-1.0717,-1.0717,-1.0717,-1.0717,-1.1049,-1.1306,-1.1306,-1.1271,-1.1192,-1.1092,-1.0565,-1.0161,-0.9943,-0.989,-0.9822,-0.9822,-0.6668,-0.4926,-0.4927,-0.1712,0.0,0.0,0.0,0.0,-0.0056,-0.3075,-0.4526,-0.4582,-0.7537,-0.8885,-0.8885,-0.8546,-0.7765,-0.6644,-0.5917,-0.43,-0.218,-0.1844,-0.1008,0.0,0.0,0.0,0.0,0.0,-0.0224,-0.0727,-0.2225,-0.3545,-0.4847,-0.6338,-0.7392,-0.8035,-0.8002,-0.7988,-0.7988,-0.7988,-0.7988,-0.7988,-0.7988,-0.7988,-0.7988,-0.7988,-0.7988,-0.7988,-0.7988,-0.7988,-0.7889,-0.7584,-0.7534,-0.698,-0.5327,-0.4168,-0.3065,-0.1712,-0.0656,0.0,0.0,0.0,0.0,0.0,0.0,-0.0454,-0.146,-0.1511,-0.1058,-0.005,0.0,-0.0151,-0.0454,-0.146,-0.2163,-0.2465,-0.3165,-0.3516,-0.3516,-0.3516,-0.3516,-2.0708,-2.0708,-1.9872,-1.6231,-1.5511,-1.483,-1.1468,-1.0609,-1.0548,-1.069,-1.0717,-1.0717,-1.0717,-1.0717,-1.0717,-1.0717,-1.0717,-1.0717,-1.0717,-1.2091,-1.3128,-1.3128,-1.2978,-1.2867,-1.2754,-1.108,-0.9943,-0.9849,-0.9829,-0.9822,-0.9822,-0.6663,-0.4931,-0.4924,-0.1694,0.0,0.0,0.0,0.0,-0.0056,-0.3075,-0.4526,-0.4582,-0.7537,-0.8885,-0.883,-0.7426,-0.6811,-0.6478,-0.3687,-0.2403,-0.2068,-0.0672,-0.0112,0.0,0.0,0.0,0.0,0.0,-0.0896,-0.2286,-0.3619,-0.5064,-0.6534,-0.7788,-0.8217,-0.8221,-0.8029,-0.7988,-0.7988,-0.7988,-0.7988,-0.7988,-0.7988,-0.7988,-0.7988,-0.7988,-0.7988,-0.7988,-0.7988,-0.7988,-0.7584,-0.6381,-0.6132,-0.5272,-0.2666,-0.2213,-0.1662,-0.0303,-0.005,0.0,0.0,0.0,0.0,0.0,0.0,-0.005,-0.0151,-0.0151,-0.0101,0.0,0.0,-0.0605,-0.1813,-0.1962,-0.2615,-0.3864,-0.2714,-0.2163,-0.2163,-0.2163,-0.2163,-2.0454,-2.0535,-1.9822,-1.6307,-1.5582,-1.4773,-1.1337,-1.0609,-1.0649,-1.0711,-1.0717,-1.0717,-1.0717,-1.0717,-1.0717,-1.0717,-1.0717,-1.0717,-1.0717,-1.2215,-1.3217,-1.3099,-1.3979,-1.406,-1.2693,-1.1929,-1.1018,-0.989,-0.9822,-0.9822,-0.9822,-0.6714,-0.4903,-0.4913,-0.1741,0.0,0.0,0.0,0.0,-0.0056,-0.3075,-0.4526,-0.4582,-0.7537,-0.838,-0.7482,-0.6927,-0.5639,-0.3798,-0.2682,-0.1678,-0.0784,-0.0224,0.0,0.0,0.0,0.0,0.0,0.0,-0.0952,-0.2455,-0.3938,-0.5326,-0.6716,-0.804,-0.8343,-0.8241,-0.8035,-0.7988,-0.7988,-0.7988,-0.7988,-0.7988,-0.7988,-0.7988,-0.7988,-0.7988,-0.7988,-0.7988,-0.7988,-0.7335,-0.6581,-0.6082,-0.5322,-0.4117,-0.2264,-0.2012,-0.1511,-0.0151,0.0,0.0,0.0,0.0,0.0,0.0,0.0,0.0,0.0,0.0,0.0,0.0,0.0,-0.0252,-0.0757,-0.0756,-0.1008,-0.1511,-0.1008,-0.0756,-0.0756,-0.0756,-0.0756,-2.0294,-2.0007,-1.9137,-1.6171,-1.5149,-1.4116,-1.1192,-1.0575,-1.0663,-1.0711,-1.0717,-1.0717,-1.0717,-1.0717,-1.0717,-1.0717,-1.0717,-1.0916,-1.1439,-1.2947,-1.4152,-1.4527,-1.5458,-1.5566,-1.4099,-1.3414,-1.2413,-1.0671,-1.0492,-1.0282,-0.9754,-0.7055,-0.5295,-0.4832,-0.2123,-0.0453,0.0,0.0,0.0,-0.0056,-0.3075,-0.4526,-0.4582,-0.6589,-0.7204,-0.6644,-0.5695,-0.4132,-0.218,-0.1678,-0.0896,0.0,0.0,0.0,0.0,0.0,0.0,-0.0056,-0.056,-0.1678,-0.3182,-0.4661,-0.6046,-0.7367,-0.821,-0.835,-0.8241,-0.8035,-0.7988,-0.7988,-0.7988,-0.7988,-0.7988,-0.7988,-0.7988,-0.7988,-0.7988,-0.7988,-0.7988,-0.7988,-0.693,-0.5877,-0.5422,-0.4268,-0.2914,-0.1561,-0.136,-0.1058,-0.0101,0.0,0.0,0.0,0.0,0.0,0.0,0.0,0.0,0.0,0.0,0.0,0.0,0.0,0.0,0.0,0.0,0.0,0.0,0.0,0.0,0.0,0.0,0.0,-2.0167,-1.9046,-1.748,-1.5742,-1.4159,-1.266,-1.0876,-1.0493,-1.0534,-1.069,-1.0717,-1.0717,-1.0717,-1.0717,-1.0717,-1.0717,-1.0717,-1.1306,-1.3062,-1.4576,-1.616,-1.7862,-1.7728,-1.7409,-1.7409,-1.5677,-1.3944,-1.2329,-1.2099,-1.1291,-0.9664,-0.7858,-0.6232,-0.4747,-0.3099,-0.151,0.0,0.0,0.0,-0.0056,-0.3019,-0.447,-0.447,-0.4526,-0.5306,-0.6478,-0.3517,-0.218,-0.2068,-0.0616,0.0,0.0,0.0,0.0,0.0,0.0,0.0,-0.0224,-0.1678,-0.324,-0.4734,-0.6077,-0.751,-0.8655,-0.8364,-0.8327,-0.8241,-0.8035,-0.7988,-0.7988,-0.7988,-0.7988,-0.7988,-0.7988,-0.7988,-0.7988,-0.7988,-0.7988,-0.7988,-0.7988,-0.688,-0.5527,-0.4218,-0.2864,-0.1511,-0.0202,0.0,0.0,0.0,0.0,0.0,0.0,0.0,0.0,0.0,0.0,0.0,0.0,0.0,0.0,0.0,0.0,0.0,0.0,0.0,0.0,0.0,0.0,0.0,0.0,0.0,0.0,-1.9733,-1.8605,-1.7138,-1.5525,-1.4096,-1.2693,-1.1016,-1.0649,-1.0663,-1.0711,-1.0717,-1.0717,-1.0717,-1.0717,-1.0717,-1.0717,-1.1762,-1.2628,-1.2953,-1.5503,-1.736,-1.7448,-1.8431,-1.8555,-1.728,-1.6377,-1.4882,-1.225,-1.1787,-1.0991,-0.9566,-0.7807,-0.6232,-0.4747,-0.3099,-0.151,0.0,0.0,0.0,0.0,-0.0896,-0.1902,-0.2961,-0.5083,-0.5135,-0.3461,-0.2571,-0.1622,-0.0616,-0.0168,0.0,0.0,0.0,0.0,0.0,0.0,-0.0672,-0.1622,-0.2068,-0.391,-0.6139,-0.6493,-0.7586,-0.8676,-0.8479,-0.835,-0.8241,-0.8035,-0.7988,-0.7988,-0.7988,-0.7988,-0.7988,-0.7988,-0.7988,-0.7988,-0.7988,-0.7285,-0.6581,-0.6581,-0.4772,-0.3067,-0.2666,-0.146,-0.0454,-0.005,0.0,0.0,0.0,0.0,0.0,0.0,0.0,0.0,0.0,0.0,0.0,0.0,0.0,0.0,0.0,0.0,0.0,0.0,0.0,0.0,0.0,0.0,0.0,0.0,0.0,0.0,-1.992,-1.8263,-1.6352,-1.5564,-1.3715,-1.1812,-1.0882,-1.0717,-1.0717,-1.0717,-1.0717,-1.0717,-1.0717,-1.067,-1.0629,-1.0629,-1.1996,-1.3255,-1.3771,-1.6065,-1.7836,-1.8189,-1.9089,-1.9141,-1.7902,-1.7555,-1.6367,-1.3846,-1.2842,-1.1711,-1.0246,-0.8049,-0.6116,-0.4648,-0.3033,-0.151,0.0,0.0,-0.028,-0.0896,-0.0896,-0.1343,-0.2235,-0.3463,-0.3352,-0.218,-0.1566,-0.084,0.0,0.0,0.0,0.0,0.0,0.0,-0.0056,-0.0672,-0.1454,-0.2347,-0.3575,-0.519,-0.6811,-0.7371,-0.7695,-0.7796,-0.7709,-0.7556,-0.7339,-0.726,-0.7584,-0.7988,-0.7988,-0.7988,-0.7988,-0.7988,-0.7988,-0.7839,-0.7335,-0.6581,-0.5827,-0.5322,-0.3466,-0.2012,-0.2012,-0.0907,0.0,0.0,0.0,0.0,0.0,0.0,0.0,0.0,0.0,0.0,0.0,0.0,0.0,0.0,0.0,0.0,0.0,0.0,0.0,0.0,0.0,0.0,0.0,0.0,0.0,0.0,0.0,0.0,-2.0454,-1.8137,-1.5576,-1.5772,-1.3181,-1.0548,-1.069,-1.0717,-1.0717,-1.0717,-1.0717,-1.0717,-1.0717,-1.0595,-1.0493,-1.0493,-1.1884,-1.3501,-1.504,-1.6519,-1.802,-1.9582,-1.9506,-1.9225,-1.8945,-1.8878,-1.803,-1.6242,-1.4579,-1.295,-1.1346,-0.8474,-0.6144,-0.4526,-0.3129,-0.1622,0.0,0.0,-0.0672,-0.2012,-0.2012,-0.2012,-0.1956,-0.0728,-0.084,-0.19,-0.056,0.0,0.0,0.0,0.0,0.0,0.0,0.0,-0.0168,-0.1678,-0.2291,-0.2794,-0.5695,-0.6805,-0.7077,-0.8318,-0.7684,-0.6453,-0.6305,-0.6154,-0.5977,-0.5977,-0.698,-0.7988,-0.7988,-0.7988,-0.7988,-0.7988,-0.7988,-0.764,-0.6282,-0.5927,-0.5422,-0.4067,-0.2714,-0.1813,-0.1813,-0.0806,0.0,0.0,0.0,0.0,0.0,0.0,0.0,0.0,0.0,0.0,0.0,0.0,0.0,0.0,0.0,0.0,0.0,0.0,0.0,0.0,0.0,0.0,0.0,0.0,0.0,0.0,0.0,0.0,-1.996,-1.8516,-1.6758,-1.5802,-1.3124,-1.0677,-1.0711,-1.0717,-1.0717,-1.0717,-1.0717,-1.0717,-1.0717,-1.0595,-1.0493,-1.0493,-1.2885,-1.4752,-1.4891,-1.7396,-1.9292,-1.9492,-1.9199,-1.8998,-1.8931,-1.8448,-1.7582,-1.6058,-1.4331,-1.2737,-1.1215,-0.9437,-0.7204,-0.4582,-0.4191,-0.274,0.0,0.0,-0.0168,-0.0448,-0.0448,-0.0448,-0.0504,-0.1343,-0.1287,-0.0448,-0.0112,0.0,0.0,0.0,0.0,0.0,0.0,0.0,-0.0168,-0.1678,-0.2961,-0.4247,-0.6089,-0.7419,-0.8173,-0.7392,-0.6808,-0.6137,-0.5015,-0.5326,-0.5977,-0.5977,-0.698,-0.7988,-0.7988,-0.7988,-0.7988,-0.7988,-0.7988,-0.764,-0.6282,-0.5172,-0.4017,-0.2714,-0.136,-0.0454,-0.0454,-0.0202,0.0,0.0,0.0,0.0,0.0,0.0,0.0,0.0,0.0,0.0,0.0,0.0,0.0,0.0,0.0,0.0,0.0,0.0,0.0,0.0,0.0,0.0,0.0,0.0,0.0,0.0,0.0,0.0,-1.9893,-1.8772,-1.6982,-1.4939,-1.2538,-1.0717,-1.0717,-1.0717,-1.0717,-1.0717,-1.0717,-1.0697,-1.0622,-1.0487,-1.0621,-1.1292,-1.3429,-1.5145,-1.5801,-1.8015,-1.9533,-1.9444,-1.9105,-1.8865,-1.8731,-1.8262,-1.7376,-1.5797,-1.4191,-1.267,-1.1164,-0.9023,-0.6811,-0.4582,-0.3801,-0.2293,0.0,0.0,-0.0336,-0.1064,-0.0336,0.0,0.0,-0.0784,-0.0728,0.0,0.0,0.0,0.0,0.0,0.0,0.0,0.0,0.0,-0.0168,-0.1678,-0.3185,-0.4693,-0.62,-0.7607,-0.8558,-0.7182,-0.6128,-0.5291,-0.4443,-0.414,-0.4372,-0.5627,-0.6481,-0.7036,-0.7036,-0.7534,-0.7839,-0.7185,-0.7036,-0.6681,-0.5322,-0.3967,-0.2666,-0.1309,-0.0454,0.0,0.0,0.0,0.0,0.0,0.0,0.0,0.0,0.0,0.0,0.0,0.0,0.0,0.0,0.0,0.0,0.0,0.0,0.0,0.0,0.0,0.0,0.0,0.0,0.0,0.0,0.0,0.0,0.0,0.0,0.0,-1.98,-1.8568,-1.6615,-1.4327,-1.2215,-1.0717,-1.0717,-1.0717,-1.0711,-1.0683,-1.0683,-1.0643,-1.0514,-1.0351,-1.0699,-1.216,-1.3667,-1.5133,-1.6786,-1.8402,-1.9403,-1.9292,-1.9025,-1.8731,-1.8437,-1.8143,-1.7247,-1.5541,-1.4126,-1.267,-1.1164,-0.852,-0.6311,-0.4582,-0.324,-0.1734,0.0,0.0,-0.0616,-0.179,-0.056,0.0,0.0,0.0,0.0,0.0,0.0,0.0,0.0,0.0,0.0,0.0,0.0,-0.0168,-0.056,-0.2069,-0.357,-0.5008,-0.6282,-0.748,-0.8163,-0.6468,-0.5248,-0.4365,-0.3958,-0.3305,-0.3168,-0.5377,-0.5977,-0.5977,-0.5977,-0.6631,-0.703,-0.5927,-0.5477,-0.5072,-0.4168,-0.2964,-0.1611,-0.0252,0.0,0.0,0.0,0.0,0.0,0.0,0.0,0.0,0.0,0.0,0.0,0.0,0.0,0.0,0.0,0.0,0.0,0.0,0.0,0.0,0.0,0.0,0.0,0.0,0.0,0.0,0.0,0.0,0.0,0.0,0.0,0.0,-1.8998,0.0,-1.5357,-1.5545,-1.3128,-1.0717,-1.0717,-1.0717,-1.0683,-1.0548,-1.0521,-1.0514,-1.0493,-1.027,-1.0564,-1.2135,-1.3667,-1.5133,-1.6786,-1.8402,-1.9265,-1.9011,-1.8731,-1.8437,-1.8075,-1.7822,-1.7027,-1.553,-1.4126,-1.267,-1.1164,-0.9533,-0.7371,-0.4582,-0.4303,-0.2852,0.0,0.0,-0.0112,-0.028,-0.0112,0.0,0.0,0.0,0.0,0.0,0.0,0.0,0.0,0.0,0.0,0.0,0.0,-0.0784,-0.2068,-0.3631,-0.5036,-0.628,-0.6606,-0.669,-0.6219,-0.3616,-0.339,-0.3856,-0.2632,-0.3783,-0.5527,-0.5877,-0.5977,-0.5977,-0.5977,-0.5272,-0.4468,-0.4318,-0.3366,-0.2816,-0.3767,-0.2964,-0.1611,-0.0252,0.0,0.0,0.0,0.0,0.0,0.0,0.0,0.0,0.0,0.0,0.0,0.0,0.0,0.0,0.0,0.0,0.0,0.0,0.0,0.0,0.0,0.0,0.0,0.0,0.0,0.0,0.0,0.0,0.0,0.0,0.0,0.0,-1.7887,-1.6377,-1.4804,-1.4409,-1.2458,-1.0616,-1.0704,-1.0656,-1.0575,-1.0507,-1.0358,-1.0243,-1.0243,-1.0078,-1.0816,-1.3262,-1.4024,-1.5226,-1.77,-1.856,-1.8824,-1.8691,-1.8424,-1.8142,-1.8009,-1.7769,-1.6658,-1.4395,-1.3642,-1.229,-0.9966,-0.9265,-0.7537,-0.4582,-0.4526,-0.3075,-0.0056,0.0,0.0,0.0,0.0,0.0,0.0,0.0,0.0,0.0,0.0,0.0,0.0,0.0,0.0,0.0,0.0,-0.0392,-0.1176,-0.2682,-0.4033,-0.5226,-0.5389,-0.5887,-0.6083,-0.3968,-0.3702,-0.4136,-0.4226,-0.4536,-0.5022,-0.5777,-0.5477,-0.4718,-0.3971,-0.3867,-0.3817,-0.3065,-0.2414,-0.2163,-0.2764,-0.1813,-0.0706,-0.0101,0.0,0.0,0.0,0.0,0.0,0.0,0.0,0.0,0.0,0.0,0.0,0.0,0.0,0.0,0.0,0.0,0.0,0.0,0.0,0.0,0.0,0.0,0.0,0.0,0.0,0.0,0.0,0.0,0.0,0.0,0.0,0.0,-1.7399,-1.6304,-1.4922,-1.3806,-1.2339,-1.1034,-1.0702,-1.0575,-1.048,-1.0446,-1.0229,-0.9977,-0.9936,-0.993,-1.0988,-1.4093,-1.4348,-1.5297,-1.8451,-1.8677,-1.8464,-1.8384,-1.8129,-1.7955,-1.7876,-1.7716,-1.6393,-1.3534,-1.3318,-1.2028,-0.9044,-0.8885,-0.7537,-0.4582,-0.4526,-0.3075,-0.0056,0.0,0.0,0.0,0.0,0.0,0.0,0.0,0.0,0.0,0.0,0.0,0.0,0.0,0.0,0.0,0.0,-0.0447,-0.1223,-0.2277,-0.3777,-0.5157,-0.4621,-0.5043,-0.5595,-0.4135,-0.3888,-0.4358,-0.5639,-0.528,-0.4718,-0.5727,-0.4772,-0.3265,-0.2264,-0.2515,-0.2714,-0.1712,-0.1511,-0.1511,-0.1511,-0.0706,0.0,0.0,0.0,0.0,0.0,0.0,0.0,0.0,0.0,0.0,0.0,0.0,0.0,0.0,0.0,0.0,0.0,0.0,0.0,0.0,0.0,0.0,0.0,0.0,0.0,0.0,0.0,0.0,0.0,0.0,0.0,0.0,0.0,0.0,-1.7916,-1.7365,-1.5984,-1.4962,-1.3716,-1.2347,-1.089,-1.05,-1.0453,-1.0317,-1.0161,-0.9943,-0.9863,-0.9836,-1.0846,-1.4063,-1.4348,-1.5297,-1.8451,-1.8677,-1.8384,-1.8049,-1.8009,-1.7876,-1.7635,-1.7595,-1.6393,-1.3534,-1.3318,-1.2028,-0.9044,-0.8885,-0.7537,-0.4582,-0.4526,-0.3075,-0.0056,0.0,0.0,0.0,0.0,0.0,0.0,0.0,0.0,0.0,0.0,0.0,0.0,0.0,0.0,0.0,0.0,-0.1607,-0.398,-0.4089,-0.5815,-0.7718,-0.5124,-0.4194,-0.3927,-0.2572,-0.2972,-0.4275,-0.5582,-0.5932,-0.5927,-0.5977,-0.4121,-0.2113,-0.2012,-0.1109,-0.0202,-0.0101,-0.0101,-0.0101,-0.0101,-0.005,0.0,0.0,0.0,0.0,0.0,0.0,0.0,0.0,0.0,0.0,0.0,0.0,0.0,0.0,0.0,0.0,0.0,0.0,0.0,0.0,0.0,0.0,0.0,0.0,0.0,0.0,0.0,0.0,0.0,0.0,0.0,0.0,0.0,0.0,-1.3906,-1.3489,-1.2803,-1.1751,-1.118,-1.0765,-1.0307,-1.0209,-1.0195,-1.0141,-1.0012,-0.9883,-0.9829,-1.0657,-1.2037,-1.4242,-1.5226,-1.6344,-1.8384,-1.8397,-1.809,-1.7782,-1.7756,-1.7702,-1.7595,-1.7582,-1.6393,-1.3534,-1.3318,-1.2028,-0.9044,-0.879,-0.7471,-0.4563,-0.4399,-0.293,-0.0056,0.0,0.0,0.0,0.0,0.0,0.0,0.0,0.0,0.0,0.0,0.0,0.0,0.0,0.0,0.0,0.0,-0.1164,-0.2889,-0.3866,-0.5324,-0.6713,-0.5831,-0.5454,-0.5222,-0.4722,-0.4872,-0.5527,-0.688,-0.6681,-0.5827,-0.4972,-0.3416,-0.1813,-0.0958,-0.0353,0.0,0.0,0.0,0.0,0.0,0.0,0.0,0.0,0.0,0.0,0.0,0.0,0.0,0.0,0.0,0.0,0.0,0.0,0.0,0.0,0.0,0.0,0.0,0.0,0.0,0.0,0.0,0.0,0.0,0.0,0.0,0.0,0.0,0.0,0.0,0.0,0.0,0.0,0.0,0.0,-1.1964,-1.199,-1.1785,-1.0557,-1.0406,-1.0453,-1.006,-0.995,-0.9923,-0.9977,-0.9869,-0.9822,-0.9822,-1.1555,-1.3347,-1.4421,-1.5693,-1.696,-1.8295,-1.8237,-1.7876,-1.7622,-1.7582,-1.7582,-1.7582,-1.7147,-1.5849,-1.348,-1.2832,-1.1483,-0.9044,-0.8845,-0.7466,-0.4614,-0.339,-0.187,0.0,0.0,0.0,0.0,0.0,0.0,0.0,0.0,0.0,0.0,0.0,0.0,0.0,0.0,0.0,-0.0056,-0.0501,-0.1544,-0.2885,-0.43,-0.5641,-0.6708,-0.6353,-0.6088,-0.5977,-0.5977,-0.5977,-0.6182,-0.7086,-0.6381,-0.5072,-0.3717,-0.2364,-0.1109,-0.0252,0.0,0.0,0.0,0.0,0.0,0.0,0.0,0.0,0.0,0.0,0.0,0.0,0.0,0.0,0.0,0.0,0.0,0.0,0.0,0.0,0.0,0.0,0.0,0.0,0.0,0.0,0.0,0.0,0.0,0.0,0.0,0.0,0.0,0.0,0.0,0.0,0.0,0.0,0.0,0.0,0.0,0.0,0.0,0.0,-1.1762,-1.1661,-1.16,-1.0258,-0.9849,-0.9849,-0.9943,-0.9856,-0.9815,-0.9822,-1.2397,-1.454,-1.4599,-1.5704,-1.7029,-1.8308,-1.825,-1.7889,-1.7635,-1.7582,-1.7582,-1.7582,-1.6274,-1.4824,-1.348,-1.2028,-1.0562,-0.9099,-0.8927,-0.747,-0.4575,-0.1541,0.0,0.0,0.0,0.0,0.0,0.0,0.0,0.0,0.0,0.0,0.0,0.0,0.0,0.0,0.0,0.0,-0.0168,-0.1483,-0.2941,-0.4385,-0.5548,-0.697,-0.8088,-0.6575,-0.6077,-0.6077,-0.6077,-0.6032,-0.5977,-0.5977,-0.5022,-0.3667,-0.2364,-0.1058,0.0,0.0,0.0,0.0,0.0,0.0,0.0,0.0,0.0,0.0,0.0,0.0,0.0,0.0,0.0,0.0,0.0,0.0,0.0,0.0,0.0,0.0,0.0,0.0,0.0,0.0,0.0,0.0,0.0,0.0,0.0,0.0,0.0,0.0,0.0,0.0,0.0,0.0,0.0,0.0,0.0,0.0,0.0,-0.977,0.0,0.0,0.0,0.0,0.0,-0.9497,-0.9456,-0.9544,-0.97,-0.97,-0.97,-0.9802,-1.1495,-1.3228,-1.4421,-1.6856,-1.8659,-1.8781,-1.8557,-1.825,-1.7956,-1.7716,-1.7582,-1.7582,-1.6274,-1.5251,-1.4824,-1.348,-1.2507,-1.2082,-0.899,-0.627,-0.4196,-0.1451,0.0,0.0,0.0,0.0,0.0,0.0,0.0,0.0,0.0,0.0,0.0,0.0,0.0,0.0,0.0,-0.0551,-0.1482,-0.1834,-0.3448,-0.5552,-0.5859,-0.6862,-0.8049,-0.7603,-0.7434,-0.7434,-0.7434,-0.6781,-0.5977,-0.5977,-0.4372,-0.2465,-0.2113,-0.1058,0.0,0.0,0.0,0.0,0.0,0.0,0.0,0.0,0.0,0.0,0.0,0.0,0.0,0.0,0.0,0.0,0.0,0.0,0.0,0.0,0.0,0.0,0.0,0.0,0.0,0.0,0.0,0.0,0.0,0.0,0.0,0.0,0.0,0.0,0.0,0.0,0.0,0.0,0.0,0.0,0.0,0.0,0.0,-0.871,-0.8825,-0.8898,-0.9015,0.0,0.0,-0.9262,-0.9218,-0.9273,-0.9551,-0.9557,-0.9557,-0.9707,-1.0979,-1.2596,-1.4271,-1.6634,-1.8461,-1.8831,-1.8784,-1.8517,-1.8049,-1.7889,-1.745,-1.6723,-1.5358,-1.4502,-1.4502,-1.321,-1.2398,-1.2398,-0.8681,-0.5882,-0.428,-0.1459,0.0,0.0,0.0,0.0,0.0,0.0,0.0,0.0,0.0,0.0,0.0,0.0,0.0,0.0,0.0,-0.0811,-0.2048,-0.2592,-0.4188,-0.6204,-0.6675,-0.7389,-0.8126,-0.8015,-0.7988,-0.7988,-0.7988,-0.7086,-0.5877,-0.5322,-0.3667,-0.1861,-0.1309,-0.0605,0.0,0.0,0.0,0.0,0.0,0.0,0.0,0.0,0.0,0.0,0.0,0.0,0.0,0.0,0.0,0.0,0.0,0.0,0.0,0.0,0.0,0.0,0.0,0.0,0.0,0.0,0.0,0.0,0.0,0.0,0.0,0.0,0.0,0.0,0.0,0.0,0.0,0.0,0.0,0.0,0.0,0.0,0.0,-0.871,-0.8825,-0.8967,-0.9076,-0.892,0.0,-0.9198,-0.9103,-0.8993,-0.9456,-0.9442,-0.9401,-0.9557,-1.0631,-1.2179,-1.4021,-1.5574,-1.7114,-1.8731,-1.8945,-1.8675,-1.8155,-1.7899,-1.7159,-1.5636,-1.4202,-1.3434,-1.3576,-1.2472,-1.1692,-1.1348,-0.8487,-0.6103,-0.4512,-0.1541,0.0,0.0,0.0,0.0,0.0,0.0,0.0,0.0,0.0,0.0,0.0,0.0,0.0,0.0,-0.0161,-0.1009,-0.2326,-0.3526,-0.5037,-0.6615,-0.7623,-0.8126,-0.8221,-0.8035,-0.7988,-0.7988,-0.7839,-0.688,-0.5527,-0.4168,-0.2864,-0.1511,-0.0353,0.0,0.0,0.0,0.0,0.0,0.0,0.0,0.0,0.0,0.0,0.0,0.0,0.0,0.0,0.0,0.0,0.0,0.0,0.0,0.0,0.0,0.0,0.0,0.0,0.0,0.0,0.0,0.0,0.0,0.0,0.0,0.0,0.0,0.0,0.0,0.0,0.0,0.0,0.0,0.0,0.0,0.0,0.0,0.0,-0.871,-0.8825,-0.8858,-0.8818,-0.8845,0.0,-0.8696,-0.8804,-0.8905,-0.8993,-0.9137,-0.9303,-0.9395,-0.9692,-1.0763,-1.3536,-1.4489,-1.5905,-1.8892,-1.9078,-1.8878,-1.8771,-1.739,-1.6327,-1.599,-1.4641,-1.4176,-1.5151,-1.5916,-1.5276,-1.279,-0.9898,-0.7124,-0.4324,-0.1477,0.0,0.0,0.0,0.0,0.0,0.0,0.0,0.0,0.0,0.0,0.0,0.0,0.0,-0.0105,-0.1147,-0.239,-0.3626,-0.3916,-0.5514,-0.7711,-0.7909,-0.8008,-0.8029,-0.8002,-0.7988,-0.7839,-0.6731,-0.5472,-0.4117,-0.2814,-0.146,-0.0353,-0.005,0.0,0.0,0.0,0.0,0.0,0.0,0.0,0.0,0.0,0.0,0.0,0.0,0.0,0.0,0.0,0.0,0.0,0.0,0.0,0.0,0.0,0.0,0.0,0.0,0.0,0.0,0.0,0.0,0.0,0.0,0.0,0.0,0.0,0.0,0.0,0.0,0.0,0.0,0.0,0.0,0.0,0.0,0.0,0.0,-0.8845,-0.8824,-0.8865,-0.8845,-0.8764,0.0,0.0,-0.8601,-0.8669,-0.8838,-0.8872,-0.8886,-0.9117,-0.9035,-1.0019,-1.3171,-1.3856,-1.512,-1.8455,-1.9052,-1.8792,-1.7824,-1.6867,-1.5648,-1.3988,-1.3875,-1.4403,-1.5713,-1.707,-1.6082,-1.2209,-0.9946,-0.7083,-0.3308,-0.1106,0.0,0.0,0.0,0.0,0.0,0.0,0.0,0.0,0.0,0.0,0.0,0.0,-0.0369,-0.1036,-0.1708,-0.3186,-0.4985,-0.4989,-0.6226,-0.7988,-0.7988,-0.7988,-0.7889,-0.7235,-0.6986,-0.6781,-0.5422,-0.4117,-0.2864,-0.2213,-0.1058,0.0,0.0,0.0,0.0,0.0,0.0,0.0,0.0,0.0,0.0,0.0,0.0,0.0,0.0,0.0,0.0,0.0,0.0,0.0,0.0,0.0,0.0,0.0,0.0,0.0,0.0,0.0,0.0,0.0,0.0,0.0,0.0,0.0,0.0,0.0,0.0,0.0,0.0,0.0,0.0,0.0,0.0,0.0,0.0,0.0,0.0,-0.8981,-0.8885,-0.8871,-0.8811,-0.8689,-0.8533,0.0,0.0,0.0,-0.8743,-0.8635,-0.856,-0.8804,-0.8648,-0.9557,-1.2856,-1.3439,-1.4657,-1.7932,-1.8625,-1.8231,-1.6655,-1.623,-1.5013,-1.2347,-1.3469,-1.4941,-1.6361,-1.7102,-1.5634,-1.1348,-0.9377,-0.6463,-0.2345,-0.0784,0.0,0.0,0.0,0.0,0.0,0.0,0.0,0.0,0.0,0.0,0.0,-0.0266,-0.0993,-0.2058,-0.2572,-0.4024,-0.5977,-0.5727,-0.6431,-0.764,-0.764,-0.7434,-0.7129,-0.6282,-0.5827,-0.5372,-0.4067,-0.2714,-0.1611,-0.1611,-0.0857,0.0,0.0,0.0,0.0,0.0,0.0,0.0,0.0,0.0,0.0,0.0,0.0,0.0,0.0,0.0,0.0,0.0,0.0,0.0,0.0,0.0,0.0,0.0,0.0,0.0,0.0,0.0,0.0,0.0,0.0,0.0,0.0,0.0,0.0,0.0,0.0,0.0,0.0,0.0,0.0,0.0,0.0,0.0,0.0,0.0,0.0,-0.8981,-0.8885,-0.8817,-0.8601,-0.8608,-0.8587,-0.815,0.0,-0.8438,-0.8364,0.0,-0.8492,-0.8526,0.0,0.0,-1.2552,-1.3283,-1.4591,-1.7603,-1.7227,-1.6633,-1.6493,-1.5297,-1.4384,-1.4272,-1.5199,-1.663,-1.8403,-1.68,-1.4429,-1.1585,-0.8514,-0.5439,-0.2291,-0.0784,0.0,0.0,0.0,0.0,0.0,0.0,0.0,0.0,0.0,0.0,-0.0052,-0.1278,-0.1872,-0.217,-0.4587,-0.5737,-0.5877,-0.4668,-0.5072,-0.6232,-0.6232,-0.5472,-0.4618,-0.5627,-0.5222,-0.4017,-0.2666,-0.1309,-0.0252,-0.0252,-0.0101,0.0,0.0,0.0,0.0,0.0,0.0,0.0,0.0,0.0,0.0,0.0,0.0,0.0,0.0,0.0,0.0,0.0,0.0,0.0,0.0,0.0,0.0,0.0,0.0,0.0,0.0,0.0,0.0,0.0,0.0,0.0,0.0,0.0,0.0,0.0,0.0,0.0,0.0,0.0,0.0,0.0,0.0,0.0,0.0,0.0,0.0,-0.746,-0.6982,-0.6498,-0.7147,-0.7304,-0.744,-0.8031,-0.8201,-0.8235,-0.8262,0.0,0.0,0.0,0.0,0.0,0.0,-1.2394,-1.2996,-1.5948,-1.5244,-1.4571,-1.4923,-1.4406,-1.4442,-1.5613,-1.608,-1.6976,-1.8552,-1.6807,-1.3995,-1.0116,-0.7816,-0.4831,-0.1064,-0.0336,0.0,0.0,0.0,0.0,0.0,0.0,0.0,0.0,0.0,0.0,-0.0052,-0.1422,-0.2465,-0.3316,-0.5222,-0.6481,-0.693,-0.4818,-0.4818,-0.5927,-0.5122,-0.4468,-0.3967,-0.3767,-0.3316,-0.2615,-0.1259,-0.0454,0.0,0.0,0.0,0.0,0.0,0.0,0.0,0.0,0.0,0.0,0.0,0.0,0.0,0.0,0.0,0.0,0.0,0.0,0.0,0.0,0.0,0.0,0.0,0.0,0.0,0.0,0.0,0.0,0.0,0.0,0.0,0.0,0.0,0.0,0.0,0.0,0.0,0.0,0.0,0.0,0.0,0.0,0.0,0.0,0.0,0.0,0.0,0.0,0.0,-0.5833,-0.5306,-0.4834,-0.6138,-0.6366,-0.6637,-0.7935,-0.8153,-0.8133,-0.8248,-0.8214,0.0,0.0,0.0,-0.919,-1.1831,0.0,-1.1732,-1.4342,-1.3341,-1.2583,-1.3065,-1.3579,-1.4561,-1.6229,-1.6705,-1.7185,-1.7867,-1.6222,-1.3351,-0.9154,-0.7105,-0.4339,-0.0728,-0.0224,0.0,0.0,0.0,0.0,0.0,0.0,0.0,0.0,0.0,0.0,-0.0103,-0.1822,-0.3115,-0.4117,-0.5827,-0.7135,-0.7789,-0.5472,-0.4918,-0.5272,-0.3967,-0.3215,-0.2814,-0.2213,-0.1762,-0.1309,-0.0303,0.0,0.0,0.0,0.0,0.0,0.0,0.0,0.0,0.0,0.0,0.0,0.0,0.0,0.0,0.0,0.0,0.0,0.0,0.0,0.0,0.0,0.0,0.0,0.0,0.0,0.0,0.0,0.0,0.0,0.0,0.0,0.0,0.0,0.0,0.0,0.0,0.0,0.0,0.0,0.0,0.0,0.0,0.0,0.0,0.0,0.0,0.0,0.0,0.0,0.0,-0.4603,-0.4526,-0.4768,-0.5993,-0.6305,-0.6615,-0.7755,-0.816,-0.832,-0.832,-0.8377,-0.8472,-0.8472,-0.8472,-0.9046,-1.0682,-1.0819,0.0,0.0,-1.1881,-1.0897,-1.1185,-1.2776,-1.4498,-1.5985,-1.7224,-1.7515,-1.6454,-1.4516,-1.2192,-0.9405,-0.6289,-0.3798,-0.218,-0.0728,0.0,0.0,0.0,0.0,0.0,0.0,0.0,0.0,0.0,0.0,-0.0152,-0.2766,-0.3964,-0.4214,-0.683,-0.7939,-0.7839,-0.6481,-0.5172,-0.3917,-0.2563,-0.126,-0.0303,-0.1561,-0.1159,-0.005,0.0,0.0,0.0,0.0,0.0,0.0,0.0,0.0,0.0,0.0,0.0,0.0,0.0,0.0,0.0,0.0,0.0,0.0,0.0,0.0,0.0,0.0,0.0,0.0,0.0,0.0,0.0,0.0,0.0,0.0,0.0,0.0,0.0,0.0,0.0,0.0,0.0,0.0,0.0,0.0,0.0,0.0,0.0,0.0,0.0,0.0,0.0,0.0,0.0,0.0,0.0,-0.2742,-0.2293,-0.1836,-0.3151,-0.3479,-0.3794,-0.5039,-0.5393,-0.5728,-0.6759,-0.7015,-0.7363,-0.8321,-0.8567,-0.9122,-1.0654,-1.013,-0.9969,0.0,-1.0163,-0.994,-1.209,-1.3088,-1.4647,-1.7106,-1.7764,-1.7939,-1.7772,-1.5044,-1.2671,-1.0858,-0.6853,-0.3898,-0.2235,-0.0784,0.0,0.0,0.0,0.0,0.0,0.0,0.0,0.0,0.0,0.0,-0.0151,-0.2814,-0.4014,-0.4214,-0.688,-0.7988,-0.7889,-0.6531,-0.5727,-0.5072,-0.2816,-0.1159,-0.005,-0.0504,-0.0404,0.0,0.0,0.0,0.0,0.0,0.0,0.0,0.0,0.0,0.0,0.0,0.0,0.0,0.0,0.0,0.0,0.0,0.0,0.0,0.0,0.0,0.0,0.0,0.0,0.0,0.0,0.0,0.0,0.0,0.0,0.0,0.0,0.0,0.0,0.0,0.0,0.0,0.0,0.0,0.0,0.0,0.0,0.0,0.0,0.0,0.0,0.0,0.0,0.0,0.0,0.0,0.0,-0.1175,-0.0728,-0.0335,-0.1645,-0.2002,-0.2348,-0.3717,-0.4034,-0.4365,-0.5365,-0.5603,-0.61,-0.7612,-0.7906,-0.8451,-0.9962,-0.9417,-0.9075,0.0,-0.9035,-0.9354,-1.1893,-1.2843,-1.4308,-1.6804,-1.7021,-1.6924,-1.6698,-1.4174,-1.2284,-1.1488,-0.7152,-0.4182,-0.3101,-0.1073,0.0,0.0,0.0,0.0,0.0,0.0,0.0,0.0,0.0,0.0,-0.0101,-0.2314,-0.3566,-0.4168,-0.6376,-0.7584,-0.7889,-0.7036,-0.6431,-0.5727,-0.3516,-0.1861,-0.0656,-0.0151,0.0,0.0,0.0,0.0,0.0,0.0,0.0,0.0,0.0,0.0,0.0,0.0,0.0,0.0,0.0,0.0,0.0,0.0,0.0,0.0,0.0,0.0,0.0,0.0,0.0,0.0,0.0,0.0,0.0,0.0,0.0,0.0,0.0,0.0,0.0,0.0,0.0,0.0,0.0,0.0,0.0,0.0,0.0,0.0,0.0,0.0,0.0,0.0,0.0,0.0,0.0,0.0,0.0]}]]